[[{"header":{"parameterUnit":"m.s-1","parameterCategory":1,"la1":31.0,"la2":29.5877,"lo1":-88.7671,"lo2":-86.6584,"dy":0.0162,"dx":0.0185,"nx":115,"ny":88,"refTime":"2024-05-15T06:00:00:Z","depth":0,"parameterNumber":2,"parameterNumberName":"U-component_of_WINDS"},"data":[0.0,0.0,0.0,0.0,0.0,0.0,0.0,0.0,0.0,0.0,0.0,0.0,0.0,0.0,0.0,0.0,0.0,0.0,0.0,0.0,0.0,0.0,0.0,0.0,0.0,0.0,0.0,0.0,0.0,0.0,0.0,0.0,0.0,0.0,0.0,0.0,0.0,0.0,0.0,0.0,0.0,0.0,0.0,0.0,0.0,0.0,0.0,0.0,0.0,0.0,0.0,0.0,0.0,0.0,0.0,0.0,0.0,0.0,0.0,0.0,0.0,0.0,0.0,0.0,0.0,0.0,0.0,0.0,0.0,0.0,0.0,0.0,0.0,0.0,0.0,0.0,0.0,0.0,0.0,0.0,0.0,0.0,0.0,0.0,0.0,0.0,0.0,0.0,0.0,0.0,0.0,0.0,0.0,0.0,0.0,0.0,0.0,0.0,0.0,0.0,0.0,0.0,0.0,0.0,0.0,0.0,0.0,0.0,0.0,0.0,0.0,0.0,0.0,0.0,0.0,0.0,0.0,0.0,0.0,0.0,0.0,0.0,0.0,0.0,0.0,0.0,0.0,0.0,0.0,0.0,0.0,0.0,0.0,0.0,0.0,0.0,0.0,0.0,0.0,0.0,0.0,0.0,0.0,0.0,0.0,0.0,0.0,0.0,0.0,0.0,0.0,0.0,0.0,0.0,0.0,0.0,0.0,0.0,0.0,0.0,0.0,0.0,0.0,0.0,0.0,0.0,0.0,0.0,0.0,0.0,0.0,0.0,0.0,0.0,0.0,0.0,0.0,0.0,0.0,0.0,0.0,0.0,0.0,0.0,0.0,0.0,0.0,0.0,0.0,0.0,0.0,0.0,0.0,0.0,0.0,0.0,0.0,0.0,0.0,0.0,0.0,0.0,0.0,0.0,0.0,0.0,0.0,0.0,0.0,0.0,0.0,0.0,0.0,0.0,0.0,0.0,0.0,0.0,0.0,0.0,0.0,0.0,0.0,0.0,0.0,0.0,0.0,0.0,0.0,0.0,0.0,0.0,0.0,0.0,0.0,0.0,0.0,0.0,0.0,0.0,0.0,0.0,0.0,0.0,0.0,0.0,0.0,0.0,0.0,0.0,0.0,0.0,0.0,0.0,0.0,0.0,0.0,0.0,0.0,0.0,0.0,0.0,0.0,0.0,0.0,0.0,0.0,0.0,0.0,0.0,0.0,0.0,0.0,0.0,0.0,0.0,0.0,0.0,0.0,0.0,0.0,0.0,0.0,0.0,0.0,0.0,0.0,0.0,0.0,0.0,0.0,0.0,0.0,0.0,0.0,0.0,0.0,0.0,0.0,0.0,0.0,0.0,0.0,0.0,0.0,0.0,0.0,0.0,0.0,0.0,0.0,0.0,0.0,0.0,0.0,0.0,0.0,0.0,0.0,0.0,0.0,0.0,0.0,0.0,0.0,0.0,0.0,0.0,0.0,0.0,0.0,0.0,0.0,0.0,0.0,0.0,0.0,0.0,0.0,0.0,0.0,0.0,0.0,0.0,0.0,0.0,0.0,0.0,0.0,0.0,0.0,0.0,0.0,0.0,0.0,0.0,0.0,0.0,0.0,0.0,0.0,0.0,0.0,0.0,0.0,0.0,0.0,0.0,0.0,0.0,0.0,0.0,0.0,0.0,0.0,0.0,0.0,0.0,0.0,0.0,0.0,0.0,0.0,0.0,0.0,0.0,0.0,0.0,0.0,0.0,0.0,0.0,0.0,0.0,0.0,0.0,0.0,0.0,0.0,0.0,0.0,0.0,0.0,0.0,0.0,0.0,0.0,0.0,0.0,0.0,0.0,0.0,0.0,0.0,0.0,0.0,0.0,0.0,0.0,0.0,0.0,0.0,0.0,0.0,0.0,0.0,0.0,0.0,0.0,0.0,0.0,0.0,0.0,0.0,0.0,0.0,0.0,0.0,0.0,0.0,0.0,0.0,0.0,0.0,0.0,0.0,0.0,0.0,0.0,0.0,0.0,0.0,0.0,0.0,0.0,0.0,0.0,0.0,0.0,0.0,0.0,0.0,0.0,0.0,0.0,0.0,0.0,0.0,0.0,0.0,0.0,0.0,0.0,0.0,0.0,0.0,0.0,0.0,0.0,0.0,0.0,0.0,0.0,0.0,0.0,0.0,0.0,0.0,0.0,0.0,0.0,0.0,0.0,0.0,0.0,0.0,0.0,0.0,0.0,0.0,0.0,0.0,0.0,0.0,0.0,0.0,0.0,0.0,0.0,0.0,0.0,0.0,0.0,0.0,0.0,0.0,0.0,0.0,0.0,0.0,0.0,0.0,0.0,0.0,0.0,0.0,0.0,0.0,0.0,0.0,0.0,0.0,0.0,0.0,0.0,0.0,0.0,0.0,0.0,0.0,0.0,0.0,0.0,0.0,0.0,0.0,0.0,0.0,0.0,0.0,0.0,0.0,0.0,0.0,0.0,0.0,0.0,0.0,0.0,0.0,0.0,0.0,0.0,0.0,0.0,0.0,0.0,0.0,0.0,0.0,0.0,0.0,0.0,0.0,0.0,0.0,0.0,0.0,0.0,0.0,0.0,0.0,0.0,0.0,0.0,0.0,0.0,0.0,0.0,0.0,0.0,0.0,0.0,0.0,0.0,0.0,0.0,0.0,0.0,0.0,0.0,0.0,0.0,0.0,0.0,0.0,0.0,0.0,0.0,0.0,0.0,0.0,0.0,0.0,0.0,0.0,0.0,0.0,0.0,0.0,0.0,0.0,0.0,0.0,0.0,0.0,0.0,0.0,0.0,0.0,0.0,0.0,0.0,0.0,0.0,0.0,0.0,0.0,0.0,0.0,0.0,0.0,0.0,0.0,0.0,0.0,0.0,0.0,0.0,0.0,0.0,0.0,0.0,0.0,0.0,0.0,0.0,0.0,0.0,0.0,0.0,0.0,0.0,0.0,0.0,0.0,0.0,0.0,0.0,0.0,0.0,0.0,0.0,0.0,0.0,0.0,0.0,0.0,0.0,0.0,0.0,0.0,0.0,0.0,0.0,0.0,0.0,0.0,0.0,0.0,0.0,0.0,0.0,0.0,0.0,0.0,0.0,0.0,0.0,0.0,0.0,0.0,0.0,0.0,0.0,0.0,0.0,0.0,0.0,0.0,0.0,0.0,0.0,0.0,0.0,0.0,0.0,0.0,0.0,0.0,0.0,0.0,0.0,0.0,0.0,0.0,0.0,0.0,0.0,0.0,0.0,0.0,0.0,0.0,0.0,0.0,0.0,0.0,0.0,0.0,0.0,0.0,0.0,0.0,0.0,0.0,0.0,0.0,0.0,0.0,0.0,0.0,0.0,0.0,0.0,0.0,0.0,0.0,0.0,0.0,0.0,0.0,0.0,0.0,0.0,0.0,0.0,0.0,0.0,0.0,0.0,0.0,0.0,0.0,0.0,0.0,0.0,0.0,0.0,0.0,0.0,0.0,0.0,0.0,0.0,0.0,0.0,0.0,0.0,0.0,0.0,0.0,0.0,0.0,0.0,0.0,0.0,0.0,0.0,0.0,0.0,0.0,0.0,0.0,0.0,0.0,0.0,0.0,0.0,0.0,0.0,0.0,0.0,0.0,0.0,0.0,0.0,0.0,0.0,0.0,0.0,0.0,0.0,0.0,0.0,0.0,0.0,0.0,0.0,0.0,0.0,0.0,0.0,0.0,0.0,0.0,0.0,0.0,0.0,0.0,0.0,0.0,0.0,0.0,0.0,0.0,0.0,0.0,0.0,0.0,0.0,0.0,0.0,0.0,0.0,0.0,0.0,0.0,0.0,0.0,0.0,0.0,0.0,0.0,0.0,0.0,0.0,0.0,0.0,0.0,0.0,0.0,0.0,0.0,0.0,0.0,0.0,0.0,0.0,0.0,0.0,0.0,0.0,0.0,0.0,0.0,0.0,0.0,0.0,0.0,0.0,0.0,0.0,0.0,0.0,0.0,0.0,0.0,0.0,0.0,0.0,0.0,0.0,0.0,0.0,0.0,0.0,0.0,0.0,0.0,0.0,0.0,0.0,0.0,0.0,0.0,0.0,0.0,0.0,0.0,0.0,0.0,0.0,0.0,0.0,0.0,0.0,0.0,0.0,0.0,0.0,0.0,0.0,0.0,0.0,0.0,0.0,0.0,0.0,0.0,0.0,0.0,0.0,0.0,0.0,0.0,0.0,0.0,0.0,0.0,0.0,0.0,0.0,0.0,0.0,0.0,0.0,0.0,0.0,0.0,0.0,0.0,0.0,0.0,0.0,0.0,1.4009,0.0,0.0,0.0,0.0,0.0,0.0,0.0,0.0,0.0,0.0,0.0,0.0,0.0,0.0,0.0,0.0,0.0,0.0,0.0,0.0,0.0,0.0,0.0,0.0,0.0,0.0,0.0,0.0,0.0,0.0,0.0,0.0,0.0,0.0,0.0,0.0,0.0,0.0,0.0,0.0,0.0,0.0,0.0,0.0,0.0,0.0,0.0,0.0,0.0,0.0,0.0,0.0,0.0,0.0,0.0,0.0,0.0,0.0,0.0,0.0,0.0,0.0,0.0,0.0,0.0,0.0,0.0,0.0,0.0,0.0,0.0,0.0,0.0,0.0,0.0,0.0,0.0,0.0,0.0,0.0,0.0,0.0,0.0,0.0,0.0,0.0,0.0,0.0,0.0,0.0,0.0,0.0,0.0,0.0,0.0,0.0,0.0,0.0,0.0,0.0,0.0,0.0,0.0,0.0,0.0,0.0,0.0,0.0,0.0,0.0,1.5615,1.541,1.501,1.4414,1.3584,0.0,0.0,0.0,0.0,0.0,0.0,0.0,0.0,0.0,0.0,0.0,0.0,0.0,0.0,0.0,0.0,0.0,0.0,0.0,0.0,0.0,0.0,0.0,0.0,0.0,0.0,0.0,0.0,0.0,0.0,0.0,0.0,0.0,0.0,0.0,0.0,0.0,0.0,0.0,0.0,0.0,0.0,0.0,0.0,0.0,0.0,0.0,0.0,0.0,0.0,0.0,0.0,0.0,0.0,0.0,0.0,0.0,0.0,0.0,0.0,0.0,0.0,0.0,0.0,0.0,0.0,0.0,0.0,0.0,0.0,0.0,0.0,0.0,0.0,0.0,0.0,0.0,0.0,0.0,0.0,0.0,0.0,0.0,0.0,0.0,0.0,0.0,0.0,0.0,0.0,0.0,0.0,0.0,0.0,0.0,0.0,0.0,0.0,0.0,0.0,0.0,0.0,0.0,0.0,0.0,0.0,0.0,0.0,0.0,0.0,0.0,0.0,1.54,1.4734,1.3645,0.0,0.0,0.0,0.0,0.0,0.0,0.0,0.0,0.0,0.0,0.0,0.0,0.0,0.0,0.0,0.0,0.0,0.0,0.0,0.0,0.0,0.0,0.0,0.0,0.0,0.0,0.0,0.0,0.0,0.0,0.0,0.0,0.0,0.0,0.0,0.0,0.0,0.0,0.0,0.0,0.0,0.0,0.0,0.0,0.0,0.0,0.0,0.0,0.0,0.0,0.0,0.0,0.0,0.0,0.0,0.0,0.0,0.0,0.0,0.0,0.0,0.0,0.0,0.0,0.0,0.0,0.0,0.0,0.0,0.0,0.0,0.0,0.0,0.0,0.0,0.0,0.0,0.0,0.0,0.0,0.0,0.0,0.0,0.0,0.0,0.0,0.0,0.0,0.0,0.0,0.0,0.0,0.0,0.0,0.0,0.0,0.0,0.0,0.0,0.0,0.0,0.0,0.0,0.0,0.0,0.0,0.0,0.0,0.0,0.0,1.54,1.65,1.65,0.0,1.5206,0.0,0.0,0.0,0.0,0.0,0.0,0.0,0.0,0.0,0.0,0.0,0.0,0.0,0.0,0.0,0.0,0.0,0.0,0.0,0.0,0.0,0.0,0.0,0.0,0.0,0.0,0.0,0.0,0.0,0.0,0.0,0.0,0.0,0.0,0.0,0.0,0.0,0.0,0.0,0.0,0.0,0.0,0.0,0.0,0.0,0.0,0.0,0.0,0.0,0.0,0.0,0.0,0.0,0.0,0.0,0.0,0.0,0.0,0.0,0.0,0.0,0.0,0.0,0.0,0.0,0.0,0.0,0.0,0.0,0.0,0.0,0.0,0.0,0.0,0.0,0.0,0.0,0.0,0.0,0.0,0.0,0.0,0.0,0.0,0.0,0.0,0.0,0.0,0.0,0.0,0.0,0.0,0.0,0.0,0.0,0.0,0.0,0.0,0.0,0.0,0.0,0.0,0.0,0.0,0.0,0.0,0.0,0.0,0.0,0.0,1.541,1.6646,1.609,1.5381,0.0,0.0,0.0,0.0,0.0,0.0,0.0,0.0,0.0,0.0,0.0,0.0,0.0,0.0,0.0,0.0,0.0,0.0,0.0,0.0,0.0,0.0,0.0,0.0,0.0,0.0,0.0,0.0,0.0,0.0,0.0,0.0,0.0,0.0,0.0,0.0,0.0,0.0,0.0,0.0,0.0,0.0,0.0,0.0,0.0,0.0,0.0,0.0,0.0,0.0,0.0,0.0,0.0,0.0,0.0,0.0,0.0,0.0,0.0,0.0,0.0,0.0,0.0,0.0,0.0,0.0,0.0,0.0,0.0,0.0,0.0,0.0,0.0,0.0,0.0,0.0,0.0,0.0,0.0,0.0,0.0,0.0,0.0,0.0,0.0,0.0,0.0,0.0,0.0,0.0,0.0,0.0,0.0,0.0,0.0,0.0,0.0,0.0,0.0,0.0,0.0,0.0,0.0,0.0,0.0,0.0,0.0,0.0,0.0,0.0,1.5225,0.0,1.7054,1.5913,1.4961,1.4457,0.0,0.0,0.0,0.0,0.0,0.0,0.0,0.0,0.0,0.0,0.0,0.0,0.0,0.0,0.0,0.0,0.0,0.0,0.0,0.0,0.0,0.0,0.0,0.0,0.0,0.0,0.0,0.0,0.0,0.0,0.0,0.0,0.0,0.0,0.0,0.0,0.0,0.0,0.0,0.0,0.0,0.0,0.0,0.0,0.0,0.0,0.0,0.0,0.0,0.0,0.0,0.0,0.0,0.0,0.0,0.0,0.0,0.0,0.0,0.0,0.0,0.0,0.0,0.0,0.0,0.0,0.0,0.0,0.0,0.0,0.0,0.0,0.0,0.0,0.0,0.0,0.0,0.0,0.0,0.0,0.0,0.0,0.0,0.0,0.0,0.0,0.0,0.0,0.0,0.0,0.0,0.0,0.0,0.0,0.0,0.0,0.0,0.0,0.0,0.0,0.0,0.0,0.0,0.0,0.0,0.0,0.0,0.0,0.0,1.6787,1.6807,1.8389,1.6471,1.5352,0.0,0.0,0.0,0.0,0.0,0.0,0.0,0.0,0.0,0.0,0.0,0.0,0.0,0.0,0.0,0.0,0.0,0.0,0.0,0.0,0.0,0.0,0.0,0.0,0.0,0.0,0.0,0.0,0.0,0.0,0.0,0.0,0.0,0.0,0.0,0.0,0.0,0.0,0.0,0.0,0.0,0.0,0.0,0.0,0.0,0.0,0.0,0.0,0.0,0.0,0.0,0.0,0.0,0.0,0.0,0.0,0.0,0.0,0.0,0.0,0.0,0.0,0.0,0.0,0.0,0.0,0.0,0.0,0.0,0.0,0.0,0.0,0.0,0.0,0.0,0.0,0.0,0.0,0.0,0.0,0.0,0.0,0.0,0.0,0.0,0.0,0.0,0.0,0.0,0.0,0.0,0.0,0.0,0.0,0.0,0.0,0.0,0.0,0.0,0.0,0.0,0.0,0.0,0.0,0.0,0.0,0.0,0.0,0.0,1.4893,1.5391,1.6338,1.7705,1.626,1.5537,0.0,0.0,0.0,0.0,0.0,0.0,0.0,0.0,0.0,0.0,0.0,0.0,0.0,0.0,0.0,0.0,0.0,0.0,0.0,0.0,0.0,0.0,0.0,0.0,0.0,0.0,0.0,0.0,0.0,0.0,0.0,0.0,0.0,0.0,0.0,0.0,0.0,0.0,0.0,0.0,0.0,0.0,0.0,0.0,0.0,0.0,0.0,0.0,0.0,0.0,0.0,0.0,0.0,0.0,0.0,0.0,0.0,0.0,0.0,0.0,0.0,0.0,0.0,0.0,0.0,0.0,0.0,0.0,0.0,0.0,0.0,0.0,0.0,0.0,0.0,0.0,0.0,0.0,0.0,0.0,0.0,0.0,0.0,0.0,0.0,0.0,0.0,0.0,0.0,0.0,0.0,0.0,0.0,0.0,0.0,0.0,0.0,0.0,0.0,0.0,0.0,0.0,0.0,0.0,0.0,0.0,0.0,0.0,0.0,1.4336,0.0,1.6758,0.0,1.6103,1.5293,0.0,0.0,0.0,0.0,0.0,0.0,0.0,0.0,0.0,0.0,0.0,0.0,0.0,0.0,0.0,0.0,0.0,0.0,0.0,0.0,0.0,0.0,0.0,0.0,0.0,0.0,0.0,0.0,0.0,0.0,0.0,0.0,0.0,0.0,0.0,0.0,0.0,0.0,0.0,0.0,0.0,0.0,0.0,0.0,0.0,0.0,0.0,0.0,0.0,0.0,0.0,0.0,0.0,0.0,0.0,0.0,0.0,0.0,0.0,0.0,0.0,0.0,0.0,0.0,0.0,0.0,0.0,0.0,0.0,0.0,0.0,0.0,0.0,0.0,0.0,0.0,0.0,0.0,0.0,0.0,0.0,0.0,0.0,0.0,0.0,0.0,0.0,0.0,0.0,0.0,0.0,0.0,0.0,0.0,0.0,0.0,0.0,0.0,0.0,0.0,0.0,0.0,0.0,0.0,0.0,0.0,0.0,0.0,1.4336,1.7148,1.8027,1.8047,1.7402,1.6074,1.4629,0.0,0.0,0.0,0.0,0.0,0.0,0.0,0.0,0.0,0.0,0.0,0.0,0.0,0.0,0.0,0.0,0.0,0.0,0.0,0.0,0.0,0.0,0.0,0.0,0.0,0.0,0.0,0.0,0.0,0.0,0.0,0.0,0.0,0.0,0.0,0.0,0.0,0.0,0.0,0.0,0.0,0.0,0.0,0.0,0.0,0.0,0.0,0.0,0.0,0.0,0.0,0.0,0.0,0.0,0.0,0.0,0.0,0.0,0.0,0.0,0.0,0.0,0.0,0.0,0.0,0.0,0.0,0.0,0.0,0.0,0.0,0.0,0.0,0.0,0.0,0.0,0.0,0.0,0.0,0.0,0.0,0.0,0.0,0.0,0.0,0.0,0.0,0.0,0.0,0.0,0.0,0.0,0.0,0.0,0.0,0.0,0.0,0.0,0.0,0.0,0.0,0.0,0.0,0.0,0.0,0.0,0.0,0.0,0.0,1.5146,1.5977,1.7002,1.8096,1.5547,1.4697,0.0,0.0,0.0,0.0,0.0,0.0,0.0,0.0,0.0,0.0,0.0,0.0,0.0,0.0,0.0,0.0,0.0,0.0,0.0,0.0,0.0,0.0,0.0,0.0,0.0,0.0,0.0,0.0,0.0,0.0,0.0,0.0,0.0,0.0,0.0,0.0,0.0,0.0,0.0,0.0,0.0,0.0,0.0,0.0,0.0,0.0,0.0,0.0,0.0,0.0,0.0,0.0,0.0,0.0,0.0,0.0,0.0,0.0,0.0,0.0,0.0,0.0,0.0,0.0,0.0,0.0,0.0,0.0,0.0,0.0,0.0,0.0,0.0,0.0,0.0,0.0,0.0,0.0,0.0,0.0,0.0,0.0,0.0,0.0,0.0,0.0,0.0,0.0,0.0,0.0,0.0,0.0,0.0,0.0,0.0,0.0,0.0,0.0,0.0,0.0,0.0,0.0,0.0,0.0,0.0,0.0,0.0,0.0,0.0,1.541,1.6328,1.7266,1.8154,1.5918,1.5156,1.6084,0.0,0.0,0.0,0.0,0.0,0.0,0.0,0.0,0.0,0.0,0.0,0.0,0.0,0.0,0.0,0.0,0.0,0.0,0.0,0.0,0.0,0.0,0.0,0.0,0.0,0.0,0.0,0.0,0.0,0.0,0.0,0.0,0.0,0.0,0.0,0.0,0.0,0.0,0.0,0.0,0.0,0.0,0.0,0.0,0.0,0.0,0.0,0.0,0.0,0.0,0.0,0.0,0.0,0.0,0.0,0.0,0.0,0.0,0.0,0.0,0.0,0.0,0.0,0.0,0.0,0.0,0.0,0.0,0.0,0.0,0.0,0.0,0.0,0.0,0.0,0.0,0.0,0.0,0.0,0.0,0.0,0.0,0.0,0.0,0.0,0.0,0.0,0.0,0.0,0.0,0.0,0.0,0.0,0.0,0.0,0.0,0.0,0.0,0.0,0.0,0.0,0.0,0.0,0.0,0.0,0.0,0.0,0.0,1.7441,1.873,1.8828,1.7695,1.7041,1.5986,0.0,0.0,0.0,0.0,0.0,0.0,0.0,0.0,0.0,0.0,0.0,0.0,0.0,0.0,0.0,0.0,0.0,0.0,0.0,0.0,0.0,0.0,0.0,0.0,0.0,0.0,0.0,0.0,0.0,0.0,0.0,0.0,0.0,0.0,0.0,0.0,0.0,0.0,0.0,0.0,0.0,0.0,0.0,0.0,0.0,0.0,0.0,0.0,0.0,0.0,0.0,0.0,0.0,0.0,0.0,0.0,0.0,0.0,0.0,0.0,0.0,0.0,0.0,0.0,0.0,0.0,0.0,0.0,0.0,0.0,0.0,0.0,0.0,0.0,0.0,0.0,0.0,0.0,0.0,0.0,0.0,0.0,0.0,0.0,0.0,0.0,0.0,0.0,0.0,0.0,0.0,0.0,0.0,0.0,0.0,0.0,0.0,0.0,0.0,0.0,0.0,0.0,0.0,0.0,0.0,0.0,0.0,0.0,0.0,1.833,1.9893,2.0566,2.0185,1.7959,1.706,0.0,0.0,0.0,0.0,0.0,0.0,0.0,0.0,0.0,0.0,0.0,0.0,0.0,0.0,0.0,0.0,0.0,0.0,0.0,0.0,0.0,0.0,0.0,0.0,0.0,0.0,0.0,0.0,0.0,0.0,0.0,0.0,0.0,0.0,0.0,0.0,0.0,0.0,0.0,0.0,0.0,0.0,0.0,0.0,0.0,0.0,0.0,0.0,0.0,0.0,0.0,0.0,0.0,0.0,0.0,0.0,0.0,0.0,0.0,0.0,0.0,0.0,0.0,0.0,0.0,0.0,0.0,0.0,0.0,0.0,0.0,0.0,0.0,0.0,0.0,0.0,0.0,0.0,0.0,0.0,0.0,0.0,0.0,0.0,0.0,0.0,0.0,0.0,0.0,0.0,0.0,0.0,0.0,0.0,0.0,0.0,0.0,0.0,0.0,0.0,0.0,0.0,0.0,0.0,0.0,0.0,0.0,0.0,1.8398,1.916,2.0869,2.1768,2.1777,1.9551,1.8377,0.0,0.0,0.0,0.0,0.0,0.0,0.0,0.0,0.0,0.0,0.0,0.0,0.0,0.0,0.0,0.0,0.0,0.0,0.0,0.0,0.0,0.0,0.0,0.0,0.0,0.0,0.0,0.0,0.0,0.0,0.0,0.0,0.0,0.0,0.0,0.0,0.0,0.0,0.0,0.0,0.0,0.0,0.0,0.0,0.0,0.0,0.0,0.0,0.0,0.0,0.0,0.0,0.0,0.0,0.0,0.0,0.0,0.0,0.0,0.0,0.0,0.0,0.0,0.0,0.0,0.0,0.0,0.0,0.0,0.0,0.0,0.0,0.0,0.0,0.0,0.0,0.0,0.0,0.0,0.0,0.0,0.0,0.0,0.0,0.0,0.0,0.0,0.0,0.0,0.0,0.0,0.0,0.0,0.0,0.0,0.0,0.0,0.0,0.0,0.0,0.0,0.0,0.0,0.0,0.0,0.0,0.0,0.0,1.9254,1.9971,2.168,2.2559,2.248,2.125,1.977,0.0,0.0,0.0,0.0,0.0,0.0,0.0,0.0,0.0,0.0,0.0,0.0,0.0,0.0,0.0,0.0,0.0,0.0,0.0,0.0,0.0,0.0,0.0,0.0,0.0,0.0,0.0,0.0,0.0,0.0,0.0,0.0,0.0,0.0,0.0,0.0,0.0,0.0,0.0,0.0,0.0,0.0,0.0,0.0,0.0,0.0,0.0,0.0,0.0,0.0,0.0,0.0,0.0,0.0,0.0,0.0,0.0,0.0,0.0,0.0,0.0,0.0,0.0,0.0,0.0,0.0,0.0,0.0,0.0,0.0,0.0,0.0,0.0,0.0,0.0,0.0,0.0,0.0,0.0,0.0,0.0,0.0,0.0,0.0,0.0,0.0,0.0,0.0,0.0,0.0,0.0,0.0,0.0,0.0,0.0,0.0,0.0,0.0,0.0,0.0,0.0,0.0,0.0,0.0,0.0,0.0,0.0,0.0,1.96,2.043,2.2119,2.2852,2.251,2.125,2.0198,0.0,0.0,0.0,0.0,0.0,0.0,0.0,0.0,0.0,0.0,0.0,0.0,0.0,0.0,0.0,0.0,0.0,0.0,0.0,0.0,0.0,0.0,0.0,0.0,0.0,0.0,0.0,0.0,0.0,0.0,0.0,0.0,0.0,0.0,0.0,0.0,0.0,0.0,0.0,0.0,0.0,0.0,0.0,0.0,0.0,0.0,0.0,0.0,1.4573,0.0,0.0,0.0,0.0,0.0,0.0,0.0,0.0,0.0,0.0,0.0,0.0,0.0,0.0,0.0,0.0,0.0,0.0,0.0,0.0,0.0,0.0,0.0,0.0,0.0,0.0,0.0,0.0,0.0,0.0,0.0,0.0,0.0,0.0,0.0,0.0,0.0,0.0,0.0,0.0,0.0,0.0,0.0,0.0,0.0,0.0,0.0,0.0,0.0,0.0,0.0,0.0,0.0,0.0,0.0,0.0,0.0,0.0,0.0,2.0098,2.1182,2.2461,2.2939,2.251,2.165,2.0755,0.0,0.0,0.0,0.0,0.0,0.0,0.0,0.0,0.0,0.0,0.0,0.0,0.0,0.0,0.0,0.0,0.0,0.0,0.0,0.0,0.0,0.0,0.0,0.0,0.0,0.0,0.0,0.0,0.0,0.0,0.0,0.0,0.0,0.0,0.0,0.0,0.0,0.0,0.0,0.0,0.0,0.0,0.0,0.0,0.0,0.0,0.0,0.0,0.0,0.0,0.0,0.0,0.0,0.0,0.0,0.0,0.0,0.0,0.0,0.0,0.0,0.0,0.0,0.0,0.0,0.0,0.0,0.0,0.0,0.0,0.0,0.0,0.0,0.0,0.0,0.0,0.0,0.0,0.0,0.0,0.0,0.0,0.0,0.0,0.0,0.0,0.0,0.0,0.0,0.0,0.0,0.0,0.0,0.0,0.0,0.0,0.0,0.0,0.0,0.0,0.0,0.0,0.0,0.0,0.0,0.0,0.0,1.8936,2.0488,2.1836,2.2705,2.2939,2.2529,2.21,2.1154,1.9602,0.0,0.0,0.0,0.0,0.0,0.0,0.0,0.0,0.0,0.0,0.0,0.0,0.0,0.0,0.0,0.0,0.0,0.0,0.0,0.0,0.0,0.0,0.0,0.0,0.0,0.0,0.0,0.0,0.0,0.0,0.0,0.0,0.0,0.0,0.0,0.0,0.0,0.0,1.3546,1.3488,0.0,0.0,0.0,0.0,0.0,0.0,0.0,0.0,1.4735,0.0,0.0,0.0,0.0,0.0,0.0,0.0,0.0,0.0,0.0,0.0,0.0,0.0,0.0,0.0,0.0,0.0,0.0,0.0,0.0,0.0,0.0,0.0,0.0,0.0,0.0,0.0,0.0,0.0,0.0,0.0,0.0,0.0,0.0,0.0,0.0,0.0,0.0,0.0,0.0,0.0,0.0,0.0,0.0,0.0,0.0,0.0,0.0,0.0,0.0,0.0,0.0,0.0,0.0,0.0,0.0,1.9346,1.9394,2.0195,2.1846,2.2705,2.2939,2.2519,2.2109,2.0938,1.8911,0.0,0.0,0.0,0.0,0.0,0.0,0.0,0.0,0.0,0.0,0.0,0.0,0.0,0.0,0.0,0.0,0.0,0.0,0.0,0.0,0.0,0.0,0.0,0.0,0.0,0.0,0.0,0.0,0.0,0.0,0.0,0.0,0.0,0.0,0.0,0.0,0.0,0.0,0.0,1.3301,1.3064,0.0,0.0,0.0,0.0,0.0,0.0,0.0,0.0,1.4105,0.0,0.0,0.0,0.0,0.0,0.0,0.0,0.0,0.0,0.0,0.0,0.0,0.0,0.0,0.0,0.0,0.0,0.0,0.0,0.0,0.0,0.0,0.0,0.0,0.0,0.0,0.0,0.0,0.0,0.0,0.0,0.0,0.0,0.0,0.0,0.0,0.0,0.0,0.0,0.0,0.0,0.0,0.0,0.0,0.0,0.0,0.0,0.0,0.0,0.0,0.0,0.0,0.0,0.0,0.0,1.8899,1.9375,2.0352,2.1826,2.2275,2.2285,2.1846,2.0996,2.0048,0.0,0.0,0.0,0.0,0.0,0.0,0.0,0.0,0.0,0.0,0.0,0.0,0.0,0.0,0.0,0.0,0.0,0.0,0.0,0.0,0.0,0.0,0.0,0.0,0.0,0.0,0.0,0.0,0.0,0.0,0.0,0.0,0.0,0.0,0.0,0.0,0.0,0.0,0.0,0.0,1.3427,1.3606,1.3606,0.0,0.0,0.0,0.0,0.0,0.0,1.2003,1.3157,0.0,0.0,0.0,0.0,0.0,0.0,0.0,0.0,0.0,0.0,0.0,0.0,0.0,0.0,0.0,0.0,0.0,0.0,0.0,0.0,0.0,0.0,0.0,0.0,0.0,0.0,0.0,0.0,0.0,0.0,0.0,0.0,0.0,0.0,0.0,0.0,0.0,0.0,0.0,0.0,0.0,0.0,0.0,0.0,0.0,0.0,0.0,0.0,0.0,0.0,0.0,0.0,0.0,0.0,0.0,1.8008,1.918,2.043,2.1689,2.1846,2.168,2.123,2.0137,1.934,0.0,0.0,0.0,0.0,0.0,0.0,0.0,0.0,0.0,0.0,0.0,0.0,0.0,0.0,0.0,0.0,0.0,0.0,0.0,0.0,0.0,0.0,0.0,0.0,0.0,0.0,0.0,0.0,0.0,0.0,0.0,0.0,0.0,0.0,0.0,0.0,0.0,0.0,0.0,0.0,0.0,1.4511,1.4357,1.41,0.0,0.0,0.0,0.0,1.0786,1.1447,0.0,0.0,0.0,0.0,0.0,0.0,0.0,0.0,0.0,0.0,0.0,0.0,0.0,0.0,0.0,0.0,0.0,0.0,0.0,0.0,0.0,0.0,0.0,0.0,0.0,0.0,0.0,0.0,0.0,0.0,0.0,0.0,0.0,0.0,0.0,0.0,0.0,0.0,0.0,0.0,0.0,0.0,0.0,0.0,0.0,0.0,0.0,0.0,0.0,0.0,0.0,0.0,0.0,0.0,0.0,0.0,1.7988,1.8887,1.999,2.125,2.1689,2.168,2.125,2.0703,1.9732,0.0,0.0,0.0,0.0,0.0,0.0,0.0,0.0,0.0,0.0,0.0,0.0,0.0,0.0,0.0,0.0,0.0,0.0,0.0,0.0,0.0,0.0,0.0,0.0,0.0,0.0,0.0,0.0,0.0,0.0,0.0,0.0,0.0,0.0,0.0,0.0,0.0,0.0,0.0,0.0,0.0,1.5642,1.4898,1.507,1.4311,0.0,0.0,1.3113,1.093,1.2119,0.0,0.0,0.0,0.0,0.0,0.0,0.0,0.0,0.0,0.0,0.0,0.0,0.0,0.0,0.0,0.0,0.0,0.0,0.0,0.0,0.0,0.0,0.0,0.0,0.0,0.0,0.0,0.0,0.0,0.0,0.0,0.0,0.0,0.0,0.0,0.0,0.0,0.0,0.0,0.0,0.0,0.0,0.0,0.0,0.0,0.0,0.0,0.0,0.0,0.0,0.0,0.0,0.0,0.0,0.0,1.8114,1.8056,1.8857,1.9795,2.0801,2.1035,2.0928,2.0488,1.9375,1.8607,0.0,0.0,0.0,0.0,0.0,0.0,0.0,0.0,0.0,0.0,0.0,0.0,0.0,0.0,0.0,0.0,0.0,0.0,0.0,0.0,0.0,0.0,0.0,0.0,0.0,0.0,0.0,0.0,0.0,0.0,0.0,0.0,0.0,0.0,0.0,0.0,0.0,0.0,0.0,0.0,0.0,0.0,1.5974,1.5864,0.0,0.0,0.0,1.3264,1.2214,0.0,0.0,0.0,0.0,0.0,0.0,0.0,0.0,0.0,0.0,0.0,0.0,0.0,0.0,0.0,0.0,0.0,0.0,0.0,0.0,0.0,0.0,0.0,0.0,0.0,0.0,0.0,0.0,0.0,0.0,0.0,0.0,0.0,0.0,0.0,0.0,0.0,0.0,0.0,0.0,0.0,0.0,0.0,0.0,0.0,0.0,0.0,0.0,0.0,0.0,0.0,0.0,0.0,0.0,0.0,0.0,0.0,1.8008,1.8857,1.9648,2.0371,2.041,2.0195,1.9746,1.832,0.0,0.0,0.0,0.0,0.0,0.0,0.0,0.0,0.0,0.0,0.0,0.0,0.0,0.0,0.0,0.0,0.0,0.0,0.0,0.0,0.0,0.0,0.0,0.0,0.0,0.0,0.0,1.3037,0.0,0.0,0.0,0.0,0.0,0.0,0.0,0.0,0.0,0.0,0.0,0.0,0.0,0.0,1.7168,1.707,1.6845,1.6816,0.0,0.0,1.3822,1.3271,1.2599,1.1997,0.0,0.0,0.0,0.0,0.0,0.0,0.0,0.0,0.0,0.0,0.0,0.0,0.0,0.0,0.0,0.0,0.0,0.0,0.0,0.0,0.0,0.0,0.0,0.0,0.0,0.0,0.0,0.0,0.0,0.0,0.0,0.0,0.0,0.0,0.0,0.0,0.0,0.0,0.0,0.0,0.0,0.0,0.0,0.0,0.0,0.0,0.0,0.0,0.0,0.0,0.0,0.0,0.0,0.0,0.0,1.8066,1.8848,1.9502,1.9941,1.9961,1.9756,1.9326,1.8447,1.7764,0.0,0.0,0.0,0.0,0.0,0.0,0.0,0.0,0.0,0.0,0.0,0.0,0.0,0.0,0.0,0.0,0.0,0.0,0.0,0.0,0.0,0.0,0.0,0.0,0.0,0.0,0.0,0.0,0.0,0.0,0.0,0.0,0.0,0.0,0.0,0.0,0.0,0.0,0.0,0.0,0.0,1.829,1.7978,1.8212,1.8322,0.0,0.0,1.5205,1.3469,1.3815,1.3567,1.1383,0.0,0.0,0.0,0.0,0.0,0.0,0.0,0.0,0.0,0.0,0.0,0.0,0.0,0.0,0.0,0.0,0.0,0.0,0.0,0.0,0.0,0.0,0.0,0.0,0.0,0.0,0.0,0.0,0.0,0.0,0.0,0.0,0.0,0.0,0.0,0.0,0.0,0.0,0.0,0.0,0.0,0.0,0.0,0.0,0.0,0.0,0.0,0.0,0.0,0.0,0.0,0.0,0.0,1.8092,1.7998,1.8594,1.9228,1.9873,1.9912,1.959,1.8896,1.8066,1.7295,0.0,0.0,0.0,0.0,0.0,0.0,0.0,0.0,0.0,0.0,0.0,0.0,0.0,0.0,0.0,0.0,0.0,0.0,0.0,0.0,0.0,0.0,0.0,0.0,0.0,0.0,0.0,0.0,1.3603,1.376,1.4023,0.0,0.0,0.0,0.0,0.0,0.0,0.0,0.0,0.0,0.0,1.6219,1.6701,1.7515,0.0,0.0,1.7698,1.7071,1.5906,1.4973,1.3985,1.2757,1.2235,0.0,0.0,0.0,0.0,0.0,0.0,0.0,0.0,0.0,0.0,0.0,0.0,0.0,0.0,0.0,0.0,0.0,0.0,0.0,0.0,0.0,0.0,0.0,0.0,0.0,0.0,0.0,0.0,0.0,0.0,0.0,0.0,0.0,0.0,0.0,0.0,0.0,0.0,0.0,0.0,0.0,0.0,0.0,0.0,0.0,0.0,0.0,0.0,0.0,0.0,0.0,0.0,1.847,1.8327,1.8615,1.9121,1.9727,1.9727,1.9316,1.8467,1.7754,1.7031,0.0,0.0,0.0,0.0,0.0,0.0,0.0,0.0,0.0,0.0,0.0,0.0,0.0,0.0,0.0,0.0,0.0,0.0,0.0,0.0,0.0,0.0,0.0,0.0,0.0,0.0,0.0,0.0,1.398,1.4248,1.4551,0.0,0.0,0.0,0.0,0.0,0.0,0.0,0.0,0.0,0.0,1.5141,1.5889,1.6698,1.7636,1.8597,1.7951,1.732,1.7286,1.5894,1.4532,1.3678,0.0,0.0,0.0,0.0,0.0,0.0,0.0,0.0,0.0,0.0,0.0,0.0,0.0,0.0,0.0,0.0,0.0,0.0,0.0,0.0,0.0,0.0,0.0,0.0,0.0,0.0,0.0,0.0,0.0,0.0,1.9836,0.0,0.0,0.0,0.0,0.0,0.0,0.0,0.0,0.0,0.0,0.0,0.0,0.0,0.0,0.0,0.0,0.0,0.0,0.0,0.0,0.0,0.0,1.8935,1.909,1.9133,1.9258,1.9307,1.9307,1.8887,1.8057,1.7617,1.7168,1.6719,0.0,0.0,0.0,0.0,0.0,0.0,0.0,0.0,0.0,0.0,0.0,0.0,0.0,0.0,0.0,0.0,0.0,0.0,0.0,0.0,0.0,0.0,0.0,0.0,0.0,0.0,1.4756,1.4385,1.4097,0.0,0.0,0.0,0.0,0.0,0.0,0.0,0.0,0.0,0.0,1.4783,1.5748,1.579,1.6005,1.7175,1.9963,1.7473,1.5652,1.6968,1.6324,1.5233,0.0,0.0,0.0,0.0,0.0,0.0,0.0,0.0,0.0,0.0,0.0,0.0,0.0,0.0,0.0,0.0,0.0,0.0,0.0,0.0,0.0,0.0,0.0,0.0,0.0,0.0,0.0,1.946,1.9887,0.0,0.0,0.0,0.0,0.0,0.0,0.0,0.0,0.0,0.0,0.0,1.9898,1.8984,0.0,0.0,0.0,0.0,0.0,0.0,0.0,0.0,0.0,0.0,0.0,0.0,1.8398,1.9017,1.8405,1.8437,1.9248,1.9004,1.8584,1.8027,1.7607,1.7041,1.6309,0.0,0.0,0.0,0.0,0.0,0.0,0.0,0.0,0.0,0.0,0.0,0.0,0.0,0.0,0.0,0.0,0.0,0.0,0.0,0.0,0.0,0.0,0.0,0.0,0.0,1.4434,0.0,0.0,0.0,0.0,0.0,0.0,0.0,0.0,0.0,0.0,0.0,1.3278,1.3447,1.3482,1.3621,1.4055,1.4804,1.5512,0.0,0.0,0.0,0.0,0.0,0.0,0.0,0.0,0.0,0.0,0.0,0.0,0.0,0.0,1.4287,1.4418,1.3465,1.2412,1.1329,0.0,0.0,0.0,0.0,0.0,0.0,0.0,0.0,0.0,0.0,0.0,0.0,0.0,0.0,1.9221,0.0,1.9277,0.0,0.0,0.0,0.0,0.0,0.0,0.0,0.0,1.9269,1.9312,1.9719,1.8813,1.8426,0.0,1.9111,1.91,0.0,0.0,0.0,0.0,0.0,0.0,0.0,0.0,1.8018,1.857,1.8265,1.8379,1.9014,1.8936,1.8594,1.8027,1.7451,1.6894,1.6318,1.5605,1.5361,0.0,0.0,0.0,0.0,0.0,0.0,0.0,0.0,0.0,0.0,0.0,0.0,0.0,0.0,0.0,0.0,0.0,0.0,0.0,0.0,0.0,0.0,0.0,1.4213,0.0,0.0,0.0,0.0,0.0,0.0,0.0,0.0,0.0,1.3886,1.3024,1.252,1.2913,1.2597,1.2452,1.2839,0.0,0.0,0.0,0.0,0.0,0.0,0.0,1.5233,1.5152,1.4868,1.4468,1.3968,1.4509,1.4622,1.3723,0.0,0.0,1.5,1.4467,1.3446,1.1772,1.1353,1.0778,0.9227,0.8987,0.8801,0.0,0.0,0.0,0.0,0.0,0.0,0.0,0.0,1.8622,1.9331,0.0,1.9467,0.0,0.0,0.0,0.0,0.0,1.9879,0.0,0.0,1.9456,1.9592,1.8723,1.833,1.833,1.8691,1.9082,1.8838,1.8114,1.8355,0.0,0.0,0.0,0.0,0.0,0.0,1.7791,1.7895,1.8734,1.9023,1.8601,1.9023,1.8838,1.8008,1.7187,1.6748,1.6626,1.626,1.6125,1.6145,1.6494,0.0,0.0,0.0,0.0,0.0,0.0,0.0,0.0,0.0,0.0,0.0,0.0,0.0,0.0,0.0,0.0,0.0,0.0,0.0,0.0,1.4154,0.0,0.0,0.0,0.0,0.0,0.0,0.0,0.0,0.0,0.0,1.2714,1.2668,1.2514,1.2013,0.0,0.0,0.0,0.0,1.2839,1.2877,1.3272,1.3834,1.4568,1.5412,1.5996,1.5826,0.0,0.0,1.4778,1.4803,1.4821,1.4239,1.4652,1.5053,1.5042,1.5021,1.4519,1.3129,1.2306,1.1348,0.9253,0.8644,0.8341,1.9829,0.0,0.0,0.0,0.0,2.0068,2.0382,2.1044,1.9889,1.9697,2.0183,1.9111,0.0,0.0,0.0,0.0,0.0,0.0,2.0036,2.0129,2.0667,2.0742,2.0493,2.0361,2.0049,1.9551,1.9375,1.8994,1.8447,1.8231,1.8008,1.7765,0.0,0.0,0.0,0.0,1.7695,1.8228,1.8065,1.8154,1.8553,1.8467,1.8115,1.7578,1.7324,1.6894,1.6289,1.6194,1.6211,1.6533,1.666,0.0,0.0,0.0,0.0,0.0,0.0,0.0,0.0,0.0,0.0,0.0,0.0,0.0,0.0,0.0,0.0,0.0,0.0,0.0,1.2557,1.3,1.3161,0.0,0.0,0.0,0.0,0.0,0.0,0.0,0.0,0.0,1.2336,1.2219,1.2209,0.0,0.0,1.2378,1.2592,1.2768,1.2849,1.2859,1.3313,0.0,1.4241,1.4682,1.4936,1.4936,1.5363,1.5657,1.5431,1.5524,1.5551,1.5352,1.5425,1.5544,1.5536,1.5568,1.4663,1.2478,1.1747,1.0847,0.864,0.8085,0.7976,2.1544,2.0214,1.9849,2.0021,2.0547,2.0513,2.07,2.1024,2.0236,2.0205,2.0635,1.9775,1.9727,2.0297,2.0002,0.0,0.0,0.0,2.038,2.0841,2.1101,2.1263,2.1501,2.1471,2.1211,2.0693,2.0439,2.0,1.9404,1.915,1.8695,1.8116,0.0,0.0,1.7233,1.7265,1.751,1.8049,1.7962,1.8047,1.8379,1.7978,1.7646,1.7393,1.7217,1.6875,1.6348,1.6152,1.6269,1.6709,1.6665,1.7051,0.0,0.0,0.0,0.0,0.0,0.0,0.0,0.0,0.0,0.0,0.0,1.65,1.5308,0.0,0.0,0.0,1.3327,1.2259,1.1524,1.221,0.0,0.0,0.0,0.0,0.0,0.0,0.0,1.2621,1.2093,1.1904,1.2251,1.2151,1.2171,1.2525,1.2518,1.2545,1.2802,0.0,1.3013,1.3326,1.3587,1.3948,1.4487,1.4737,1.4903,1.5023,1.5317,1.5605,1.5785,1.5825,1.5825,1.5825,1.5825,1.5825,1.5825,1.5851,1.4963,1.2208,1.1552,1.0775,0.8384,0.7899,0.7902,2.337,2.1973,2.1201,2.0566,2.0117,2.0537,2.0488,2.0127,2.0137,2.0781,2.1807,2.0986,2.1055,2.1719,2.0928,0.0,2.0039,2.0478,2.0752,2.0684,2.1162,2.1562,2.1875,2.1914,2.1914,2.1885,2.1894,2.1445,2.0635,2.0605,1.9971,1.8679,1.7969,1.7334,1.6821,1.7266,1.748,1.75,1.8242,1.8428,1.8018,1.7598,1.7363,1.7334,1.6943,1.6636,1.6611,1.626,1.626,1.665,1.6655,1.6924,1.7363,0.0,0.0,0.0,0.0,0.0,0.0,0.0,0.0,0.0,0.0,0.0,0.0,0.0,0.0,0.0,1.2962,0.0,1.1068,1.179,0.0,0.0,0.0,1.2742,1.2689,1.2291,1.1977,1.1977,0.0,0.0,1.2371,1.2371,1.2378,1.2371,1.2585,1.2835,1.2849,1.3053,1.344,1.3908,1.4102,1.4442,1.5097,1.5331,1.5478,1.5705,1.5825,1.5812,1.5825,1.5825,1.5825,1.5825,1.5825,1.5825,1.5825,1.5805,1.5051,1.2603,1.193,1.1161,0.881,0.8124,0.8021,2.3979,2.335,2.3457,2.2695,2.1455,2.1865,2.1992,2.1904,2.1885,2.1894,2.1855,2.1309,2.1006,2.0869,2.0664,2.0693,2.0937,2.1367,2.1572,2.1621,2.2344,2.2402,2.1914,2.2217,2.2197,2.1904,2.1894,2.1611,2.1094,2.1074,2.0576,1.9648,1.9414,1.8769,1.7764,1.8125,1.834,1.833,1.8535,1.8437,1.8008,1.7598,1.7227,1.6894,1.6787,1.6416,1.5762,1.5947,1.6164,1.6221,1.6543,1.6934,1.7363,1.7783,0.0,0.0,0.0,0.0,0.0,0.0,0.0,0.0,0.0,1.7319,1.4889,0.0,1.4322,0.0,1.2785,1.2173,1.1384,1.2052,0.0,0.0,1.2806,1.3194,1.2776,1.2851,1.2893,1.2893,1.2946,1.2993,1.2993,1.2993,1.2993,1.2993,1.2846,1.2903,1.306,1.3353,1.3581,1.3794,1.4329,1.4823,1.507,1.5451,1.5745,1.5818,1.5825,1.5825,1.5825,1.5825,1.5825,1.5825,1.5825,1.5825,1.5825,1.5825,1.5242,1.3782,1.2624,1.1463,0.9801,0.8722,0.8038,2.4277,2.4092,2.4316,2.3867,2.3027,2.3262,2.3252,2.3076,2.3086,2.2842,2.2432,2.2104,2.1943,2.1719,2.1709,2.1846,2.21,2.2334,2.2451,2.2471,2.293,2.2891,2.2461,2.2676,2.2666,2.2441,2.2451,2.2227,2.1826,2.1807,2.1465,2.0801,2.0596,2.0156,1.9453,1.9102,1.9014,1.9199,1.8643,1.8242,1.8008,1.7412,1.707,1.7012,1.6631,1.6299,1.6016,1.6035,1.6302,1.6694,1.6699,1.7012,1.7627,1.7881,1.8096,0.0,0.0,0.0,0.0,0.0,0.0,0.0,0.0,0.0,0.0,0.0,1.3523,1.2194,1.2105,1.1957,1.168,1.2033,1.2354,1.2284,1.2843,1.3133,1.2997,1.322,1.34,1.34,1.34,1.3407,1.3407,1.3293,1.3206,1.3213,1.3173,1.3206,1.3387,1.3654,1.3921,1.4208,1.4649,1.507,1.5297,1.5611,1.5825,1.5825,1.5825,1.5825,1.5825,1.5825,1.5825,1.5825,1.5825,1.5825,1.5825,1.5825,1.5534,1.4854,1.3686,1.2431,1.1072,1.0293,0.9604,2.4551,2.4512,2.456,2.459,2.459,2.459,2.4316,2.3867,2.375,2.3496,2.3144,2.3144,2.3144,2.3144,2.3144,2.3144,2.3144,2.3144,2.3144,2.3144,2.3144,2.3144,2.3144,2.3144,2.3144,2.3144,2.3144,2.293,2.2519,2.251,2.2295,2.1885,2.1504,2.1309,2.1269,2.0127,1.9639,1.9814,1.874,1.8154,1.8086,1.7246,1.6992,1.7324,1.6475,1.6162,1.6471,1.624,1.6396,1.707,1.6924,1.7129,1.7803,1.7949,1.8193,0.0,1.8562,0.0,0.0,0.0,0.0,0.0,0.0,0.0,0.0,1.3986,1.2783,1.1686,1.1563,1.1643,1.1897,1.1924,1.2131,1.2701,1.2842,1.2997,1.3186,1.35,1.3619,1.3701,1.3667,1.3654,1.3681,1.3447,1.3273,1.336,1.354,1.3674,1.3714,1.3908,1.4235,1.4796,1.4923,1.5144,1.5638,1.5805,1.5825,1.5825,1.5825,1.5825,1.5825,1.5825,1.5825,1.5825,1.5825,1.5825,1.5825,1.5825,1.5825,1.573,1.4854,1.3686,1.2528,1.1848,1.1556,2.5283,2.499,2.5342,2.5488,2.5488,2.5488,2.5029,2.4248,2.3555,2.3223,2.3144,2.3144,2.3144,2.3144,2.3144,2.3144,2.3144,2.3144,2.3144,2.3144,2.3144,2.3144,2.3144,2.3144,2.3144,2.3144,2.3144,2.292,2.251,2.251,2.2305,2.1894,2.1807,2.1758,2.1728,0.0,0.0,0.0,1.917,1.8877,1.8506,1.7695,1.7295,1.7353,1.6182,0.0,1.5664,1.5918,1.5967,1.583,1.6728,0.0,0.0,0.0,0.0,0.0,0.0,0.0,0.0,0.0,0.0,0.0,1.633,1.5796,1.4828,1.3575,1.2777,1.2573,1.2278,1.2158,1.2218,1.2218,1.2258,1.2385,1.2826,1.3146,1.3227,1.3681,1.4001,1.4001,1.3794,1.3741,1.3935,1.3741,1.3654,1.3854,1.3961,1.4001,1.3995,1.4041,1.4135,1.4269,1.4689,1.517,1.5738,1.5825,1.5825,1.5825,1.5825,1.5825,1.5825,1.5825,1.5825,1.5825,1.5825,1.5825,1.5825,1.5825,1.5825,1.5825,1.554,1.5045,1.3782,1.2624,1.1853,2.5605,0.0,2.5644,2.5732,0.0,2.5508,2.5283,2.5019,2.4375,2.3857,2.3437,2.3232,2.3144,2.3144,2.3144,2.3144,2.3144,2.3144,2.3144,2.3144,2.3144,2.3144,2.3144,2.3144,2.3144,2.3144,2.3144,2.3037,2.2832,2.2832,2.2715,2.25,2.2295,2.2197,2.2168,2.1338,2.0478,1.96,1.9394,1.9082,1.8643,1.8018,1.7686,1.7666,1.6631,0.0,0.0,0.0,0.0,0.0,0.0,0.0,0.0,0.0,0.0,1.9219,1.9268,1.9453,1.9873,1.9922,1.9288,1.7717,1.6616,1.5377,1.3995,1.3365,1.2979,1.2966,1.2699,1.2525,1.2518,1.2392,1.2365,1.2518,1.2933,1.326,1.3434,1.3814,1.4082,1.4075,1.3955,1.3928,1.4068,1.3968,1.3928,1.4062,1.4088,1.4088,1.4088,1.4088,1.4162,1.4469,1.487,1.5324,1.5718,1.5825,1.5825,1.5825,1.5825,1.5825,1.5825,1.5825,1.5825,1.5825,1.5825,1.5825,1.5825,1.5825,1.5825,1.5825,1.5825,1.5635,1.4949,1.4274,1.3596,2.585,2.584,2.5771,2.5732,2.5703,2.5342,2.54,2.5713,0.0,0.0,0.0,2.3408,2.3213,2.3144,2.3144,2.3144,2.3144,2.3144,2.3144,2.3144,2.3144,2.3144,2.3144,2.3144,2.3144,2.3144,2.3144,2.3144,2.3144,2.3144,2.3144,2.3115,2.2783,2.2588,2.2441,2.1377,2.0586,2.0146,1.9658,1.9228,1.8786,1.8379,1.8125,1.8115,1.7217,1.6934,1.7363,1.7109,1.7129,1.748,1.7637,1.7998,1.8594,1.8711,1.9102,1.9834,1.9912,2.0098,2.0527,2.0576,2.0157,1.9036,1.7001,1.5153,1.37,1.3393,1.3287,1.3287,1.3006,1.2909,1.2903,1.2612,1.2559,1.2882,1.3106,1.3387,1.3621,1.3908,1.4088,1.4088,1.4028,1.4028,1.4075,1.4021,1.4035,1.4075,1.4088,1.4088,1.4088,1.4088,1.4289,1.481,1.5097,1.5404,1.5732,1.5825,1.5825,1.5825,1.5825,1.5825,1.5825,1.5825,1.5825,1.5825,1.5825,1.5825,1.5825,1.5825,1.5825,1.5825,1.5825,1.5825,1.5825,1.5825,1.5337,2.6289,2.6269,2.5898,2.5732,2.5732,2.5674,2.5684,2.5693,2.5264,2.459,2.3789,2.3721,2.3496,2.3144,2.3144,2.3144,2.3144,2.3144,2.3144,2.3144,2.3144,2.3144,2.3144,2.3144,2.3144,2.3144,2.3144,2.3144,2.3144,2.3144,2.3144,2.3135,2.3076,2.2871,2.25,2.1973,2.1484,2.1045,2.0244,1.9795,1.9727,1.8965,1.8484,1.8496,1.7317,1.6934,1.7363,1.7676,1.7861,1.793,1.8623,1.8906,1.8672,1.8994,1.9414,1.9863,1.9912,2.0107,2.0537,2.0576,2.0157,1.9036,1.6927,1.5576,1.5323,1.4199,1.3581,1.3492,1.3313,1.3146,1.314,1.3093,1.306,1.314,1.3407,1.3601,1.3654,1.3908,1.4088,1.4082,1.3861,1.3828,1.4028,1.3888,1.3848,1.4028,1.4088,1.4088,1.4088,1.4088,1.4335,1.481,1.499,1.5251,1.5665,1.5825,1.5812,1.5825,1.5825,1.5825,1.5825,1.5825,1.5825,1.5825,1.5825,1.5825,1.5825,1.5825,1.5825,1.5825,1.5825,1.5825,1.5825,1.5825,1.573,2.625,2.6025,2.582,2.5732,2.5732,2.5732,2.5732,2.5723,2.5527,2.4941,2.4141,2.3896,2.3545,2.3154,2.3144,2.3144,2.3144,2.3144,2.3144,2.3144,2.3144,2.3144,2.3144,2.3144,2.3144,2.3144,2.3144,2.3144,2.3144,2.3144,2.3144,2.3144,2.3144,2.293,2.2519,2.2324,2.2012,2.1592,2.0957,2.0391,1.9922,1.9531,1.9219,1.8994,1.8398,1.8203,1.8408,1.8603,1.8701,1.8711,1.9072,1.9297,1.9336,1.9521,1.9824,2.0234,2.0273,2.0352,2.0547,2.0576,2.0401,1.9844,1.7819,1.6601,1.6601,1.4932,1.3888,1.3874,1.3614,1.344,1.344,1.3307,1.3206,1.3206,1.3467,1.3641,1.3674,1.3908,1.4082,1.4075,1.3975,1.3941,1.4068,1.3968,1.3921,1.4068,1.4088,1.4088,1.4095,1.4229,1.4402,1.4663,1.4723,1.4977,1.5484,1.5598,1.5658,1.5798,1.5825,1.5825,1.5825,1.5825,1.5825,1.5825,1.5825,1.5825,1.5825,1.5825,1.5825,1.5825,1.5825,1.5825,1.5825,1.5825,1.5825,2.6426,2.6025,2.5928,2.583,2.5732,2.5732,2.5732,2.5732,2.5732,2.5293,2.457,2.4121,2.3691,2.331,2.3281,2.334,2.3418,2.3428,2.3428,2.3418,2.333,2.3281,2.3271,2.3193,2.3144,2.3144,2.3144,2.3144,2.3144,2.3144,2.3144,2.3144,2.3144,2.2978,2.2656,2.2656,2.2451,2.2031,2.1602,2.1006,2.0244,2.0019,1.9756,1.9463,1.9326,1.9326,1.9414,1.9424,1.9473,1.957,1.957,1.9717,2.0029,2.0059,2.0215,2.0527,2.0576,2.0576,2.0576,2.0576,2.0576,2.0566,1.8789,1.7585,1.718,1.5553,1.4334,1.4146,1.3874,1.3741,1.3728,1.3561,1.3407,1.342,1.3607,1.3754,1.3768,1.3955,1.4088,1.4088,1.4088,1.4082,1.4088,1.4088,1.4082,1.4075,1.4088,1.4088,1.4115,1.4335,1.4502,1.4455,1.4528,1.495,1.5398,1.5511,1.5611,1.5805,1.5825,1.5825,1.5825,1.5825,1.5825,1.5825,1.5825,1.5825,1.5825,1.5825,1.5825,1.5825,1.5825,1.5825,1.5825,1.5825,1.5825,2.7275,2.6865,2.6465,2.6103,2.5752,2.5732,2.5732,2.5732,2.5732,2.5469,2.4961,2.4551,2.4121,2.3769,2.373,2.3916,2.4248,2.4297,2.4277,2.4219,2.3906,2.3721,2.3672,2.332,2.3144,2.3144,2.3144,2.3144,2.3144,2.3144,2.3144,2.3144,2.3144,2.3115,2.3076,2.3076,2.2871,2.2461,2.2041,2.1592,2.1103,2.0332,1.9902,1.9853,1.9492,1.9473,1.9834,1.9853,2.0039,2.04,2.042,2.0449,2.0498,2.0508,2.0527,2.0664,2.0586,2.0576,2.0586,2.0576,2.0605,2.0489,1.9548,1.8407,1.744,1.6273,1.5137,1.4398,1.4139,1.4021,1.4041,1.3995,1.3948,1.3928,1.3981,1.4041,1.4035,1.4068,1.4088,1.4088,1.4088,1.4088,1.4088,1.4088,1.4088,1.4088,1.4088,1.4088,1.4108,1.4329,1.4422,1.4408,1.4731,1.5364,1.5665,1.5785,1.5758,1.5805,1.5825,1.5825,1.5825,1.5825,1.5825,1.5825,1.5825,1.5825,1.5825,1.5825,1.5825,1.5825,1.5825,1.5825,1.5825,1.5825,1.5825,2.7412,2.6973,2.6562,2.6143,2.5762,2.5732,2.5732,2.5732,2.5732,2.5488,2.5078,2.4873,2.456,2.417,2.416,2.4258,2.4414,2.4424,2.4424,2.4375,2.3984,2.3789,2.374,2.334,2.3144,2.3144,2.3144,2.3144,2.3144,2.3144,2.3144,2.3144,2.3144,2.3144,2.3144,2.3144,2.296,2.2871,2.2471,2.2168,2.1885,2.0879,2.0303,2.0283,2.0137,2.0117,2.0283,2.0293,2.0381,2.0557,2.0576,2.0693,2.0947,2.0957,2.1074,2.1318,2.1348,2.1348,2.1338,2.1348,2.1348,2.1348,2.0102,1.9138,1.8632,1.6884,1.5462,1.5054,1.4489,1.4088,1.4088,1.4088,1.4088,1.4088,1.4088,1.4088,1.4088,1.4088,1.4088,1.4088,1.4088,1.4088,1.4088,1.4088,1.4088,1.4088,1.4088,1.4088,1.4102,1.4335,1.4496,1.4495,1.5017,1.5384,1.5458,1.5478,1.5651,1.5778,1.5825,1.5825,1.5825,1.5825,1.5825,1.5825,1.5825,1.5825,1.5825,1.5825,1.5825,1.5825,1.5825,1.5825,1.5825,1.5825,1.5825,2.7588,2.7148,2.6611,2.6211,2.5908,2.5781,2.5732,2.5732,2.5732,2.5557,2.5273,2.5254,2.5078,2.4795,2.4648,2.4648,2.4766,2.4775,2.4775,2.4736,2.4336,2.415,2.4102,2.3701,2.3428,2.334,2.333,2.3262,2.3164,2.3144,2.3144,2.3144,2.3144,2.3144,2.3144,2.3144,2.3144,2.3096,2.2725,2.251,2.2363,2.1475,2.0928,2.0918,2.0801,2.0801,2.0918,2.081,2.081,2.0928,2.0937,2.1074,2.1387,2.1416,2.1553,2.1846,2.1894,2.1894,2.1894,2.1894,2.1894,2.1773,2.0797,2.0126,1.9486,1.8012,1.6719,1.598,1.5319,1.4801,1.4095,1.4088,1.4088,1.4088,1.4148,1.4182,1.4108,1.4142,1.4188,1.4108,1.4088,1.4088,1.4088,1.4088,1.4088,1.4088,1.4088,1.4088,1.4148,1.4389,1.4649,1.4568,1.5046,1.5444,1.5424,1.5518,1.5611,1.5725,1.5825,1.5825,1.5825,1.5825,1.5825,1.5825,1.5825,1.5825,1.5825,1.5825,1.5825,1.5825,1.5825,1.5825,1.5825,1.5825,1.5825,2.8018,2.7529,2.6748,2.6406,2.6338,2.5957,2.5762,2.582,2.5762,2.5723,2.5742,2.5703,2.5703,2.5654,2.5293,2.5283,2.5615,2.5605,2.5596,2.5557,2.5156,2.499,2.499,2.457,2.4141,2.3779,2.375,2.3574,2.3223,2.3164,2.3144,2.3154,2.3154,2.3144,2.3144,2.3144,2.3144,2.3096,2.2754,2.2529,2.248,2.207,2.1826,2.1787,2.1426,2.1387,2.1689,2.1416,2.1387,2.1797,2.1777,2.1816,2.1855,2.1865,2.1904,2.1934,2.1924,2.1924,2.1943,2.1963,2.1963,2.1924,2.1812,2.132,2.0429,1.9835,1.8846,1.6949,1.6722,1.6009,1.4569,1.428,1.4155,1.4135,1.4342,1.4342,1.4115,1.4289,1.4342,1.4155,1.4088,1.4088,1.4088,1.4088,1.4088,1.4088,1.4088,1.4102,1.4188,1.4576,1.4606,1.4578,1.5002,1.5799,1.5697,1.5617,1.5698,1.5758,1.5732,1.5792,1.5818,1.5825,1.5818,1.5825,1.5825,1.5825,1.5825,1.5825,1.5825,1.5825,1.5825,1.5825,1.5825,1.5825,1.5825,2.8047,2.7646,2.7344,2.7051,2.6777,2.6611,2.6562,2.6533,2.626,2.6318,2.6475,2.6279,2.6299,2.6553,2.6387,2.6094,2.5752,2.5732,2.5732,2.5684,2.5273,2.5059,2.5019,2.4619,2.4355,2.4209,2.4189,2.4111,2.3945,2.3691,2.3555,2.3496,2.3271,2.3144,2.3144,2.3144,2.3144,2.3038,2.2978,2.292,2.2891,2.2764,2.2685,2.2646,2.2012,2.1719,2.1885,2.1728,2.1728,2.1885,2.1894,2.2012,2.2275,2.2539,2.2685,2.2685,2.2685,2.2685,2.2685,2.2685,2.2685,2.2676,2.2432,2.2116,2.1608,2.08,1.9858,1.9093,1.8235,1.7306,1.6082,1.5154,1.4569,1.4416,1.4449,1.4429,1.4182,1.4182,1.4195,1.4108,1.4088,1.4088,1.4088,1.4088,1.4088,1.4088,1.4088,1.4155,1.4302,1.4429,1.4455,1.4639,1.4867,1.503,1.5261,1.5456,1.5545,1.5545,1.5538,1.5531,1.5551,1.5698,1.5732,1.5758,1.5778,1.5805,1.5805,1.5825,1.5825,1.5825,1.5825,1.5825,1.5825,1.5825,1.5825,2.8135,2.7871,2.7725,2.75,2.7226,2.707,2.7012,2.6963,2.6572,2.6621,2.6885,2.6572,2.6621,2.6963,2.7012,2.6728,2.6182,2.6152,2.6074,2.5928,2.5635,2.542,2.5254,2.498,2.4766,2.4619,2.4473,2.4424,2.4394,2.4131,2.3926,2.3769,2.3486,2.3271,2.3174,2.3144,2.3144,2.3144,2.3144,2.3135,2.3144,2.3144,2.3144,2.3066,2.2578,2.2295,2.2285,2.2158,2.2168,2.2266,2.2285,2.2422,2.2715,2.2978,2.3144,2.3144,2.3135,2.3144,2.3144,2.3144,2.3135,2.3135,2.2891,2.2715,2.26,2.1722,2.105,2.049,1.9973,1.8929,1.7354,1.6306,1.5528,1.4858,1.4743,1.4683,1.4422,1.4376,1.4289,1.4148,1.4188,1.4188,1.4108,1.4088,1.4088,1.4088,1.4088,1.4182,1.4295,1.4335,1.4236,1.4621,1.4674,1.4741,1.4807,1.4876,1.5197,1.5217,1.5251,1.5257,1.5311,1.5484,1.5631,1.5678,1.5725,1.5758,1.5792,1.5818,1.5825,1.5825,1.5825,1.5825,1.5825,1.5825,1.5825,2.8281,2.8203,2.7842,2.7695,2.7617,2.7285,2.706,2.7051,2.666,2.6768,2.7109,2.666,2.6777,2.7031,2.7168,2.7051,2.7031,2.7021,2.6787,2.6416,2.6318,2.6084,2.5742,2.5635,2.541,2.5068,2.4658,2.4482,2.4531,2.4453,2.4238,2.3887,2.3779,2.3516,2.3144,2.3144,2.3144,2.3144,2.3144,2.3144,2.3144,2.3144,2.3144,2.3144,2.3066,2.3037,2.3066,2.2715,2.2676,2.3008,2.3066,2.3115,2.3076,2.3135,2.3144,2.3144,2.3144,2.3144,2.3144,2.3144,2.3144,2.3135,2.3038,2.3066,2.296,2.2853,2.2456,2.1609,2.1264,2.0318,1.8325,1.768,1.6904,1.5368,1.515,1.5164,1.4977,1.4923,1.4736,1.4309,1.4342,1.4376,1.4202,1.4195,1.4222,1.4215,1.4202,1.4222,1.4302,1.4389,1.4389,1.4333,1.4526,1.4708,1.4491,1.4369,1.4625,1.4877,1.493,1.4963,1.5023,1.5157,1.5398,1.5484,1.5752,1.5799,1.5805,1.5825,1.5825,1.5825,1.5825,1.5825,1.5825,1.5825,1.5825,2.8301,2.8281,2.8154,2.8096,2.8076,2.7949,2.79,2.7851,2.7451,2.751,2.7764,2.7451,2.75,2.7822,2.79,2.7881,2.79,2.7871,2.751,2.6885,2.6533,2.6338,2.6143,2.5879,2.5664,2.5527,2.54,2.5312,2.5254,2.501,2.4648,2.4258,2.3926,2.3564,2.3164,2.3144,2.3144,2.3144,2.3144,2.3144,2.3144,2.3144,2.3144,2.3144,2.3144,2.3144,2.3135,2.3018,2.3008,2.3135,2.3144,2.3144,2.3144,2.3144,2.3144,2.3144,2.3144,2.3144,2.3144,2.3144,2.3144,2.3144,2.3144,2.3144,2.3144,2.3144,2.296,2.2492,2.2492,2.1587,1.9588,1.8948,1.7842,1.5572,1.5344,1.5297,1.503,1.4823,1.4703,1.4689,1.4596,1.4563,1.4656,1.4676,1.4643,1.4649,1.4649,1.4656,1.4669,1.4569,1.4635,1.472,1.4757,1.4754,1.4814,1.4652,1.4654,1.473,1.4716,1.4736,1.4783,1.4897,1.513,1.5384,1.5644,1.5785,1.5785,1.5825,1.5825,1.5825,1.5825,1.5825,1.5825,1.5825,1.5825,2.8301,2.8301,2.8301,2.8301,2.8301,2.8301,2.8291,2.8232,2.7842,2.79,2.8144,2.7842,2.79,2.8232,2.8301,2.8301,2.8301,2.8301,2.8008,2.748,2.706,2.6719,2.6387,2.5937,2.5732,2.5732,2.5732,2.5732,2.5723,2.5449,2.501,2.4453,2.415,2.3721,2.3203,2.3144,2.3144,2.3144,2.3144,2.3144,2.3144,2.3144,2.3144,2.3144,2.3144,2.3144,2.3144,2.3144,2.3144,2.3144,2.3144,2.3144,2.3144,2.3144,2.3144,2.3144,2.3144,2.3144,2.3144,2.3144,2.3144,2.3144,2.3144,2.3144,2.3144,2.3144,2.3144,2.3144,2.3047,2.2129,2.0034,1.9497,1.8294,1.5858,1.5565,1.5431,1.5177,1.5064,1.495,1.4977,1.4897,1.4903,1.4937,1.506,1.506,1.506,1.506,1.506,1.4937,1.4803,1.4804,1.4805,1.4757,1.4867,1.5228,1.508,1.4736,1.4623,1.4536,1.4549,1.4569,1.473,1.4937,1.5239,1.5478,1.5725,1.5825,1.5825,1.5825,1.5825,1.5825,1.5825,1.5825,1.5825,1.5825,2.832,2.8301,2.8301,2.8301,2.8301,2.8301,2.8301,2.8232,2.791,2.7959,2.8154,2.793,2.7949,2.8242,2.8301,2.8301,2.8301,2.8291,2.8271,2.8105,2.7773,2.7246,2.6426,2.5937,2.5742,2.5732,2.5732,2.5732,2.5732,2.5684,2.5303,2.457,2.4453,2.4023,2.3398,2.3193,2.3193,2.3144,2.3144,2.3144,2.3144,2.3144,2.3144,2.3144,2.3144,2.3144,2.3144,2.3144,2.3144,2.3144,2.3144,2.3144,2.3144,2.3144,2.3144,2.3144,2.3144,2.3144,2.3144,2.3144,2.3144,2.3144,2.295,2.295,2.2862,2.2589,2.2403,2.2501,2.2589,2.1765,1.977,1.9222,1.8103,1.6278,1.5778,1.5658,1.5491,1.5605,1.5451,1.519,1.5231,1.5324,1.5104,1.5097,1.509,1.509,1.5104,1.5117,1.5044,1.501,1.4784,1.4701,1.483,1.5157,1.5449,1.5308,1.499,1.4903,1.4736,1.4629,1.4636,1.4783,1.4997,1.5272,1.5411,1.5651,1.5825,1.5825,1.5825,1.5825,1.5825,1.5825,1.5825,1.5825,1.5825,2.8574,2.8301,2.8301,2.8301,2.8301,2.8301,2.8301,2.8281,2.8184,2.8174,2.8252,2.8184,2.8174,2.8281,2.8301,2.8301,2.8301,2.8301,2.8301,2.8281,2.8203,2.7451,2.6494,2.5957,2.5752,2.5762,2.5752,2.5732,2.5732,2.5732,2.543,2.4922,2.4844,2.4463,2.375,2.3603,2.3437,2.3184,2.3144,2.3144,2.3144,2.3144,2.3144,2.3144,2.3144,2.3144,2.3144,2.3144,2.3144,2.3144,2.3144,2.3144,2.3144,2.3144,2.3144,2.3144,2.3144,2.3144,2.3144,2.3047,2.3047,2.3047,2.2217,2.1747,2.1756,2.0944,2.0584,2.0494,2.0404,1.9951,1.8596,1.8141,1.7311,1.6197,1.5825,1.5792,1.5705,1.5585,1.5504,1.5571,1.5478,1.5464,1.5531,1.5551,1.5551,1.5551,1.5531,1.5484,1.5337,1.5284,1.5081,1.5068,1.5114,1.5438,1.5597,1.5391,1.5284,1.5231,1.5084,1.4897,1.4957,1.509,1.5351,1.5571,1.5604,1.5812,1.5825,1.5825,1.5825,1.5825,1.5825,1.5825,1.5825,1.5825,1.5825,2.8779,2.8545,2.8369,2.8301,2.8301,2.8301,2.8301,2.8301,2.8301,2.8301,2.8301,2.8301,2.8301,2.8301,2.8301,2.8301,2.8301,2.8301,2.8301,2.8262,2.8096,2.7598,2.6904,2.6348,2.6006,2.5986,2.582,2.5742,2.5732,2.5732,2.5478,2.5127,2.5059,2.4717,2.4092,2.3848,2.3691,2.3428,2.3252,2.3144,2.3144,2.3144,2.3144,2.3144,2.3144,2.3144,2.3144,2.3144,2.3144,2.3144,2.3144,2.3144,2.3144,2.3144,2.3144,2.3144,2.3144,2.3144,2.296,2.2677,2.2315,2.2129,2.1212,2.0666,2.0486,1.9852,1.9497,1.9588,1.9497,1.8864,1.7863,1.7225,1.6574,1.592,1.5825,1.5825,1.5825,1.5691,1.5671,1.5738,1.5705,1.5625,1.5812,1.5825,1.5825,1.5812,1.5772,1.5698,1.5611,1.5585,1.5558,1.5431,1.5338,1.5631,1.5678,1.5591,1.5538,1.5491,1.5424,1.5231,1.5237,1.5364,1.5558,1.5752,1.5798,1.5825,1.5825,1.5825,1.5825,1.5825,1.5825,1.5825,1.5825,1.5825,1.5825,2.8965,2.8887,2.8467,2.8301,2.8301,2.8301,2.8301,2.8301,2.8301,2.8301,2.8301,2.8301,2.8301,2.8301,2.8301,2.8301,2.8301,2.8301,2.8301,2.8203,2.8018,2.7725,2.7598,2.6699,2.6348,2.626,2.5937,2.5771,2.5732,2.5732,2.5537,2.5293,2.5185,2.4912,2.4492,2.4102,2.3857,2.3682,2.332,2.3154,2.3144,2.3144,2.3144,2.3144,2.3144,2.3144,2.3144,2.3144,2.3144,2.3144,2.3144,2.3144,2.3144,2.3144,2.3144,2.296,2.2862,2.2775,2.2677,2.1756,2.1114,2.0935,2.0034,1.9314,1.9222,1.8948,1.8672,1.8672,1.9031,1.8311,1.7498,1.648,1.6015,1.5825,1.5825,1.5825,1.5825,1.5825,1.5825,1.5825,1.5825,1.5825,1.5825,1.5825,1.5825,1.5825,1.5825,1.5792,1.5738,1.5725,1.5725,1.5738,1.5664,1.5792,1.5805,1.5798,1.5772,1.5738,1.5712,1.5598,1.5504,1.5591,1.5718,1.5825,1.5825,1.5825,1.5825,1.5825,1.5825,1.5825,1.5825,1.5825,1.5825,1.5825,1.5825,2.9228,2.8877,2.8467,2.8301,2.8301,2.8301,2.8301,2.8301,2.8301,2.8301,2.8301,2.8301,2.8301,2.8301,2.8301,2.8301,2.8301,2.8301,2.8301,2.8271,2.8223,2.8164,2.791,2.7002,2.6455,2.6318,2.5957,2.5752,2.5742,2.5723,2.5693,2.5596,2.5498,2.5361,2.4932,2.4502,2.4102,2.3789,2.3379,2.3193,2.3174,2.3144,2.3144,2.3144,2.3144,2.3144,2.3144,2.3144,2.3144,2.3144,2.296,2.2775,2.296,2.296,2.296,2.2677,2.212,2.1667,2.148,2.0666,1.9852,1.9761,1.8856,1.8056,1.7956,1.721,1.6749,1.6655,1.6567,1.6655,1.6386,1.6021,1.5832,1.5825,1.5825,1.5825,1.5825,1.5825,1.5825,1.5825,1.5825,1.5825,1.5825,1.5825,1.5825,1.5825,1.5825,1.5825,1.5825,1.5825,1.5825,1.5825,1.5825,1.5825,1.5825,1.5825,1.5825,1.5825,1.5825,1.5825,1.5732,1.5712,1.5798,1.5825,1.5825,1.5825,1.5825,1.5825,1.5825,1.5825,1.5825,1.5825,1.5825,1.5825,1.5825,2.9551,2.9434,2.8643,2.8408,2.8525,2.8369,2.8301,2.8301,2.8301,2.8301,2.8301,2.8301,2.8301,2.8301,2.8301,2.8301,2.8301,2.8301,2.8301,2.8291,2.8291,2.8291,2.8164,2.7471,2.6904,2.666,2.625,2.5977,2.5791,2.5732,2.5732,2.5732,2.5732,2.5605,2.5352,2.4932,2.4639,2.4336,2.376,2.3447,2.3437,2.3232,2.3144,2.3144,2.3144,2.3144,2.3144,2.2501,2.2306,2.2129,2.1765,2.1765,2.2129,2.2217,2.2041,2.132,2.0944,2.0486,2.0215,1.9405,1.868,1.8588,1.749,1.7037,1.6763,1.6109,1.592,1.5825,1.5825,1.5825,1.5825,1.5825,1.5825,1.5825,1.5825,1.5825,1.5825,1.5825,1.5825,1.5825,1.5825,1.5825,1.5825,1.5825,1.5825,1.5825,1.5825,1.5825,1.5825,1.5825,1.5825,1.5825,1.5825,1.5825,1.5825,1.5825,1.5825,1.5825,1.5825,1.5825,1.5792,1.5792,1.5818,1.5825,1.5825,1.5825,1.5825,1.5825,1.5825,1.5825,1.5825,1.5825,1.5825,1.5825,1.5825,2.9834,3.0,2.8867,2.8555,2.874,2.8437,2.8301,2.8301,2.8301,2.8301,2.8301,2.8301,2.8301,2.8301,2.8301,2.8301,2.8301,2.8301,2.8301,2.8301,2.8301,2.8301,2.8174,2.7871,2.749,2.709,2.6572,2.6182,2.5937,2.5762,2.5732,2.5732,2.5732,2.5693,2.5615,2.5293,2.498,2.4834,2.4248,2.3619,2.3352,2.2974,2.2732,2.2227,2.2227,2.2227,2.2041,2.1489,2.1033,2.0935,2.0034,2.0034,2.0486,2.0935,2.0666,1.9588,1.9497,1.9222,1.9039,1.8133,1.7412,1.7311,1.648,1.592,1.5825,1.5927,1.5825,1.5825,1.5825,1.5825,1.5825,1.5825,1.5825,1.5825,1.5825,1.5825,1.5825,1.5825,1.5825,1.5825,1.5825,1.5825,1.5825,1.5825,1.5825,1.5825,1.5825,1.5825,1.5825,1.5825,1.5825,1.5825,1.5825,1.5825,1.5825,1.5825,1.5825,1.5825,1.5825,1.5825,1.5825,1.5825,1.5825,1.5825,1.5825,1.5825,1.5825,1.5825,1.5825,1.5825,1.5825,1.5825,1.5825,1.5825,1.5825,2.9932,2.9619,2.9062,2.8662,2.8418,2.831,2.8301,2.8301,2.8301,2.8301,2.8301,2.8301,2.8301,2.8301,2.8301,2.8301,2.8301,2.8301,2.8301,2.8301,2.8301,2.8301,2.8252,2.8174,2.791,2.7441,2.6875,2.6426,2.6182,2.5947,2.5752,2.5732,2.5625,2.5528,2.5412,2.5217,2.4727,2.4593,2.4114,2.3343,2.2539,2.2181,2.1563,2.0706,2.0607,2.0499,2.0348,2.0051,1.977,1.9761,1.9579,1.9047,1.8804,1.9255,1.943,1.9131,1.8411,1.7948,1.7855,1.6958,1.6298,1.6015,1.5947,1.5852,1.5845,1.5845,1.5885,1.5858,1.5845,1.5825,1.5825,1.5825,1.5825,1.5825,1.5825,1.5825,1.5825,1.5825,1.5825,1.5825,1.5825,1.5825,1.5825,1.5825,1.5825,1.5825,1.5825,1.5825,1.5825,1.5825,1.5825,1.5825,1.5825,1.5825,1.5825,1.5825,1.5825,1.5825,1.5825,1.5825,1.5825,1.5825,1.5825,1.5825,1.5825,1.5825,1.5825,1.5825,1.5825,1.5825,1.5825,1.5825,1.5825,1.5825,1.5825,2.9883,2.9805,2.8975,2.8613,2.8574,2.8379,2.8301,2.8301,2.8301,2.8301,2.8301,2.8301,2.8301,2.8301,2.8301,2.8301,2.8301,2.8301,2.8301,2.8301,2.8301,2.8301,2.8301,2.8301,2.8193,2.7871,2.7353,2.6748,2.6377,2.5937,2.5664,2.5528,2.5118,2.4707,2.4375,2.3717,2.3483,2.3295,2.2901,2.2318,2.1536,2.1294,2.05,2.0002,1.9841,1.9857,1.9608,1.8949,1.8769,1.8645,1.8039,1.7413,1.7312,1.7443,1.7849,1.7636,1.7153,1.677,1.6805,1.6218,1.6101,1.5872,1.5959,1.6052,1.6059,1.6066,1.6059,1.6032,1.5872,1.5825,1.5825,1.5838,1.5825,1.5825,1.5825,1.5825,1.5825,1.5825,1.5825,1.5825,1.5825,1.5825,1.5825,1.5825,1.5825,1.5825,1.5825,1.5825,1.5825,1.5825,1.5825,1.5825,1.5825,1.5825,1.5825,1.5825,1.5825,1.5825,1.5825,1.5825,1.5825,1.5825,1.5825,1.5825,1.5825,1.5825,1.5825,1.5825,1.5825,1.5825,1.5825,1.5825,1.5825,1.5825,1.5825,2.9785,2.9844,2.8848,2.8564,2.8711,2.8437,2.8301,2.8301,2.8301,2.8301,2.8301,2.8301,2.8301,2.8301,2.8301,2.8301,2.8301,2.8301,2.8301,2.8301,2.8301,2.8301,2.8301,2.8301,2.8262,2.8154,2.7598,2.7187,2.6611,2.6133,2.5664,2.5039,2.4097,2.3484,2.3158,2.2515,2.1744,2.1552,2.1387,2.1106,2.0646,1.9979,1.9589,1.9328,1.9557,1.9349,1.8938,1.8148,1.7816,1.7484,1.6896,1.6148,1.6299,1.6359,1.6253,1.6059,1.6012,1.6005,1.6072,1.6303,1.6279,1.6139,1.6253,1.6333,1.6359,1.6359,1.6353,1.6313,1.6192,1.6059,1.6086,1.5972,1.5939,1.5912,1.5885,1.5825,1.5825,1.5825,1.5825,1.5825,1.5825,1.5825,1.5832,1.5825,1.5825,1.5825,1.5825,1.5825,1.5825,1.5825,1.5825,1.5825,1.5825,1.5825,1.5825,1.5825,1.5825,1.5825,1.5825,1.5825,1.5825,1.5825,1.5825,1.5825,1.5825,1.5825,1.5825,1.5825,1.5825,1.5825,1.5825,1.5825,1.5825,1.5825,1.5825,2.9707,2.9072,2.8906,2.8662,2.8398,2.832,2.8301,2.8301,2.8301,2.8301,2.8301,2.8301,2.8301,2.8301,2.8301,2.8301,2.8301,2.8301,2.8301,2.8301,2.8301,2.8301,2.8291,2.8301,2.8067,2.7756,2.7236,2.7109,2.6444,2.6006,2.5235,2.4161,2.3484,2.3076,2.1954,2.1338,2.1744,2.1643,2.1492,2.0825,1.9466,1.8074,1.7533,1.7364,1.7399,1.7519,1.7513,1.7078,1.6938,1.6891,1.6569,1.638,1.6593,1.666,1.6653,1.6613,1.6607,1.6607,1.656,1.6607,1.6607,1.652,1.6613,1.6647,1.6653,1.6653,1.6653,1.666,1.658,1.652,1.644,1.6326,1.6253,1.6099,1.5965,1.5872,1.5825,1.5825,1.5825,1.5872,1.5885,1.5852,1.5832,1.5832,1.5825,1.5825,1.5825,1.5825,1.5825,1.5825,1.5825,1.5825,1.5825,1.5825,1.5825,1.5825,1.5825,1.5825,1.5825,1.5825,1.5825,1.5825,1.5825,1.5825,1.5825,1.5825,1.5825,1.5825,1.5825,1.5825,1.5825,1.5825,1.5825,1.5825,1.5825,2.9258,2.8896,2.8662,2.8467,2.831,2.8301,2.8301,2.8301,2.8301,2.8301,2.8301,2.8301,2.8301,2.8301,2.8301,2.8301,2.8301,2.8301,2.8301,2.8184,2.8184,2.8184,2.8067,2.7501,2.7051,2.6732,2.5801,2.4757,2.4796,2.4711,2.4035,2.271,2.1862,2.1049,2.0436,1.9716,1.9413,1.931,1.9302,1.894,1.8302,1.7668,1.7121,1.6974,1.7101,1.7088,1.6947,1.6867,1.682,1.6901,1.6673,1.666,1.6874,1.6974,1.7007,1.7201,1.7201,1.7041,1.6774,1.6887,1.6867,1.68,1.6847,1.6954,1.6954,1.6954,1.6954,1.6954,1.6794,1.6734,1.6687,1.644,1.6333,1.6199,1.6072,1.5939,1.5858,1.5832,1.5838,1.5892,1.5959,1.5979,1.5979,1.5945,1.5912,1.5825,1.5825,1.5825,1.5825,1.5825,1.5825,1.5825,1.5825,1.5825,1.5825,1.5825,1.5825,1.5825,1.5825,1.5825,1.5825,1.5825,1.5825,1.5825,1.5825,1.5825,1.5825,1.5825,1.5825,1.5825,1.5825,1.5825,1.5825,1.5825,1.5825,2.876,2.873,2.8418,2.8301,2.8301,2.8301,2.8301,2.8301,2.8301,2.8301,2.8301,2.8301,2.8301,2.8301,2.8301,2.8301,2.8301,2.8301,2.8067,2.7843,2.7726,2.7394,2.6726,2.5936,2.5489,2.5463,2.4333,2.327,2.2699,2.2403,2.2122,2.1151,2.0436,1.9524,1.8916,1.8401,1.7996,1.7996,1.7891,1.7779,1.766,1.7667,1.7435,1.7382,1.7422,1.7482,1.7288,1.7244,1.723,1.7201,1.6974,1.6954,1.7201,1.7268,1.7321,1.7468,1.7495,1.7422,1.7235,1.7215,1.7121,1.7074,1.7081,1.7255,1.7255,1.7255,1.7261,1.7255,1.7114,1.6987,1.6874,1.67,1.6613,1.6453,1.6219,1.6059,1.5945,1.5985,1.6025,1.6086,1.6166,1.6259,1.6226,1.6132,1.6019,1.5865,1.5825,1.5825,1.5825,1.5825,1.5825,1.5825,1.5825,1.5825,1.5825,1.5825,1.5825,1.5825,1.5825,1.5825,1.5825,1.5825,1.5825,1.5825,1.5825,1.5825,1.5825,1.5825,1.5825,1.5825,1.5825,1.5825,1.5825,1.5825,1.5825,2.834,2.833,2.831,2.8301,2.8301,2.8301,2.8301,2.8301,2.8301,2.8301,2.8301,2.8301,2.8301,2.8301,2.8291,2.8291,2.8184,2.8291,2.7394,2.6608,2.6164,2.5608,2.4939,2.4378,2.39,2.3784,2.2812,2.1806,2.1094,2.0628,2.0241,1.968,1.9435,1.875,1.8233,1.788,1.7615,1.7602,1.7589,1.7589,1.7589,1.7589,1.7555,1.7549,1.7562,1.7569,1.7535,1.7321,1.7275,1.7475,1.7261,1.7208,1.7422,1.7475,1.7535,1.7635,1.7662,1.7689,1.7756,1.7635,1.7549,1.7535,1.7508,1.7495,1.7475,1.7528,1.7549,1.7508,1.7382,1.7415,1.7361,1.7275,1.6974,1.6794,1.6533,1.6326,1.6239,1.6246,1.6279,1.6306,1.6393,1.652,1.6553,1.6473,1.6213,1.6052,1.5838,1.5825,1.5825,1.5825,1.5825,1.5825,1.5825,1.5825,1.5825,1.5825,1.5825,1.5825,1.5825,1.5825,1.5825,1.5825,1.5825,1.5825,1.5825,1.5825,1.5825,1.5825,1.5825,1.5825,1.5825,1.5825,1.5825,1.5825,1.5825,2.8301,2.8301,2.8301,2.8301,2.8301,2.8301,2.8301,2.8301,2.8301,2.8301,2.8301,2.8301,2.8301,2.8291,2.8184,2.7726,2.7051,2.6943,2.5945,2.516,2.4497,2.4275,2.3599,2.2887,2.2367,2.195,2.0988,2.0135,1.9435,1.9315,1.915,1.8867,1.88,1.8411,1.7983,1.7836,1.7756,1.7615,1.7589,1.7589,1.7589,1.7589,1.7589,1.7589,1.7589,1.7589,1.7562,1.7482,1.7502,1.7522,1.7462,1.7522,1.7595,1.7622,1.7722,1.7836,1.7862,1.8029,1.8196,1.805,1.7883,1.7822,1.7709,1.7589,1.7589,1.7589,1.7589,1.7582,1.7589,1.7589,1.7535,1.7321,1.719,1.7034,1.6874,1.6627,1.654,1.654,1.6547,1.658,1.6714,1.686,1.686,1.6847,1.6533,1.6233,1.6005,1.5845,1.5905,1.583,1.5863,1.5843,1.5836,1.5892,1.5892,1.5865,1.5832,1.5825,1.5825,1.5825,1.5825,1.5825,1.5825,1.5825,1.5825,1.5825,1.5825,1.5825,1.5825,1.5825,1.5825,1.5825,1.5825,1.5825,1.5825,2.8144,2.7939,2.8057,2.8184,2.8291,2.8301,2.8301,2.8301,2.8301,2.8301,2.8301,2.8291,2.796,2.7736,2.7618,2.6717,2.5709,2.527,2.4378,2.371,2.3151,2.2934,2.2258,2.1548,2.0771,2.0294,1.9661,1.8883,1.8719,1.8577,1.8621,1.8534,1.8384,1.8303,1.8156,1.807,1.7936,1.7769,1.7615,1.7595,1.7589,1.7589,1.7589,1.7589,1.7589,1.7589,1.7589,1.7549,1.7562,1.7615,1.7649,1.7709,1.7756,1.7829,1.7969,1.8096,1.821,1.8323,1.8444,1.8277,1.8016,1.7822,1.7702,1.7602,1.7589,1.7589,1.7589,1.7589,1.7589,1.7582,1.7575,1.7408,1.7321,1.7281,1.7054,1.684,1.684,1.684,1.684,1.6854,1.7027,1.7208,1.7141,1.7094,1.6807,1.654,1.6386,1.6253,1.6149,1.6149,1.6011,1.5965,1.5989,1.5936,1.5972,1.5912,1.5852,1.5825,1.5825,1.5825,1.5825,1.5825,1.5825,1.5825,1.5825,1.5825,1.5825,1.5825,1.5825,1.5825,1.5825,1.5825,1.5825,1.5825,1.5825,2.7812,2.7129,2.7529,2.792,2.8232,2.8281,2.8262,2.8232,2.8242,2.8262,2.8291,2.8291,2.7618,2.6717,2.6717,2.5599,2.4378,2.3933,2.3039,2.1926,2.1593,2.0816,2.0256,1.9774,1.9766,1.9098,1.8905,1.8784,1.8537,1.8731,1.8711,1.8711,1.8751,1.8691,1.8477,1.8196,1.8056,1.7989,1.7729,1.7615,1.7589,1.7589,1.7589,1.7589,1.7649,1.7675,1.7675,1.7749,1.7776,1.7789,1.7949,1.8023,1.8043,1.8243,1.8384,1.8464,1.8484,1.8624,1.8824,1.835,1.8076,1.7896,1.7883,1.7736,1.7635,1.7609,1.7602,1.7609,1.7589,1.7589,1.7575,1.7562,1.7528,1.7448,1.7221,1.7134,1.7141,1.7141,1.7141,1.7141,1.7361,1.7542,1.7455,1.7328,1.7061,1.6854,1.674,1.6653,1.6481,1.6414,1.6242,1.6308,1.6319,1.6219,1.6236,1.5959,1.5879,1.5845,1.5825,1.5825,1.5825,1.5825,1.5825,1.5825,1.5825,1.5825,1.5825,1.5825,1.5825,1.5825,1.5825,1.5825,1.5825,1.5825,1.5825,2.7705,2.7471,2.7607,2.7744,2.7871,2.7881,2.7881,2.7881,2.7891,2.8027,2.8252,2.8301,2.8067,2.7394,2.6155,2.5041,2.371,2.2484,2.1586,2.0371,2.0256,1.9924,1.9482,1.9332,1.9212,1.8998,1.8911,1.8918,1.8791,1.8918,1.9038,1.9078,1.9065,1.8931,1.8604,1.835,1.8277,1.8029,1.7769,1.7589,1.7589,1.7589,1.7595,1.7602,1.7769,1.7862,1.7896,1.8016,1.8096,1.8116,1.829,1.833,1.8343,1.8524,1.8604,1.8718,1.8778,1.8811,1.8891,1.8691,1.8611,1.843,1.8223,1.805,1.7936,1.7896,1.7789,1.7642,1.7629,1.7622,1.7582,1.7582,1.7562,1.7555,1.7435,1.7435,1.7435,1.7435,1.7435,1.7435,1.7575,1.7582,1.7535,1.7495,1.7281,1.7121,1.7001,1.684,1.674,1.6687,1.6527,1.674,1.6785,1.6657,1.6431,1.6213,1.6052,1.5992,1.5905,1.5825,1.5825,1.5879,1.5838,1.5845,1.5832,1.5832,1.5905,1.5945,1.5852,1.5825,1.5845,1.5838,1.5825,1.5825,1.5825,2.7266,2.7021,2.7168,2.7226,2.7246,2.7373,2.7432,2.7471,2.7598,2.7832,2.795,2.7756,2.7051,2.6381,2.5151,2.371,2.2266,2.1373,2.0702,1.9482,1.9482,1.9482,1.9482,1.9345,1.9185,1.9018,1.9025,1.9045,1.8918,1.9025,1.9158,1.9285,1.9352,1.9078,1.8758,1.8544,1.833,1.805,1.7769,1.7589,1.7589,1.7602,1.7649,1.7776,1.7936,1.8083,1.8217,1.837,1.8504,1.8524,1.8577,1.8624,1.8651,1.8764,1.8871,1.9032,1.9078,1.9078,1.9085,1.9078,1.9025,1.9011,1.8731,1.843,1.8243,1.8203,1.8023,1.7869,1.7762,1.7669,1.7635,1.7629,1.7642,1.7642,1.7609,1.7602,1.7689,1.7689,1.7549,1.7575,1.7582,1.7582,1.7589,1.7582,1.7495,1.7375,1.7261,1.7101,1.6961,1.6941,1.6927,1.7042,1.7218,1.7008,1.6773,1.652,1.6353,1.6166,1.6092,1.6039,1.5992,1.6066,1.5959,1.5885,1.5856,1.5916,1.6072,1.6072,1.5985,1.5919,1.5892,1.5872,1.5838,1.5852,1.5872,2.6514,2.5879,2.6211,2.6426,2.6475,2.6807,2.6963,2.7051,2.7422,2.7588,2.7447,2.6495,2.5619,2.3883,2.2461,2.1336,2.0193,1.9754,1.953,1.9421,1.9265,1.9305,1.9352,1.9352,1.9225,1.9145,1.9145,1.9178,1.9005,1.9165,1.9312,1.9339,1.9299,1.9058,1.8798,1.8517,1.8283,1.8023,1.7762,1.7609,1.7589,1.7589,1.7736,1.7903,1.809,1.8277,1.8437,1.8611,1.8624,1.8684,1.8798,1.8891,1.9025,1.9212,1.9312,1.9359,1.9339,1.9319,1.9312,1.9292,1.9305,1.9232,1.8885,1.8617,1.851,1.8484,1.8337,1.817,1.805,1.7849,1.7716,1.7742,1.7762,1.7729,1.7682,1.7756,1.7889,1.7822,1.7642,1.7582,1.7582,1.7589,1.7589,1.7589,1.7589,1.7535,1.7435,1.7428,1.7321,1.7355,1.7341,1.7335,1.7488,1.738,1.7225,1.6914,1.6633,1.644,1.648,1.644,1.6366,1.6253,1.6172,1.6132,1.5952,1.6011,1.6222,1.6259,1.6119,1.6072,1.6132,1.6032,1.6032,1.5972,1.5992,2.6416,2.6221,2.6338,2.6387,2.6357,2.6191,2.6435,2.6963,2.6875,2.6468,2.5709,2.5663,2.4559,2.3467,2.2143,2.1203,2.0451,1.9714,1.9152,1.9052,1.9085,1.9199,1.9285,1.9332,1.9285,1.9265,1.9272,1.9259,1.9252,1.9359,1.9366,1.9352,1.9178,1.8925,1.8644,1.833,1.8163,1.7976,1.7709,1.7622,1.7595,1.7609,1.7809,1.8023,1.8283,1.8504,1.8744,1.8971,1.9032,1.9118,1.9178,1.9232,1.9259,1.9325,1.9366,1.9366,1.9359,1.9359,1.9366,1.9366,1.9366,1.9366,1.9158,1.9018,1.8885,1.8764,1.8657,1.8484,1.8357,1.819,1.8009,1.7963,1.8016,1.8023,1.7956,1.7929,1.8036,1.7969,1.7789,1.7669,1.7669,1.7622,1.7615,1.7589,1.7589,1.7589,1.7589,1.7589,1.7589,1.7589,1.7582,1.7562,1.762,1.7576,1.7455,1.7156,1.6988,1.6747,1.68,1.6794,1.6647,1.6526,1.6413,1.6359,1.6261,1.6368,1.6607,1.65,1.6353,1.646,1.6513,1.6353,1.6226,1.6192,1.6246,2.6133,2.6133,2.6133,2.5817,2.5353,2.5026,2.5026,2.4969,2.5355,2.496,2.3948,2.3708,2.3269,2.234,2.107,2.0295,2.004,1.9241,1.8751,1.8771,1.8844,1.9011,1.9152,1.9199,1.9158,1.9172,1.9112,1.9005,1.9185,1.9332,1.9366,1.9339,1.9065,1.8771,1.8504,1.8237,1.7996,1.7842,1.7689,1.7609,1.7615,1.7695,1.7949,1.8196,1.849,1.8784,1.9052,1.9305,1.9345,1.9366,1.9366,1.9366,1.9359,1.9366,1.9366,1.9366,1.9366,1.9366,1.9366,1.9366,1.9366,1.9366,1.9366,1.9265,1.9178,1.9078,1.8911,1.8738,1.8664,1.8557,1.837,1.823,1.831,1.839,1.8257,1.8123,1.811,1.8096,1.7969,1.7822,1.7749,1.7695,1.7655,1.7622,1.7589,1.7589,1.7589,1.7589,1.7589,1.7589,1.7589,1.7575,1.7562,1.7613,1.7492,1.7509,1.7311,1.7128,1.7174,1.7128,1.6954,1.684,1.666,1.6653,1.6553,1.6727,1.6941,1.6767,1.6647,1.6774,1.6834,1.6693,1.6573,1.6526,1.662,2.5547,2.5342,2.5421,2.451,2.3538,2.3556,2.2793,2.1794,2.3132,2.3194,2.2086,2.1364,2.1156,2.0567,1.9703,1.9163,1.9013,1.8642,1.845,1.8464,1.8617,1.8778,1.8858,1.8891,1.8891,1.8798,1.8751,1.8791,1.8971,1.9132,1.9252,1.9305,1.8998,1.8677,1.8377,1.8083,1.7849,1.7689,1.7629,1.7589,1.7669,1.7869,1.819,1.8457,1.8744,1.9032,1.9259,1.9366,1.9366,1.9366,1.9366,1.9366,1.9366,1.9366,1.9366,1.9366,1.9366,1.9366,1.9366,1.9366,1.9366,1.9366,1.9366,1.9339,1.9299,1.9272,1.9112,1.9025,1.8945,1.8804,1.8624,1.8544,1.8584,1.8584,1.8484,1.847,1.8517,1.8404,1.817,1.8029,1.7909,1.7849,1.7782,1.7762,1.7856,1.7736,1.7756,1.7769,1.7675,1.7675,1.7622,1.7615,1.7575,1.7569,1.7542,1.7586,1.7627,1.7508,1.7488,1.7422,1.7228,1.7052,1.6916,1.6912,1.7029,1.721,1.7338,1.7088,1.7014,1.7088,1.7108,1.7007,1.6941,1.6941,1.6994,2.451,2.2667,2.2667,2.2295,2.1892,2.2038,2.1347,2.0135,2.0514,2.0576,2.0239,2.0264,1.9758,1.8981,1.8843,1.8517,1.8303,1.8237,1.8163,1.817,1.829,1.8477,1.8557,1.8597,1.8604,1.8577,1.8564,1.8611,1.8798,1.8951,1.9018,1.8991,1.8738,1.845,1.8196,1.7896,1.7682,1.7589,1.7589,1.7609,1.7675,1.7889,1.817,1.8484,1.8791,1.9085,1.9279,1.9366,1.9366,1.9366,1.9366,1.9366,1.9366,1.9366,1.9366,1.9366,1.9366,1.9366,1.9366,1.9366,1.9366,1.9366,1.9366,1.9366,1.9366,1.9366,1.9339,1.9279,1.9185,1.9032,1.8918,1.8871,1.8831,1.8778,1.8731,1.8831,1.8931,1.8677,1.8404,1.825,1.8116,1.8029,1.7969,1.7983,1.807,1.8163,1.8257,1.8237,1.7901,1.7802,1.7636,1.7596,1.7602,1.7582,1.7589,1.7589,1.7589,1.7589,1.7549,1.7502,1.7462,1.7361,1.7261,1.7328,1.7452,1.7519,1.756,1.7475,1.7435,1.7402,1.7448,1.7382,1.7482,1.7508,1.7508,2.3583,2.1744,2.1744,2.1233,2.0607,2.0664,2.0025,1.8916,1.8708,1.8708,1.8757,1.8922,1.8669,1.8043,1.8223,1.8237,1.8016,1.7889,1.7856,1.7856,1.7996,1.8156,1.825,1.8303,1.843,1.8437,1.8477,1.8551,1.8617,1.8691,1.8718,1.8684,1.8444,1.821,1.7996,1.7756,1.7589,1.7589,1.7589,1.7649,1.7762,1.8063,1.8364,1.8671,1.8958,1.9205,1.9279,1.9366,1.9366,1.9366,1.9366,1.9366,1.9366,1.9366,1.9366,1.9366,1.9366,1.9366,1.9366,1.9366,1.9366,1.9366,1.9366,1.9366,1.9366,1.9366,1.9366,1.9319,1.9319,1.9185,1.9172,1.9138,1.9132,1.9098,1.9072,1.9118,1.9152,1.9052,1.8811,1.8617,1.8504,1.8424,1.835,1.8243,1.8317,1.8323,1.8464,1.8504,1.82,1.8061,1.7774,1.7622,1.7656,1.7635,1.7589,1.7589,1.7589,1.7589,1.7589,1.7562,1.7515,1.7553,1.7617,1.7553,1.758,1.7593,1.764,1.7575,1.7589,1.7515,1.7649,1.7776,1.7896,1.7983,1.8009,2.2469,2.1352,2.1131,2.0335,1.9317,1.9295,1.8708,1.7793,1.7687,1.7654,1.7627,1.7875,1.7929,1.7983,1.7983,1.7989,1.7923,1.7749,1.7635,1.7682,1.7856,1.7929,1.7963,1.8003,1.8156,1.8297,1.837,1.8317,1.8283,1.843,1.8517,1.8404,1.8223,1.8023,1.7916,1.7762,1.7589,1.7589,1.7629,1.7762,1.8023,1.8337,1.8597,1.8898,1.9185,1.9345,1.9366,1.9366,1.9366,1.9366,1.9366,1.9366,1.9366,1.9366,1.9366,1.9366,1.9366,1.9366,1.9366,1.9366,1.9366,1.9366,1.9366,1.9366,1.9366,1.9366,1.9366,1.9366,1.9366,1.9366,1.9352,1.9345,1.9339,1.9339,1.9325,1.9319,1.9325,1.9319,1.9132,1.8925,1.8831,1.8744,1.8677,1.8564,1.8564,1.8564,1.8571,1.8564,1.8537,1.8333,1.8207,1.8034,1.7915,1.7876,1.7655,1.7629,1.7642,1.7589,1.7589,1.7589,1.7575,1.762,1.7607,1.7647,1.7562,1.7654,1.766,1.7582,1.7589,1.7609,1.7782,1.7936,1.8056,1.8176,1.839,2.041,1.8873,1.8311,1.7803,1.738,1.777,1.7786,1.7687,1.7562,1.7462,1.7295,1.7288,1.7428,1.7669,1.7675,1.7695,1.7736,1.7602,1.7595,1.7629,1.7695,1.7695,1.7729,1.7842,1.7896,1.8029,1.8176,1.823,1.8116,1.8303,1.835,1.8123,1.811,1.7916,1.7689,1.7589,1.7589,1.7589,1.7629,1.7742,1.8056,1.835,1.8631,1.8918,1.9205,1.9312,1.9366,1.9366,1.9366,1.9366,1.9366,1.9366,1.9366,1.9366,1.9366,1.9366,1.9366,1.9366,1.9366,1.9366,1.9366,1.9366,1.9366,1.9366,1.9366,1.9366,1.9366,1.9366,1.9366,1.9366,1.9359,1.9359,1.9359,1.9359,1.9352,1.9352,1.9352,1.9319,1.9225,1.9065,1.8945,1.8911,1.8905,1.8878,1.8945,1.8971,1.9058,1.9032,1.8851,1.8744,1.8617,1.8464,1.8187,1.7976,1.7709,1.7729,1.7722,1.7649,1.7589,1.7589,1.7589,1.7589,1.7589,1.7589,1.7589,1.7575,1.7589,1.7622,1.7649,1.7702,1.7889,1.805,1.8196,1.8417,1.8684]},{"header":{"parameterUnit":"m.s-1","parameterCategory":1,"la1":31.0,"la2":29.5877,"lo1":-88.7671,"lo2":-86.6584,"dy":0.0162,"dx":0.0185,"nx":115,"ny":88,"refTime":"2024-05-15T06:00:00:Z","depth":0,"parameterNumber":3,"parameterNumberName":"V-component_of_WINDS"},"data":[0.0,0.0,0.0,0.0,0.0,0.0,0.0,0.0,0.0,0.0,0.0,0.0,0.0,0.0,0.0,0.0,0.0,0.0,0.0,0.0,0.0,0.0,0.0,0.0,0.0,0.0,0.0,0.0,0.0,0.0,0.0,0.0,0.0,0.0,0.0,0.0,0.0,0.0,0.0,0.0,0.0,0.0,0.0,0.0,0.0,0.0,0.0,0.0,0.0,0.0,0.0,0.0,0.0,0.0,0.0,0.0,0.0,0.0,0.0,0.0,0.0,0.0,0.0,0.0,0.0,0.0,0.0,0.0,0.0,0.0,0.0,0.0,0.0,0.0,0.0,0.0,0.0,0.0,0.0,0.0,0.0,0.0,0.0,0.0,0.0,0.0,0.0,0.0,0.0,0.0,0.0,0.0,0.0,0.0,0.0,0.0,0.0,0.0,0.0,0.0,0.0,0.0,0.0,0.0,0.0,0.0,0.0,0.0,0.0,0.0,0.0,0.0,0.0,0.0,0.0,0.0,0.0,0.0,0.0,0.0,0.0,0.0,0.0,0.0,0.0,0.0,0.0,0.0,0.0,0.0,0.0,0.0,0.0,0.0,0.0,0.0,0.0,0.0,0.0,0.0,0.0,0.0,0.0,0.0,0.0,0.0,0.0,0.0,0.0,0.0,0.0,0.0,0.0,0.0,0.0,0.0,0.0,0.0,0.0,0.0,0.0,0.0,0.0,0.0,0.0,0.0,0.0,0.0,0.0,0.0,0.0,0.0,0.0,0.0,0.0,0.0,0.0,0.0,0.0,0.0,0.0,0.0,0.0,0.0,0.0,0.0,0.0,0.0,0.0,0.0,0.0,0.0,0.0,0.0,0.0,0.0,0.0,0.0,0.0,0.0,0.0,0.0,0.0,0.0,0.0,0.0,0.0,0.0,0.0,0.0,0.0,0.0,0.0,0.0,0.0,0.0,0.0,0.0,0.0,0.0,0.0,0.0,0.0,0.0,0.0,0.0,0.0,0.0,0.0,0.0,0.0,0.0,0.0,0.0,0.0,0.0,0.0,0.0,0.0,0.0,0.0,0.0,0.0,0.0,0.0,0.0,0.0,0.0,0.0,0.0,0.0,0.0,0.0,0.0,0.0,0.0,0.0,0.0,0.0,0.0,0.0,0.0,0.0,0.0,0.0,0.0,0.0,0.0,0.0,0.0,0.0,0.0,0.0,0.0,0.0,0.0,0.0,0.0,0.0,0.0,0.0,0.0,0.0,0.0,0.0,0.0,0.0,0.0,0.0,0.0,0.0,0.0,0.0,0.0,0.0,0.0,0.0,0.0,0.0,0.0,0.0,0.0,0.0,0.0,0.0,0.0,0.0,0.0,0.0,0.0,0.0,0.0,0.0,0.0,0.0,0.0,0.0,0.0,0.0,0.0,0.0,0.0,0.0,0.0,0.0,0.0,0.0,0.0,0.0,0.0,0.0,0.0,0.0,0.0,0.0,0.0,0.0,0.0,0.0,0.0,0.0,0.0,0.0,0.0,0.0,0.0,0.0,0.0,0.0,0.0,0.0,0.0,0.0,0.0,0.0,0.0,0.0,0.0,0.0,0.0,0.0,0.0,0.0,0.0,0.0,0.0,0.0,0.0,0.0,0.0,0.0,0.0,0.0,0.0,0.0,0.0,0.0,0.0,0.0,0.0,0.0,0.0,0.0,0.0,0.0,0.0,0.0,0.0,0.0,0.0,0.0,0.0,0.0,0.0,0.0,0.0,0.0,0.0,0.0,0.0,0.0,0.0,0.0,0.0,0.0,0.0,0.0,0.0,0.0,0.0,0.0,0.0,0.0,0.0,0.0,0.0,0.0,0.0,0.0,0.0,0.0,0.0,0.0,0.0,0.0,0.0,0.0,0.0,0.0,0.0,0.0,0.0,0.0,0.0,0.0,0.0,0.0,0.0,0.0,0.0,0.0,0.0,0.0,0.0,0.0,0.0,0.0,0.0,0.0,0.0,0.0,0.0,0.0,0.0,0.0,0.0,0.0,0.0,0.0,0.0,0.0,0.0,0.0,0.0,0.0,0.0,0.0,0.0,0.0,0.0,0.0,0.0,0.0,0.0,0.0,0.0,0.0,0.0,0.0,0.0,0.0,0.0,0.0,0.0,0.0,0.0,0.0,0.0,0.0,0.0,0.0,0.0,0.0,0.0,0.0,0.0,0.0,0.0,0.0,0.0,0.0,0.0,0.0,0.0,0.0,0.0,0.0,0.0,0.0,0.0,0.0,0.0,0.0,0.0,0.0,0.0,0.0,0.0,0.0,0.0,0.0,0.0,0.0,0.0,0.0,0.0,0.0,0.0,0.0,0.0,0.0,0.0,0.0,0.0,0.0,0.0,0.0,0.0,0.0,0.0,0.0,0.0,0.0,0.0,0.0,0.0,0.0,0.0,0.0,0.0,0.0,0.0,0.0,0.0,0.0,0.0,0.0,0.0,0.0,0.0,0.0,0.0,0.0,0.0,0.0,0.0,0.0,0.0,0.0,0.0,0.0,0.0,0.0,0.0,0.0,0.0,0.0,0.0,0.0,0.0,0.0,0.0,0.0,0.0,0.0,0.0,0.0,0.0,0.0,0.0,0.0,0.0,0.0,0.0,0.0,0.0,0.0,0.0,0.0,0.0,0.0,0.0,0.0,0.0,0.0,0.0,0.0,0.0,0.0,0.0,0.0,0.0,0.0,0.0,0.0,0.0,0.0,0.0,0.0,0.0,0.0,0.0,0.0,0.0,0.0,0.0,0.0,0.0,0.0,0.0,0.0,0.0,0.0,0.0,0.0,0.0,0.0,0.0,0.0,0.0,0.0,0.0,0.0,0.0,0.0,0.0,0.0,0.0,0.0,0.0,0.0,0.0,0.0,0.0,0.0,0.0,0.0,0.0,0.0,0.0,0.0,0.0,0.0,0.0,0.0,0.0,0.0,0.0,0.0,0.0,0.0,0.0,0.0,0.0,0.0,0.0,0.0,0.0,0.0,0.0,0.0,0.0,0.0,0.0,0.0,0.0,0.0,0.0,0.0,0.0,0.0,0.0,0.0,0.0,0.0,0.0,0.0,0.0,0.0,0.0,0.0,0.0,0.0,0.0,0.0,0.0,0.0,0.0,0.0,0.0,0.0,0.0,0.0,0.0,0.0,0.0,0.0,0.0,0.0,0.0,0.0,0.0,0.0,0.0,0.0,0.0,0.0,0.0,0.0,0.0,0.0,0.0,0.0,0.0,0.0,0.0,0.0,0.0,0.0,0.0,0.0,0.0,0.0,0.0,0.0,0.0,0.0,0.0,0.0,0.0,0.0,0.0,0.0,0.0,0.0,0.0,0.0,0.0,0.0,0.0,0.0,0.0,0.0,0.0,0.0,0.0,0.0,0.0,0.0,0.0,0.0,0.0,0.0,0.0,0.0,0.0,0.0,0.0,0.0,0.0,0.0,0.0,0.0,0.0,0.0,0.0,0.0,0.0,0.0,0.0,0.0,0.0,0.0,0.0,0.0,0.0,0.0,0.0,0.0,0.0,0.0,0.0,0.0,0.0,0.0,0.0,0.0,0.0,0.0,0.0,0.0,0.0,0.0,0.0,0.0,0.0,0.0,0.0,0.0,0.0,0.0,0.0,0.0,0.0,0.0,0.0,0.0,0.0,0.0,0.0,0.0,0.0,0.0,0.0,0.0,0.0,0.0,0.0,0.0,0.0,0.0,0.0,0.0,0.0,0.0,0.0,0.0,0.0,0.0,0.0,0.0,0.0,0.0,0.0,0.0,0.0,0.0,0.0,0.0,0.0,0.0,0.0,0.0,0.0,0.0,0.0,0.0,0.0,0.0,0.0,0.0,0.0,0.0,0.0,0.0,0.0,0.0,0.0,0.0,0.0,0.0,0.0,0.0,0.0,0.0,0.0,0.0,0.0,0.0,0.0,0.0,0.0,0.0,0.0,0.0,0.0,0.0,0.0,0.0,0.0,0.0,0.0,0.0,0.0,0.0,0.0,0.0,0.0,0.0,0.0,0.0,0.0,0.0,0.0,0.0,0.0,0.0,0.0,0.0,0.0,0.0,0.0,0.0,0.0,0.0,0.0,0.0,0.0,0.0,0.0,0.0,0.0,0.0,0.0,0.0,0.0,0.0,0.0,0.0,0.0,0.0,0.0,0.0,0.0,0.0,0.0,0.0,0.0,0.0,0.0,0.0,0.0,0.0,0.0,0.0,0.0,0.0,0.0,0.0,0.0,0.0,0.0,0.0,0.0,0.0,0.0,-2.4388,0.0,0.0,0.0,0.0,0.0,0.0,0.0,0.0,0.0,0.0,0.0,0.0,0.0,0.0,0.0,0.0,0.0,0.0,0.0,0.0,0.0,0.0,0.0,0.0,0.0,0.0,0.0,0.0,0.0,0.0,0.0,0.0,0.0,0.0,0.0,0.0,0.0,0.0,0.0,0.0,0.0,0.0,0.0,0.0,0.0,0.0,0.0,0.0,0.0,0.0,0.0,0.0,0.0,0.0,0.0,0.0,0.0,0.0,0.0,0.0,0.0,0.0,0.0,0.0,0.0,0.0,0.0,0.0,0.0,0.0,0.0,0.0,0.0,0.0,0.0,0.0,0.0,0.0,0.0,0.0,0.0,0.0,0.0,0.0,0.0,0.0,0.0,0.0,0.0,0.0,0.0,0.0,0.0,0.0,0.0,0.0,0.0,0.0,0.0,0.0,0.0,0.0,0.0,0.0,0.0,0.0,0.0,0.0,0.0,0.0,-2.7046,-2.6691,-2.5998,-2.5348,-2.4761,0.0,0.0,0.0,0.0,0.0,0.0,0.0,0.0,0.0,0.0,0.0,0.0,0.0,0.0,0.0,0.0,0.0,0.0,0.0,0.0,0.0,0.0,0.0,0.0,0.0,0.0,0.0,0.0,0.0,0.0,0.0,0.0,0.0,0.0,0.0,0.0,0.0,0.0,0.0,0.0,0.0,0.0,0.0,0.0,0.0,0.0,0.0,0.0,0.0,0.0,0.0,0.0,0.0,0.0,0.0,0.0,0.0,0.0,0.0,0.0,0.0,0.0,0.0,0.0,0.0,0.0,0.0,0.0,0.0,0.0,0.0,0.0,0.0,0.0,0.0,0.0,0.0,0.0,0.0,0.0,0.0,0.0,0.0,0.0,0.0,0.0,0.0,0.0,0.0,0.0,0.0,0.0,0.0,0.0,0.0,0.0,0.0,0.0,0.0,0.0,0.0,0.0,0.0,0.0,0.0,0.0,0.0,0.0,0.0,0.0,0.0,0.0,-2.6674,-2.6043,-2.5394,0.0,0.0,0.0,0.0,0.0,0.0,0.0,0.0,0.0,0.0,0.0,0.0,0.0,0.0,0.0,0.0,0.0,0.0,0.0,0.0,0.0,0.0,0.0,0.0,0.0,0.0,0.0,0.0,0.0,0.0,0.0,0.0,0.0,0.0,0.0,0.0,0.0,0.0,0.0,0.0,0.0,0.0,0.0,0.0,0.0,0.0,0.0,0.0,0.0,0.0,0.0,0.0,0.0,0.0,0.0,0.0,0.0,0.0,0.0,0.0,0.0,0.0,0.0,0.0,0.0,0.0,0.0,0.0,0.0,0.0,0.0,0.0,0.0,0.0,0.0,0.0,0.0,0.0,0.0,0.0,0.0,0.0,0.0,0.0,0.0,0.0,0.0,0.0,0.0,0.0,0.0,0.0,0.0,0.0,0.0,0.0,0.0,0.0,0.0,0.0,0.0,0.0,0.0,0.0,0.0,0.0,0.0,0.0,0.0,0.0,-2.6674,-2.8723,-2.8723,0.0,-2.6605,0.0,0.0,0.0,0.0,0.0,0.0,0.0,0.0,0.0,0.0,0.0,0.0,0.0,0.0,0.0,0.0,0.0,0.0,0.0,0.0,0.0,0.0,0.0,0.0,0.0,0.0,0.0,0.0,0.0,0.0,0.0,0.0,0.0,0.0,0.0,0.0,0.0,0.0,0.0,0.0,0.0,0.0,0.0,0.0,0.0,0.0,0.0,0.0,0.0,0.0,0.0,0.0,0.0,0.0,0.0,0.0,0.0,0.0,0.0,0.0,0.0,0.0,0.0,0.0,0.0,0.0,0.0,0.0,0.0,0.0,0.0,0.0,0.0,0.0,0.0,0.0,0.0,0.0,0.0,0.0,0.0,0.0,0.0,0.0,0.0,0.0,0.0,0.0,0.0,0.0,0.0,0.0,0.0,0.0,0.0,0.0,0.0,0.0,0.0,0.0,0.0,0.0,0.0,0.0,0.0,0.0,0.0,0.0,0.0,0.0,-2.6691,-2.8977,-2.8731,-2.7606,0.0,0.0,0.0,0.0,0.0,0.0,0.0,0.0,0.0,0.0,0.0,0.0,0.0,0.0,0.0,0.0,0.0,0.0,0.0,0.0,0.0,0.0,0.0,0.0,0.0,0.0,0.0,0.0,0.0,0.0,0.0,0.0,0.0,0.0,0.0,0.0,0.0,0.0,0.0,0.0,0.0,0.0,0.0,0.0,0.0,0.0,0.0,0.0,0.0,0.0,0.0,0.0,0.0,0.0,0.0,0.0,0.0,0.0,0.0,0.0,0.0,0.0,0.0,0.0,0.0,0.0,0.0,0.0,0.0,0.0,0.0,0.0,0.0,0.0,0.0,0.0,0.0,0.0,0.0,0.0,0.0,0.0,0.0,0.0,0.0,0.0,0.0,0.0,0.0,0.0,0.0,0.0,0.0,0.0,0.0,0.0,0.0,0.0,0.0,0.0,0.0,0.0,0.0,0.0,0.0,0.0,0.0,0.0,0.0,0.0,-2.637,0.0,-2.9688,-2.8561,-2.699,-2.5167,0.0,0.0,0.0,0.0,0.0,0.0,0.0,0.0,0.0,0.0,0.0,0.0,0.0,0.0,0.0,0.0,0.0,0.0,0.0,0.0,0.0,0.0,0.0,0.0,0.0,0.0,0.0,0.0,0.0,0.0,0.0,0.0,0.0,0.0,0.0,0.0,0.0,0.0,0.0,0.0,0.0,0.0,0.0,0.0,0.0,0.0,0.0,0.0,0.0,0.0,0.0,0.0,0.0,0.0,0.0,0.0,0.0,0.0,0.0,0.0,0.0,0.0,0.0,0.0,0.0,0.0,0.0,0.0,0.0,0.0,0.0,0.0,0.0,0.0,0.0,0.0,0.0,0.0,0.0,0.0,0.0,0.0,0.0,0.0,0.0,0.0,0.0,0.0,0.0,0.0,0.0,0.0,0.0,0.0,0.0,0.0,0.0,0.0,0.0,0.0,0.0,0.0,0.0,0.0,0.0,0.0,0.0,0.0,0.0,-2.9076,-2.911,-3.185,-2.8672,-2.6725,0.0,0.0,0.0,0.0,0.0,0.0,0.0,0.0,0.0,0.0,0.0,0.0,0.0,0.0,0.0,0.0,0.0,0.0,0.0,0.0,0.0,0.0,0.0,0.0,0.0,0.0,0.0,0.0,0.0,0.0,0.0,0.0,0.0,0.0,0.0,0.0,0.0,0.0,0.0,0.0,0.0,0.0,0.0,0.0,0.0,0.0,0.0,0.0,0.0,0.0,0.0,0.0,0.0,0.0,0.0,0.0,0.0,0.0,0.0,0.0,0.0,0.0,0.0,0.0,0.0,0.0,0.0,0.0,0.0,0.0,0.0,0.0,0.0,0.0,0.0,0.0,0.0,0.0,0.0,0.0,0.0,0.0,0.0,0.0,0.0,0.0,0.0,0.0,0.0,0.0,0.0,0.0,0.0,0.0,0.0,0.0,0.0,0.0,0.0,0.0,0.0,0.0,0.0,0.0,0.0,0.0,0.0,0.0,0.0,-2.5795,-2.6657,-2.8298,-3.0666,-2.8163,-2.6911,0.0,0.0,0.0,0.0,0.0,0.0,0.0,0.0,0.0,0.0,0.0,0.0,0.0,0.0,0.0,0.0,0.0,0.0,0.0,0.0,0.0,0.0,0.0,0.0,0.0,0.0,0.0,0.0,0.0,0.0,0.0,0.0,0.0,0.0,0.0,0.0,0.0,0.0,0.0,0.0,0.0,0.0,0.0,0.0,0.0,0.0,0.0,0.0,0.0,0.0,0.0,0.0,0.0,0.0,0.0,0.0,0.0,0.0,0.0,0.0,0.0,0.0,0.0,0.0,0.0,0.0,0.0,0.0,0.0,0.0,0.0,0.0,0.0,0.0,0.0,0.0,0.0,0.0,0.0,0.0,0.0,0.0,0.0,0.0,0.0,0.0,0.0,0.0,0.0,0.0,0.0,0.0,0.0,0.0,0.0,0.0,0.0,0.0,0.0,0.0,0.0,0.0,0.0,0.0,0.0,0.0,0.0,0.0,0.0,-2.4831,0.0,-2.9025,0.0,-2.7892,-2.6488,0.0,0.0,0.0,0.0,0.0,0.0,0.0,0.0,0.0,0.0,0.0,0.0,0.0,0.0,0.0,0.0,0.0,0.0,0.0,0.0,0.0,0.0,0.0,0.0,0.0,0.0,0.0,0.0,0.0,0.0,0.0,0.0,0.0,0.0,0.0,0.0,0.0,0.0,0.0,0.0,0.0,0.0,0.0,0.0,0.0,0.0,0.0,0.0,0.0,0.0,0.0,0.0,0.0,0.0,0.0,0.0,0.0,0.0,0.0,0.0,0.0,0.0,0.0,0.0,0.0,0.0,0.0,0.0,0.0,0.0,0.0,0.0,0.0,0.0,0.0,0.0,0.0,0.0,0.0,0.0,0.0,0.0,0.0,0.0,0.0,0.0,0.0,0.0,0.0,0.0,0.0,0.0,0.0,0.0,0.0,0.0,0.0,0.0,0.0,0.0,0.0,0.0,0.0,0.0,0.0,0.0,0.0,0.0,-2.4831,-2.9702,-3.1224,-3.1258,-3.0142,-2.7841,-2.5338,0.0,0.0,0.0,0.0,0.0,0.0,0.0,0.0,0.0,0.0,0.0,0.0,0.0,0.0,0.0,0.0,0.0,0.0,0.0,0.0,0.0,0.0,0.0,0.0,0.0,0.0,0.0,0.0,0.0,0.0,0.0,0.0,0.0,0.0,0.0,0.0,0.0,0.0,0.0,0.0,0.0,0.0,0.0,0.0,0.0,0.0,0.0,0.0,0.0,0.0,0.0,0.0,0.0,0.0,0.0,0.0,0.0,0.0,0.0,0.0,0.0,0.0,0.0,0.0,0.0,0.0,0.0,0.0,0.0,0.0,0.0,0.0,0.0,0.0,0.0,0.0,0.0,0.0,0.0,0.0,0.0,0.0,0.0,0.0,0.0,0.0,0.0,0.0,0.0,0.0,0.0,0.0,0.0,0.0,0.0,0.0,0.0,0.0,0.0,0.0,0.0,0.0,0.0,0.0,0.0,0.0,0.0,0.0,0.0,-2.6234,-2.7672,-2.9448,-3.1343,-2.6928,-2.5456,0.0,0.0,0.0,0.0,0.0,0.0,0.0,0.0,0.0,0.0,0.0,0.0,0.0,0.0,0.0,0.0,0.0,0.0,0.0,0.0,0.0,0.0,0.0,0.0,0.0,0.0,0.0,0.0,0.0,0.0,0.0,0.0,0.0,0.0,0.0,0.0,0.0,0.0,0.0,0.0,0.0,0.0,0.0,0.0,0.0,0.0,0.0,0.0,0.0,0.0,0.0,0.0,0.0,0.0,0.0,0.0,0.0,0.0,0.0,0.0,0.0,0.0,0.0,0.0,0.0,0.0,0.0,0.0,0.0,0.0,0.0,0.0,0.0,0.0,0.0,0.0,0.0,0.0,0.0,0.0,0.0,0.0,0.0,0.0,0.0,0.0,0.0,0.0,0.0,0.0,0.0,0.0,0.0,0.0,0.0,0.0,0.0,0.0,0.0,0.0,0.0,0.0,0.0,0.0,0.0,0.0,0.0,0.0,0.0,-2.6691,-2.8281,-2.9905,-3.1444,-2.7571,-2.6251,-2.7858,0.0,0.0,0.0,0.0,0.0,0.0,0.0,0.0,0.0,0.0,0.0,0.0,0.0,0.0,0.0,0.0,0.0,0.0,0.0,0.0,0.0,0.0,0.0,0.0,0.0,0.0,0.0,0.0,0.0,0.0,0.0,0.0,0.0,0.0,0.0,0.0,0.0,0.0,0.0,0.0,0.0,0.0,0.0,0.0,0.0,0.0,0.0,0.0,0.0,0.0,0.0,0.0,0.0,0.0,0.0,0.0,0.0,0.0,0.0,0.0,0.0,0.0,0.0,0.0,0.0,0.0,0.0,0.0,0.0,0.0,0.0,0.0,0.0,0.0,0.0,0.0,0.0,0.0,0.0,0.0,0.0,0.0,0.0,0.0,0.0,0.0,0.0,0.0,0.0,0.0,0.0,0.0,0.0,0.0,0.0,0.0,0.0,0.0,0.0,0.0,0.0,0.0,0.0,0.0,0.0,0.0,0.0,0.0,-3.0209,-3.2442,-3.2611,-3.0649,-2.9516,-2.7689,0.0,0.0,0.0,0.0,0.0,0.0,0.0,0.0,0.0,0.0,0.0,0.0,0.0,0.0,0.0,0.0,0.0,0.0,0.0,0.0,0.0,0.0,0.0,0.0,0.0,0.0,0.0,0.0,0.0,0.0,0.0,0.0,0.0,0.0,0.0,0.0,0.0,0.0,0.0,0.0,0.0,0.0,0.0,0.0,0.0,0.0,0.0,0.0,0.0,0.0,0.0,0.0,0.0,0.0,0.0,0.0,0.0,0.0,0.0,0.0,0.0,0.0,0.0,0.0,0.0,0.0,0.0,0.0,0.0,0.0,0.0,0.0,0.0,0.0,0.0,0.0,0.0,0.0,0.0,0.0,0.0,0.0,0.0,0.0,0.0,0.0,0.0,0.0,0.0,0.0,0.0,0.0,0.0,0.0,0.0,0.0,0.0,0.0,0.0,0.0,0.0,0.0,0.0,0.0,0.0,0.0,0.0,0.0,0.0,-3.1749,-3.4455,-3.5622,-3.4962,-3.1106,-2.8962,0.0,0.0,0.0,0.0,0.0,0.0,0.0,0.0,0.0,0.0,0.0,0.0,0.0,0.0,0.0,0.0,0.0,0.0,0.0,0.0,0.0,0.0,0.0,0.0,0.0,0.0,0.0,0.0,0.0,0.0,0.0,0.0,0.0,0.0,0.0,0.0,0.0,0.0,0.0,0.0,0.0,0.0,0.0,0.0,0.0,0.0,0.0,0.0,0.0,0.0,0.0,0.0,0.0,0.0,0.0,0.0,0.0,0.0,0.0,0.0,0.0,0.0,0.0,0.0,0.0,0.0,0.0,0.0,0.0,0.0,0.0,0.0,0.0,0.0,0.0,0.0,0.0,0.0,0.0,0.0,0.0,0.0,0.0,0.0,0.0,0.0,0.0,0.0,0.0,0.0,0.0,0.0,0.0,0.0,0.0,0.0,0.0,0.0,0.0,0.0,0.0,0.0,0.0,0.0,0.0,0.0,0.0,0.0,-3.1234,-3.3186,-3.6146,-3.7702,-3.7719,-3.3863,-3.1043,0.0,0.0,0.0,0.0,0.0,0.0,0.0,0.0,0.0,0.0,0.0,0.0,0.0,0.0,0.0,0.0,0.0,0.0,0.0,0.0,0.0,0.0,0.0,0.0,0.0,0.0,0.0,0.0,0.0,0.0,0.0,0.0,0.0,0.0,0.0,0.0,0.0,0.0,0.0,0.0,0.0,0.0,0.0,0.0,0.0,0.0,0.0,0.0,0.0,0.0,0.0,0.0,0.0,0.0,0.0,0.0,0.0,0.0,0.0,0.0,0.0,0.0,0.0,0.0,0.0,0.0,0.0,0.0,0.0,0.0,0.0,0.0,0.0,0.0,0.0,0.0,0.0,0.0,0.0,0.0,0.0,0.0,0.0,0.0,0.0,0.0,0.0,0.0,0.0,0.0,0.0,0.0,0.0,0.0,0.0,0.0,0.0,0.0,0.0,0.0,0.0,0.0,0.0,0.0,0.0,0.0,0.0,0.0,-3.2043,-3.459,-3.755,-3.9073,-3.8937,-3.6806,-3.3395,0.0,0.0,0.0,0.0,0.0,0.0,0.0,0.0,0.0,0.0,0.0,0.0,0.0,0.0,0.0,0.0,0.0,0.0,0.0,0.0,0.0,0.0,0.0,0.0,0.0,0.0,0.0,0.0,0.0,0.0,0.0,0.0,0.0,0.0,0.0,0.0,0.0,0.0,0.0,0.0,0.0,0.0,0.0,0.0,0.0,0.0,0.0,0.0,0.0,0.0,0.0,0.0,0.0,0.0,0.0,0.0,0.0,0.0,0.0,0.0,0.0,0.0,0.0,0.0,0.0,0.0,0.0,0.0,0.0,0.0,0.0,0.0,0.0,0.0,0.0,0.0,0.0,0.0,0.0,0.0,0.0,0.0,0.0,0.0,0.0,0.0,0.0,0.0,0.0,0.0,0.0,0.0,0.0,0.0,0.0,0.0,0.0,0.0,0.0,0.0,0.0,0.0,0.0,0.0,0.0,0.0,0.0,0.0,-3.3609,-3.5385,-3.8311,-3.958,-3.8988,-3.6806,-3.4118,0.0,0.0,0.0,0.0,0.0,0.0,0.0,0.0,0.0,0.0,0.0,0.0,0.0,0.0,0.0,0.0,0.0,0.0,0.0,0.0,0.0,0.0,0.0,0.0,0.0,0.0,0.0,0.0,0.0,0.0,0.0,0.0,0.0,0.0,0.0,0.0,0.0,0.0,0.0,0.0,0.0,0.0,0.0,0.0,0.0,0.0,0.0,0.0,-2.698,0.0,0.0,0.0,0.0,0.0,0.0,0.0,0.0,0.0,0.0,0.0,0.0,0.0,0.0,0.0,0.0,0.0,0.0,0.0,0.0,0.0,0.0,0.0,0.0,0.0,0.0,0.0,0.0,0.0,0.0,0.0,0.0,0.0,0.0,0.0,0.0,0.0,0.0,0.0,0.0,0.0,0.0,0.0,0.0,0.0,0.0,0.0,0.0,0.0,0.0,0.0,0.0,0.0,0.0,0.0,0.0,0.0,0.0,0.0,-3.481,-3.6688,-3.8903,-3.9732,-3.8988,-3.7499,-3.5059,0.0,0.0,0.0,0.0,0.0,0.0,0.0,0.0,0.0,0.0,0.0,0.0,0.0,0.0,0.0,0.0,0.0,0.0,0.0,0.0,0.0,0.0,0.0,0.0,0.0,0.0,0.0,0.0,0.0,0.0,0.0,0.0,0.0,0.0,0.0,0.0,0.0,0.0,0.0,0.0,0.0,0.0,0.0,0.0,0.0,0.0,0.0,0.0,0.0,0.0,0.0,0.0,0.0,0.0,0.0,0.0,0.0,0.0,0.0,0.0,0.0,0.0,0.0,0.0,0.0,0.0,0.0,0.0,0.0,0.0,0.0,0.0,0.0,0.0,0.0,0.0,0.0,0.0,0.0,0.0,0.0,0.0,0.0,0.0,0.0,0.0,0.0,0.0,0.0,0.0,0.0,0.0,0.0,0.0,0.0,0.0,0.0,0.0,0.0,0.0,0.0,0.0,0.0,0.0,0.0,0.0,0.0,-3.2797,-3.5487,-3.7821,-3.9326,-3.9732,-3.9022,-3.8278,-3.5912,-3.1831,0.0,0.0,0.0,0.0,0.0,0.0,0.0,0.0,0.0,0.0,0.0,0.0,0.0,0.0,0.0,0.0,0.0,0.0,0.0,0.0,0.0,0.0,0.0,0.0,0.0,0.0,0.0,0.0,0.0,0.0,0.0,0.0,0.0,0.0,0.0,0.0,0.0,0.0,-2.382,-2.5367,0.0,0.0,0.0,0.0,0.0,0.0,0.0,0.0,-2.7713,0.0,0.0,0.0,0.0,0.0,0.0,0.0,0.0,0.0,0.0,0.0,0.0,0.0,0.0,0.0,0.0,0.0,0.0,0.0,0.0,0.0,0.0,0.0,0.0,0.0,0.0,0.0,0.0,0.0,0.0,0.0,0.0,0.0,0.0,0.0,0.0,0.0,0.0,0.0,0.0,0.0,0.0,0.0,0.0,0.0,0.0,0.0,0.0,0.0,0.0,0.0,0.0,0.0,0.0,0.0,0.0,-3.3508,-3.3592,-3.4979,-3.7838,-3.9326,-3.9732,-3.9005,-3.8294,-3.6084,-3.2428,0.0,0.0,0.0,0.0,0.0,0.0,0.0,0.0,0.0,0.0,0.0,0.0,0.0,0.0,0.0,0.0,0.0,0.0,0.0,0.0,0.0,0.0,0.0,0.0,0.0,0.0,0.0,0.0,0.0,0.0,0.0,0.0,0.0,0.0,0.0,0.0,0.0,0.0,0.0,-2.6825,-2.7699,0.0,0.0,0.0,0.0,0.0,0.0,0.0,0.0,-2.7535,0.0,0.0,0.0,0.0,0.0,0.0,0.0,0.0,0.0,0.0,0.0,0.0,0.0,0.0,0.0,0.0,0.0,0.0,0.0,0.0,0.0,0.0,0.0,0.0,0.0,0.0,0.0,0.0,0.0,0.0,0.0,0.0,0.0,0.0,0.0,0.0,0.0,0.0,0.0,0.0,0.0,0.0,0.0,0.0,0.0,0.0,0.0,0.0,0.0,0.0,0.0,0.0,0.0,0.0,0.0,-3.257,-3.3558,-3.525,-3.7804,-3.8582,-3.8599,-3.7838,-3.6366,-3.4206,0.0,0.0,0.0,0.0,0.0,0.0,0.0,0.0,0.0,0.0,0.0,0.0,0.0,0.0,0.0,0.0,0.0,0.0,0.0,0.0,0.0,0.0,0.0,0.0,0.0,0.0,0.0,0.0,0.0,0.0,0.0,0.0,0.0,0.0,0.0,0.0,0.0,0.0,0.0,0.0,-2.6784,-2.7589,-2.7589,0.0,0.0,0.0,0.0,0.0,0.0,-2.845,-2.8216,0.0,0.0,0.0,0.0,0.0,0.0,0.0,0.0,0.0,0.0,0.0,0.0,0.0,0.0,0.0,0.0,0.0,0.0,0.0,0.0,0.0,0.0,0.0,0.0,0.0,0.0,0.0,0.0,0.0,0.0,0.0,0.0,0.0,0.0,0.0,0.0,0.0,0.0,0.0,0.0,0.0,0.0,0.0,0.0,0.0,0.0,0.0,0.0,0.0,0.0,0.0,0.0,0.0,0.0,0.0,-3.119,-3.322,-3.5385,-3.7567,-3.7838,-3.755,-3.6772,-3.4878,-3.2833,0.0,0.0,0.0,0.0,0.0,0.0,0.0,0.0,0.0,0.0,0.0,0.0,0.0,0.0,0.0,0.0,0.0,0.0,0.0,0.0,0.0,0.0,0.0,0.0,0.0,0.0,0.0,0.0,0.0,0.0,0.0,0.0,0.0,0.0,0.0,0.0,0.0,0.0,0.0,0.0,0.0,-2.7875,-2.758,-2.8434,0.0,0.0,0.0,0.0,-2.9434,-2.9435,0.0,0.0,0.0,0.0,0.0,0.0,0.0,0.0,0.0,0.0,0.0,0.0,0.0,0.0,0.0,0.0,0.0,0.0,0.0,0.0,0.0,0.0,0.0,0.0,0.0,0.0,0.0,0.0,0.0,0.0,0.0,0.0,0.0,0.0,0.0,0.0,0.0,0.0,0.0,0.0,0.0,0.0,0.0,0.0,0.0,0.0,0.0,0.0,0.0,0.0,0.0,0.0,0.0,0.0,0.0,0.0,-3.1157,-3.2713,-3.4624,-3.6806,-3.7567,-3.755,-3.6806,-3.5859,-3.4006,0.0,0.0,0.0,0.0,0.0,0.0,0.0,0.0,0.0,0.0,0.0,0.0,0.0,0.0,0.0,0.0,0.0,0.0,0.0,0.0,0.0,0.0,0.0,0.0,0.0,0.0,0.0,0.0,0.0,0.0,0.0,0.0,0.0,0.0,0.0,0.0,0.0,0.0,0.0,0.0,0.0,-2.973,-2.8466,-2.8949,-2.918,0.0,0.0,-2.9801,-2.9234,-3.1164,0.0,0.0,0.0,0.0,0.0,0.0,0.0,0.0,0.0,0.0,0.0,0.0,0.0,0.0,0.0,0.0,0.0,0.0,0.0,0.0,0.0,0.0,0.0,0.0,0.0,0.0,0.0,0.0,0.0,0.0,0.0,0.0,0.0,0.0,0.0,0.0,0.0,0.0,0.0,0.0,0.0,0.0,0.0,0.0,0.0,0.0,0.0,0.0,0.0,0.0,0.0,0.0,0.0,0.0,0.0,-2.857,-3.1117,-3.2662,-3.4286,-3.6028,-3.6434,-3.6248,-3.5487,-3.3558,-3.1746,0.0,0.0,0.0,0.0,0.0,0.0,0.0,0.0,0.0,0.0,0.0,0.0,0.0,0.0,0.0,0.0,0.0,0.0,0.0,0.0,0.0,0.0,0.0,0.0,0.0,0.0,0.0,0.0,0.0,0.0,0.0,0.0,0.0,0.0,0.0,0.0,0.0,0.0,0.0,0.0,0.0,0.0,-2.8818,-2.9524,0.0,0.0,0.0,-3.1438,-3.2027,0.0,0.0,0.0,0.0,0.0,0.0,0.0,0.0,0.0,0.0,0.0,0.0,0.0,0.0,0.0,0.0,0.0,0.0,0.0,0.0,0.0,0.0,0.0,0.0,0.0,0.0,0.0,0.0,0.0,0.0,0.0,0.0,0.0,0.0,0.0,0.0,0.0,0.0,0.0,0.0,0.0,0.0,0.0,0.0,0.0,0.0,0.0,0.0,0.0,0.0,0.0,0.0,0.0,0.0,0.0,0.0,0.0,-3.119,-3.2662,-3.4032,-3.5284,-3.5351,-3.4979,-3.4201,-3.1732,0.0,0.0,0.0,0.0,0.0,0.0,0.0,0.0,0.0,0.0,0.0,0.0,0.0,0.0,0.0,0.0,0.0,0.0,0.0,0.0,0.0,0.0,0.0,0.0,0.0,0.0,0.0,-2.2581,0.0,0.0,0.0,0.0,0.0,0.0,0.0,0.0,0.0,0.0,0.0,0.0,0.0,0.0,-2.9736,-2.9567,-3.039,-3.1296,0.0,0.0,-3.2961,-3.3691,-3.3698,-3.2963,0.0,0.0,0.0,0.0,0.0,0.0,0.0,0.0,0.0,0.0,0.0,0.0,0.0,0.0,0.0,0.0,0.0,0.0,0.0,0.0,0.0,0.0,0.0,0.0,0.0,0.0,0.0,0.0,0.0,0.0,0.0,0.0,0.0,0.0,0.0,0.0,0.0,0.0,0.0,0.0,0.0,0.0,0.0,0.0,0.0,0.0,0.0,0.0,0.0,0.0,0.0,0.0,0.0,0.0,0.0,-3.1134,-3.2645,-3.3778,-3.4539,-3.4573,-3.4218,-3.3474,-3.1952,-3.0768,0.0,0.0,0.0,0.0,0.0,0.0,0.0,0.0,0.0,0.0,0.0,0.0,0.0,0.0,0.0,0.0,0.0,0.0,0.0,0.0,0.0,0.0,0.0,0.0,0.0,0.0,0.0,0.0,0.0,0.0,0.0,0.0,0.0,0.0,0.0,0.0,0.0,0.0,0.0,0.0,0.0,-3.1839,-3.114,-3.1704,-3.2383,0.0,0.0,-3.4151,-3.2516,-3.6225,-3.7276,-3.1274,0.0,0.0,0.0,0.0,0.0,0.0,0.0,0.0,0.0,0.0,0.0,0.0,0.0,0.0,0.0,0.0,0.0,0.0,0.0,0.0,0.0,0.0,0.0,0.0,0.0,0.0,0.0,0.0,0.0,0.0,0.0,0.0,0.0,0.0,0.0,0.0,0.0,0.0,0.0,0.0,0.0,0.0,0.0,0.0,0.0,0.0,0.0,0.0,0.0,0.0,0.0,0.0,0.0,-2.8399,-3.1173,-3.2205,-3.3305,-3.4421,-3.4489,-3.3931,-3.273,-3.1292,-2.9956,0.0,0.0,0.0,0.0,0.0,0.0,0.0,0.0,0.0,0.0,0.0,0.0,0.0,0.0,0.0,0.0,0.0,0.0,0.0,0.0,0.0,0.0,0.0,0.0,0.0,0.0,0.0,0.0,-2.3562,-2.3833,-2.4289,0.0,0.0,0.0,0.0,0.0,0.0,0.0,0.0,0.0,0.0,-3.2179,-3.3314,-3.3467,0.0,0.0,-3.4735,-3.4809,-3.3916,-3.5274,-3.5278,-3.1773,-3.2082,0.0,0.0,0.0,0.0,0.0,0.0,0.0,0.0,0.0,0.0,0.0,0.0,0.0,0.0,0.0,0.0,0.0,0.0,0.0,0.0,0.0,0.0,0.0,0.0,0.0,0.0,0.0,0.0,0.0,0.0,0.0,0.0,0.0,0.0,0.0,0.0,0.0,0.0,0.0,0.0,0.0,0.0,0.0,0.0,0.0,0.0,0.0,0.0,0.0,0.0,0.0,0.0,-2.8037,-3.0958,-3.208,-3.3119,-3.4167,-3.4167,-3.3457,-3.1985,-3.0751,-2.9499,0.0,0.0,0.0,0.0,0.0,0.0,0.0,0.0,0.0,0.0,0.0,0.0,0.0,0.0,0.0,0.0,0.0,0.0,0.0,0.0,0.0,0.0,0.0,0.0,0.0,0.0,0.0,0.0,-2.4337,-2.4678,-2.5203,0.0,0.0,0.0,0.0,0.0,0.0,0.0,0.0,0.0,0.0,-3.2657,-3.4269,-3.4426,-3.4613,-3.5348,-3.5614,-3.5709,-3.5638,-3.549,-3.4655,-3.2619,0.0,0.0,0.0,0.0,0.0,0.0,0.0,0.0,0.0,0.0,0.0,0.0,0.0,0.0,0.0,0.0,0.0,0.0,0.0,0.0,0.0,0.0,0.0,0.0,0.0,0.0,0.0,0.0,0.0,0.0,-2.364,0.0,0.0,0.0,0.0,0.0,0.0,0.0,0.0,0.0,0.0,0.0,0.0,0.0,0.0,0.0,0.0,0.0,0.0,0.0,0.0,0.0,0.0,-2.8338,-3.0402,-3.232,-3.3355,-3.344,-3.344,-3.2713,-3.1275,-3.0514,-2.9736,-2.8958,0.0,0.0,0.0,0.0,0.0,0.0,0.0,0.0,0.0,0.0,0.0,0.0,0.0,0.0,0.0,0.0,0.0,0.0,0.0,0.0,0.0,0.0,0.0,0.0,0.0,0.0,-2.5558,-2.4915,-2.454,0.0,0.0,0.0,0.0,0.0,0.0,0.0,0.0,0.0,0.0,-3.1703,-3.358,-3.3669,-3.4323,-3.5214,-3.6388,-3.6632,-3.6874,-3.7234,-3.7542,-3.6775,0.0,0.0,0.0,0.0,0.0,0.0,0.0,0.0,0.0,0.0,0.0,0.0,0.0,0.0,0.0,0.0,0.0,0.0,0.0,0.0,0.0,0.0,0.0,0.0,0.0,0.0,0.0,-2.654,-2.7123,0.0,0.0,0.0,0.0,0.0,0.0,0.0,0.0,0.0,0.0,0.0,-2.8817,-2.9799,0.0,0.0,0.0,0.0,0.0,0.0,0.0,0.0,0.0,0.0,0.0,0.0,-2.7405,-3.0286,-3.0935,-3.1935,-3.3339,-3.2916,-3.2188,-3.1224,-3.0497,-2.9516,-2.8247,0.0,0.0,0.0,0.0,0.0,0.0,0.0,0.0,0.0,0.0,0.0,0.0,0.0,0.0,0.0,0.0,0.0,0.0,0.0,0.0,0.0,0.0,0.0,0.0,0.0,-2.6722,0.0,0.0,0.0,0.0,0.0,0.0,0.0,0.0,0.0,0.0,0.0,-3.0177,-3.1678,-3.2954,-3.4141,-3.5229,-3.5303,-3.5254,0.0,0.0,0.0,0.0,0.0,0.0,0.0,0.0,0.0,0.0,0.0,0.0,0.0,0.0,-4.0068,-3.5462,-3.4182,-3.3872,-3.4105,0.0,0.0,0.0,0.0,0.0,0.0,0.0,0.0,0.0,0.0,0.0,0.0,0.0,0.0,-2.7837,0.0,-2.7917,0.0,0.0,0.0,0.0,0.0,0.0,0.0,0.0,-2.8702,-3.0168,-3.051,-3.1465,-3.2076,0.0,-3.165,-3.0418,0.0,0.0,0.0,0.0,0.0,0.0,0.0,0.0,-2.7352,-2.9575,-3.07,-3.1833,-3.2933,-3.2797,-3.2205,-3.1224,-3.0226,-2.9262,-2.8264,-2.7029,-2.6607,0.0,0.0,0.0,0.0,0.0,0.0,0.0,0.0,0.0,0.0,0.0,0.0,0.0,0.0,0.0,0.0,0.0,0.0,0.0,0.0,0.0,0.0,0.0,-2.7303,0.0,0.0,0.0,0.0,0.0,0.0,0.0,0.0,0.0,-2.9276,-2.9776,-3.0794,-3.2783,-3.347,-3.4211,-3.5275,0.0,0.0,0.0,0.0,0.0,0.0,0.0,-3.6775,-3.6808,-3.7744,-3.8442,-3.8377,-3.9863,-4.1006,-4.0718,0.0,0.0,-3.7838,-3.6726,-3.6446,-3.6775,-3.6845,-3.6977,-3.7354,-3.7432,-3.7376,0.0,0.0,0.0,0.0,0.0,0.0,0.0,0.0,-2.6969,-2.8259,0.0,-2.8592,0.0,0.0,0.0,0.0,0.0,-2.8522,0.0,0.0,-3.054,-3.1815,-3.2266,-3.1749,-3.1749,-3.2374,-3.3051,-3.2628,-3.1061,-2.7996,0.0,0.0,0.0,0.0,0.0,0.0,-2.8196,-2.8362,-3.1489,-3.2949,-3.2381,-3.2949,-3.2628,-3.119,-2.977,-2.9008,-2.8943,-2.8163,-2.7789,-2.7823,-2.8569,0.0,0.0,0.0,0.0,0.0,0.0,0.0,0.0,0.0,0.0,0.0,0.0,0.0,0.0,0.0,0.0,0.0,0.0,0.0,0.0,-2.7334,0.0,0.0,0.0,0.0,0.0,0.0,0.0,0.0,0.0,0.0,-3.0884,-3.0966,-3.1365,-3.2562,0.0,0.0,0.0,0.0,-3.5275,-3.6113,-3.6967,-3.801,-3.9488,-3.9376,-3.91,-3.917,0.0,0.0,-4.0056,-4.0671,-4.0997,-4.0209,-4.0809,-4.164,-4.3074,-4.1838,-4.1001,-4.1324,-4.0251,-3.9577,-4.0078,-4.0234,-4.0099,-3.2517,0.0,0.0,0.0,0.0,-3.0609,-3.1687,-3.2561,-3.2297,-3.262,-3.3261,-3.165,0.0,0.0,0.0,0.0,0.0,0.0,-3.056,-3.0124,-3.3561,-3.4521,-3.3278,-3.4566,-3.4726,-3.3863,-3.3558,-3.2899,-3.1952,-3.0493,-2.8959,-2.7355,0.0,0.0,0.0,0.0,-2.791,-2.9029,-3.0365,-3.1444,-3.2297,-3.1985,-3.1376,-3.0446,-3.0006,-2.9262,-2.8213,-2.7908,-2.8078,-2.8636,-2.8856,0.0,0.0,0.0,0.0,0.0,0.0,0.0,0.0,0.0,0.0,0.0,0.0,0.0,0.0,0.0,0.0,0.0,0.0,0.0,-2.8039,-2.788,-2.8063,0.0,0.0,0.0,0.0,0.0,0.0,0.0,0.0,0.0,-3.2775,-3.2464,-3.2655,0.0,0.0,-3.4009,-3.4596,-3.4844,-3.5064,-3.533,-3.6578,0.0,-3.8089,-3.9008,-3.9685,-3.9685,-4.0818,-4.1876,-4.2396,-4.2653,-4.2727,-4.2466,-4.2669,-4.2999,-4.3272,-4.22,-4.1406,-4.179,-4.2001,-4.2323,-4.2948,-4.3096,-4.3037,-3.5679,-3.3311,-3.271,-3.2353,-3.2253,-3.3311,-3.4113,-3.4647,-3.4526,-3.4996,-3.574,-3.4252,-3.3489,-3.3284,-3.264,0.0,0.0,0.0,-3.2934,-3.2714,-3.5467,-3.6279,-3.5432,-3.6632,-3.6738,-3.5842,-3.5402,-3.4641,-3.3609,-3.3169,-3.1898,-2.9855,0.0,0.0,-2.6792,-2.7765,-2.8715,-2.9599,-3.0494,-3.1258,-3.1833,-3.114,-3.0565,-3.0125,-2.982,-2.9228,-2.8315,-2.7977,-2.818,-2.8941,-2.9011,-2.9533,0.0,0.0,0.0,0.0,0.0,0.0,0.0,0.0,0.0,0.0,0.0,-2.9016,-2.8048,0.0,0.0,0.0,-2.7941,-2.8362,-2.9069,-2.8766,0.0,0.0,0.0,0.0,0.0,0.0,0.0,-3.2247,-3.2344,-3.2706,-3.366,-3.3385,-3.344,-3.4412,-3.4394,-3.4468,-3.4935,0.0,-3.5752,-3.6366,-3.7331,-3.8322,-3.9268,-4.0217,-4.0946,-4.1277,-4.2084,-4.2873,-4.3369,-4.3479,-4.3479,-4.3479,-4.3479,-4.3479,-4.3479,-4.2679,-4.2253,-4.2927,-4.3492,-4.4033,-4.4689,-4.4797,-4.4816,-3.8136,-3.8058,-3.6721,-3.5622,-3.4844,-3.5571,-3.5487,-3.4861,-3.4878,-3.5994,-3.777,-3.6349,-3.6468,-3.7618,-3.6248,0.0,-3.4709,-3.547,-3.5763,-3.5825,-3.6654,-3.7347,-3.7889,-3.7956,-3.7956,-3.7905,-3.7922,-3.7144,-3.574,-3.569,-3.459,-3.2517,-3.1123,-3.0023,-2.9282,-2.9905,-3.0277,-3.0311,-3.1596,-3.1918,-3.1207,-3.048,-3.0074,-3.0023,-2.9347,-2.896,-2.8772,-2.8163,-2.8163,-2.8839,-2.8994,-2.9313,-3.0074,0.0,0.0,0.0,0.0,0.0,0.0,0.0,0.0,0.0,0.0,0.0,0.0,0.0,0.0,0.0,-2.8607,0.0,-3.0204,-2.993,0.0,0.0,0.0,-3.1147,-3.121,-3.2228,-3.2908,-3.2908,0.0,0.0,-3.399,-3.399,-3.4009,-3.399,-3.4578,-3.5027,-3.5064,-3.5862,-3.6927,-3.8212,-3.8744,-3.968,-4.1479,-4.2121,-4.2525,-4.3149,-4.3479,-4.3442,-4.3479,-4.3479,-4.3479,-4.3479,-4.3479,-4.3479,-4.3479,-4.3424,-4.3712,-4.4317,-4.4523,-4.4762,-4.5323,-4.5491,-4.549,-4.0912,-4.0443,-4.0629,-3.9309,-3.7161,-3.7872,-3.8091,-3.7939,-3.7905,-3.7922,-3.7855,-3.6907,-3.6383,-3.6146,-3.5791,-3.5842,-3.6265,-3.7009,-3.7364,-3.7449,-3.87,-3.8802,-3.7956,-3.8481,-3.8447,-3.7939,-3.7922,-3.7432,-3.6535,-3.6502,-3.5639,-3.4032,-3.3626,-3.251,-3.0768,-3.1393,-3.1765,-3.1749,-3.2104,-3.1935,-3.119,-3.048,-2.9837,-2.9262,-2.9076,-2.8433,-2.73,-2.7621,-2.7857,-2.8095,-2.8653,-2.933,-3.0074,-3.0801,0.0,0.0,0.0,0.0,0.0,0.0,0.0,0.0,0.0,-3.1244,-3.0027,0.0,-3.0539,0.0,-3.0304,-3.0513,-3.1066,-3.0792,0.0,0.0,-3.251,-3.3071,-3.3945,-3.4834,-3.5422,-3.5422,-3.5569,-3.5697,-3.5697,-3.5697,-3.5697,-3.5697,-3.5293,-3.521,-3.5881,-3.6688,-3.7312,-3.79,-3.9368,-4.0726,-4.1405,-4.2451,-4.3259,-4.3461,-4.3479,-4.3479,-4.3479,-4.3479,-4.3479,-4.3479,-4.3479,-4.3479,-4.3479,-4.3479,-4.3646,-4.4046,-4.4392,-4.4726,-4.514,-4.54,-4.5586,-4.2049,-4.1728,-4.2117,-4.1339,-3.9884,-4.029,-4.0273,-3.9969,-3.9986,-3.9563,-3.8853,-3.8478,-3.8007,-3.7618,-3.7601,-3.7838,-3.8278,-3.8684,-3.8886,-3.892,-3.9715,-3.9648,-3.8903,-3.9276,-3.9259,-3.887,-3.8886,-3.8497,-3.7804,-3.777,-3.7178,-3.6028,-3.5673,-3.4912,-3.3694,-3.3085,-3.2933,-3.3254,-3.229,-3.1596,-3.119,-3.0159,-2.9567,-2.9465,-2.8805,-2.823,-2.774,-2.7774,-2.8093,-2.8769,-2.8924,-2.9465,-3.0531,-3.097,-3.1343,0.0,0.0,0.0,0.0,0.0,0.0,0.0,0.0,0.0,0.0,0.0,-3.1476,-3.1156,-3.1128,-3.1352,-3.1873,-3.1762,-3.2183,-3.3523,-3.3899,-3.4436,-3.5467,-3.6321,-3.6817,-3.6817,-3.6817,-3.6835,-3.6835,-3.6523,-3.6285,-3.6303,-3.6193,-3.6285,-3.678,-3.7514,-3.8248,-3.9038,-4.0249,-4.1405,-4.2029,-4.2892,-4.3479,-4.3479,-4.3479,-4.3479,-4.3479,-4.3479,-4.3479,-4.3479,-4.3479,-4.3479,-4.3479,-4.3479,-4.3563,-4.3758,-4.4076,-4.4447,-4.4825,-4.503,-4.5182,-4.2523,-4.2455,-4.254,-4.2591,-4.2591,-4.2591,-4.2117,-4.1339,-4.1136,-4.0696,-4.0087,-4.0087,-4.0087,-4.0087,-4.0087,-4.0087,-4.0087,-4.0087,-4.0087,-4.0087,-4.0087,-4.0087,-4.0087,-4.0087,-4.0087,-4.0087,-4.0087,-3.9715,-3.9005,-3.8988,-3.8616,-3.7905,-3.7246,-3.6907,-3.684,-3.4861,-3.4015,-3.432,-3.2459,-3.1444,-3.1326,-2.9871,-2.9431,-3.0006,-2.8535,-2.7994,-2.8672,-2.8129,-2.8399,-2.9567,-2.9313,-2.9668,-3.0835,-3.1089,-3.1512,0.0,-3.2313,0.0,0.0,0.0,0.0,0.0,0.0,0.0,0.0,-3.2552,-3.2246,-3.1891,-3.177,-3.199,-3.2687,-3.2761,-3.333,-3.466,-3.5045,-3.5467,-3.6229,-3.7092,-3.7672,-3.7643,-3.7551,-3.7514,-3.7588,-3.6945,-3.6468,-3.6707,-3.7202,-3.7569,-3.7679,-3.8212,-3.9111,-4.0653,-4.1001,-4.1607,-4.2965,-4.3424,-4.3479,-4.3479,-4.3479,-4.3479,-4.3479,-4.3479,-4.3479,-4.3479,-4.3479,-4.3479,-4.3479,-4.3479,-4.3479,-4.3513,-4.3758,-4.4076,-4.4419,-4.4606,-4.4682,-4.3792,-4.3284,-4.3893,-4.4147,-4.4147,-4.4147,-4.3352,-4.1999,-4.0798,-4.0223,-4.0087,-4.0087,-4.0087,-4.0087,-4.0087,-4.0087,-4.0087,-4.0087,-4.0087,-4.0087,-4.0087,-4.0087,-4.0087,-4.0087,-4.0087,-4.0087,-4.0087,-3.9698,-3.8988,-3.8988,-3.8633,-3.7922,-3.777,-3.7686,-3.7635,0.0,0.0,0.0,-3.3203,-3.2696,-3.2053,-3.0649,-2.9956,-3.0057,-2.8027,0.0,-2.7131,-2.7571,-2.7655,-2.7418,-2.8975,0.0,0.0,0.0,0.0,0.0,0.0,0.0,0.0,0.0,0.0,0.0,-3.4429,-3.4462,-3.4932,-3.4684,-3.4403,-3.4312,-3.3733,-3.3403,-3.3568,-3.3568,-3.3678,-3.4027,-3.5238,-3.6119,-3.634,-3.7588,-3.8469,-3.8469,-3.79,-3.7753,-3.8285,-3.7753,-3.7514,-3.8065,-3.8358,-3.8469,-3.845,-3.8579,-3.8836,-3.9203,-4.0359,-4.168,-4.324,-4.3479,-4.3479,-4.3479,-4.3479,-4.3479,-4.3479,-4.3479,-4.3479,-4.3479,-4.3479,-4.3479,-4.3479,-4.3479,-4.3479,-4.3479,-4.3582,-4.3693,-4.4046,-4.4392,-4.4624,-4.435,0.0,-4.4418,-4.457,0.0,-4.4181,-4.3792,-4.3335,-4.2219,-4.1322,-4.0595,-4.024,-4.0087,-4.0087,-4.0087,-4.0087,-4.0087,-4.0087,-4.0087,-4.0087,-4.0087,-4.0087,-4.0087,-4.0087,-4.0087,-4.0087,-4.0087,-3.9901,-3.9546,-3.9546,-3.9343,-3.8971,-3.8616,-3.8447,-3.8396,-3.6958,-3.547,-3.3947,-3.3592,-3.3051,-3.229,-3.1207,-3.0632,-3.0598,-2.8805,0.0,0.0,0.0,0.0,0.0,0.0,0.0,0.0,0.0,0.0,-3.3288,-3.3372,-3.3694,-3.4421,-3.4506,-3.4797,-3.5535,-3.6042,-3.6227,-3.5988,-3.5747,-3.5661,-3.5624,-3.489,-3.4412,-3.4394,-3.4045,-3.3972,-3.4394,-3.5532,-3.6431,-3.6909,-3.7955,-3.8689,-3.867,-3.834,-3.8267,-3.8652,-3.8377,-3.8267,-3.8634,-3.8707,-3.8707,-3.8707,-3.8707,-3.8909,-3.9753,-4.0855,-4.2103,-4.3185,-4.3479,-4.3479,-4.3479,-4.3479,-4.3479,-4.3479,-4.3479,-4.3479,-4.3479,-4.3479,-4.3479,-4.3479,-4.3479,-4.3479,-4.3479,-4.3479,-4.3548,-4.3726,-4.3931,-4.4125,-4.4773,-4.4756,-4.4637,-4.457,-4.4519,-4.3893,-4.3995,-4.4536,0.0,0.0,0.0,-4.0544,-4.0206,-4.0087,-4.0087,-4.0087,-4.0087,-4.0087,-4.0087,-4.0087,-4.0087,-4.0087,-4.0087,-4.0087,-4.0087,-4.0087,-4.0087,-4.0087,-4.0087,-4.0087,-4.0087,-4.0037,-3.9462,-3.9123,-3.887,-3.7026,-3.5656,-3.4895,-3.4049,-3.3305,-3.2703,-3.1833,-3.1393,-3.1376,-2.982,-2.933,-3.0074,-2.9634,-2.9668,-3.0277,-3.0548,-3.1173,-3.2205,-3.2408,-3.3085,-3.4353,-3.4489,-3.481,-3.5554,-3.5639,-3.581,-3.6374,-3.7305,-3.7504,-3.6644,-3.6549,-3.6505,-3.6505,-3.5734,-3.5229,-3.521,-3.4651,-3.4504,-3.5155,-3.6009,-3.678,-3.7422,-3.8212,-3.8707,-3.8707,-3.8542,-3.8542,-3.867,-3.8524,-3.856,-3.867,-3.8707,-3.8707,-3.8707,-3.8707,-3.9258,-4.0689,-4.1479,-4.2323,-4.3222,-4.3479,-4.3479,-4.3479,-4.3479,-4.3479,-4.3479,-4.3479,-4.3479,-4.3479,-4.3479,-4.3479,-4.3479,-4.3479,-4.3479,-4.3479,-4.3479,-4.3479,-4.3479,-4.3479,-4.3612,-4.5534,-4.55,-4.4857,-4.457,-4.457,-4.4468,-4.4485,-4.4502,-4.3758,-4.2591,-4.1204,-4.1085,-4.0696,-4.0087,-4.0087,-4.0087,-4.0087,-4.0087,-4.0087,-4.0087,-4.0087,-4.0087,-4.0087,-4.0087,-4.0087,-4.0087,-4.0087,-4.0087,-4.0087,-4.0087,-4.0087,-4.007,-3.9969,-3.9614,-3.8971,-3.8058,-3.7212,-3.6451,-3.5064,-3.4286,-3.4167,-3.2848,-3.2178,-3.2036,-3.0146,-2.933,-3.0074,-3.0615,-3.0937,-3.1055,-3.2256,-3.2747,-3.2341,-3.2899,-3.3626,-3.4404,-3.4489,-3.4827,-3.5571,-3.5639,-3.581,-3.6374,-3.736,-3.7837,-3.7688,-3.7478,-3.7312,-3.7323,-3.6578,-3.6119,-3.6101,-3.5973,-3.5881,-3.6101,-3.6835,-3.7367,-3.7514,-3.8212,-3.8707,-3.8689,-3.8083,-3.7991,-3.8542,-3.8157,-3.8046,-3.8542,-3.8707,-3.8707,-3.8707,-3.8707,-3.9386,-4.0689,-4.1185,-4.1901,-4.3039,-4.3479,-4.3442,-4.3479,-4.3479,-4.3479,-4.3479,-4.3479,-4.3479,-4.3479,-4.3479,-4.3479,-4.3479,-4.3479,-4.3479,-4.3479,-4.3479,-4.3479,-4.3479,-4.3479,-4.3513,-4.5466,-4.5077,-4.4722,-4.457,-4.457,-4.457,-4.457,-4.4553,-4.4215,-4.32,-4.1813,-4.139,-4.0781,-4.0104,-4.0087,-4.0087,-4.0087,-4.0087,-4.0087,-4.0087,-4.0087,-4.0087,-4.0087,-4.0087,-4.0087,-4.0087,-4.0087,-4.0087,-4.0087,-4.0087,-4.0087,-4.0087,-4.0087,-3.9715,-3.9005,-3.8667,-3.8125,-3.7398,-3.6299,-3.5318,-3.4506,-3.3829,-3.3288,-3.2899,-3.1867,-3.1529,-3.1884,-3.2222,-3.2391,-3.2408,-3.3034,-3.3423,-3.3491,-3.3812,-3.4336,-3.5047,-3.5115,-3.525,-3.5588,-3.5639,-3.5694,-3.5985,-3.6943,-3.7506,-3.7506,-3.7907,-3.8157,-3.812,-3.7404,-3.6927,-3.6927,-3.656,-3.6285,-3.6285,-3.7,-3.7477,-3.7569,-3.8212,-3.8689,-3.867,-3.8395,-3.8303,-3.8652,-3.8377,-3.8248,-3.8652,-3.8707,-3.8707,-3.8726,-3.9093,-3.957,-4.0286,-4.0451,-4.1148,-4.2543,-4.2855,-4.302,-4.3406,-4.3479,-4.3479,-4.3479,-4.3479,-4.3479,-4.3479,-4.3479,-4.3479,-4.3479,-4.3479,-4.3479,-4.3479,-4.3479,-4.3479,-4.3479,-4.3479,-4.3479,-4.5771,-4.5077,-4.4908,-4.4739,-4.457,-4.457,-4.457,-4.457,-4.457,-4.3809,-4.2557,-4.1779,-4.1035,-4.0375,-4.0324,-4.0426,-4.0561,-4.0578,-4.0578,-4.0561,-4.0409,-4.0324,-4.0307,-4.0172,-4.0087,-4.0087,-4.0087,-4.0087,-4.0087,-4.0087,-4.0087,-4.0087,-4.0087,-3.98,-3.9242,-3.9242,-3.8886,-3.8159,-3.7415,-3.6383,-3.5064,-3.4675,-3.4218,-3.3711,-3.3474,-3.3474,-3.3626,-3.3643,-3.3728,-3.3897,-3.3897,-3.415,-3.4692,-3.4742,-3.5013,-3.5554,-3.5639,-3.5639,-3.5639,-3.5639,-3.5639,-3.5622,-3.6481,-3.7076,-3.7266,-3.8016,-3.8596,-3.8603,-3.812,-3.7753,-3.7716,-3.7257,-3.6835,-3.6872,-3.7386,-3.779,-3.7826,-3.834,-3.8707,-3.8707,-3.8707,-3.8689,-3.8707,-3.8707,-3.8689,-3.867,-3.8707,-3.8707,-3.8781,-3.9386,-3.9845,-3.9987,-4.0189,-4.1075,-4.2304,-4.2616,-4.2892,-4.3424,-4.3479,-4.3479,-4.3479,-4.3479,-4.3479,-4.3479,-4.3479,-4.3479,-4.3479,-4.3479,-4.3479,-4.3479,-4.3479,-4.3479,-4.3479,-4.3479,-4.3479,-4.7242,-4.6532,-4.5838,-4.5213,-4.4604,-4.457,-4.457,-4.457,-4.457,-4.4113,-4.3234,-4.2523,-4.1779,-4.117,-4.1102,-4.1424,-4.1999,-4.2083,-4.2049,-4.1948,-4.1407,-4.1085,-4.1001,-4.0392,-4.0087,-4.0087,-4.0087,-4.0087,-4.0087,-4.0087,-4.0087,-4.0087,-4.0087,-4.0037,-3.9969,-3.9969,-3.9614,-3.8903,-3.8176,-3.7398,-3.6552,-3.5216,-3.4472,-3.4387,-3.3761,-3.3728,-3.4353,-3.4387,-3.4709,-3.5334,-3.5368,-3.5419,-3.5504,-3.552,-3.5554,-3.5611,-3.5656,-3.5639,-3.5656,-3.5639,-3.569,-3.5667,-3.6191,-3.6719,-3.7188,-3.7649,-3.8183,-3.851,-3.8585,-3.8524,-3.8579,-3.845,-3.8322,-3.8267,-3.8414,-3.8579,-3.856,-3.8652,-3.8707,-3.8707,-3.8707,-3.8707,-3.8707,-3.8707,-3.8707,-3.8707,-3.8707,-3.8707,-3.8762,-3.9368,-3.9895,-4.0129,-4.1029,-4.2213,-4.3039,-4.3369,-4.3296,-4.3424,-4.3479,-4.3479,-4.3479,-4.3479,-4.3479,-4.3479,-4.3479,-4.3479,-4.3479,-4.3479,-4.3479,-4.3479,-4.3479,-4.3479,-4.3479,-4.3479,-4.3479,-4.7479,-4.6718,-4.6007,-4.528,-4.4621,-4.457,-4.457,-4.457,-4.457,-4.4147,-4.3436,-4.3081,-4.254,-4.1863,-4.1847,-4.2016,-4.2286,-4.2303,-4.2303,-4.2219,-4.1542,-4.1204,-4.1119,-4.0426,-4.0087,-4.0087,-4.0087,-4.0087,-4.0087,-4.0087,-4.0087,-4.0087,-4.0087,-4.0087,-4.0087,-4.0087,-3.9968,-3.9614,-3.892,-3.8396,-3.7905,-3.6163,-3.5165,-3.5131,-3.4878,-3.4844,-3.5131,-3.5148,-3.5301,-3.5605,-3.5639,-3.5842,-3.6282,-3.6299,-3.6502,-3.6924,-3.6975,-3.6975,-3.6958,-3.6975,-3.6975,-3.6975,-3.7024,-3.7158,-3.737,-3.77,-3.8032,-3.8216,-3.8496,-3.8707,-3.8707,-3.8707,-3.8707,-3.8707,-3.8707,-3.8707,-3.8707,-3.8707,-3.8707,-3.8707,-3.8707,-3.8707,-3.8707,-3.8707,-3.8707,-3.8707,-3.8707,-3.8707,-3.8744,-3.9386,-3.9827,-4.0097,-4.1258,-4.2268,-4.276,-4.2815,-4.3002,-4.3351,-4.3479,-4.3479,-4.3479,-4.3479,-4.3479,-4.3479,-4.3479,-4.3479,-4.3479,-4.3479,-4.3479,-4.3479,-4.3479,-4.3479,-4.3479,-4.3479,-4.3479,-4.7784,-4.7022,-4.6092,-4.5399,-4.4874,-4.4654,-4.457,-4.457,-4.457,-4.4265,-4.3775,-4.3741,-4.3436,-4.2946,-4.2692,-4.2692,-4.2895,-4.2912,-4.2912,-4.2844,-4.2151,-4.183,-4.1745,-4.1052,-4.0578,-4.0426,-4.0409,-4.029,-4.0121,-4.0087,-4.0087,-4.0087,-4.0087,-4.0087,-4.0087,-4.0087,-4.0087,-4.0003,-3.936,-3.8988,-3.8734,-3.7195,-3.6248,-3.6231,-3.6028,-3.6028,-3.6231,-3.6045,-3.6045,-3.6248,-3.6265,-3.6502,-3.7043,-3.7094,-3.733,-3.7838,-3.7922,-3.7922,-3.7922,-3.7922,-3.7922,-3.7902,-3.7712,-3.7654,-3.7835,-3.7976,-3.8222,-3.8579,-3.8888,-3.9067,-3.8726,-3.8707,-3.8707,-3.8707,-3.8872,-3.8964,-3.8762,-3.8854,-3.8982,-3.8762,-3.8707,-3.8707,-3.8707,-3.8707,-3.8707,-3.8707,-3.8707,-3.8707,-3.8872,-3.9533,-4.0249,-4.0299,-4.1622,-4.2433,-4.2378,-4.2635,-4.2892,-4.3204,-4.3479,-4.3479,-4.3479,-4.3479,-4.3479,-4.3479,-4.3479,-4.3479,-4.3479,-4.3479,-4.3479,-4.3479,-4.3479,-4.3479,-4.3479,-4.3479,-4.3479,-4.8528,-4.7682,-4.6329,-4.5737,-4.5618,-4.4959,-4.4621,-4.4722,-4.4621,-4.4553,-4.4587,-4.4519,-4.4519,-4.4434,-4.3809,-4.3792,-4.4367,-4.435,-4.4333,-4.4265,-4.3572,-4.3284,-4.3284,-4.2557,-4.1813,-4.1187,-4.1136,-4.0832,-4.0223,-4.0121,-4.0087,-4.0104,-4.0104,-4.0087,-4.0087,-4.0087,-4.0087,-4.0003,-3.9411,-3.9022,-3.8937,-3.8227,-3.7804,-3.7736,-3.711,-3.7043,-3.7567,-3.7094,-3.7043,-3.7753,-3.7719,-3.7787,-3.7855,-3.7872,-3.7939,-3.799,-3.7973,-3.7973,-3.8007,-3.8041,-3.8041,-3.7973,-3.797,-3.8069,-3.8422,-3.8512,-3.8854,-3.993,-3.9878,-3.9623,-3.8967,-3.897,-3.8891,-3.8836,-3.9405,-3.9405,-3.8781,-3.9258,-3.9405,-3.8891,-3.8707,-3.8707,-3.8707,-3.8707,-3.8707,-3.8707,-3.8707,-3.8744,-3.8982,-4.0047,-4.068,-4.1167,-4.2073,-4.3114,-4.2548,-4.2619,-4.313,-4.3296,-4.3222,-4.3387,-4.3461,-4.3479,-4.3461,-4.3479,-4.3479,-4.3479,-4.3479,-4.3479,-4.3479,-4.3479,-4.3479,-4.3479,-4.3479,-4.3479,-4.3479,-4.8578,-4.7885,-4.7361,-4.6853,-4.638,-4.6092,-4.6007,-4.5957,-4.5483,-4.5585,-4.5855,-4.5517,-4.5551,-4.5991,-4.5703,-4.5196,-4.4604,-4.457,-4.457,-4.4485,-4.3775,-4.3403,-4.3335,-4.2642,-4.2185,-4.1931,-4.1897,-4.1762,-4.1474,-4.1035,-4.0798,-4.0696,-4.0307,-4.0087,-4.0087,-4.0087,-4.0087,-4.0104,-3.98,-3.9698,-3.9648,-3.9428,-3.9292,-3.9225,-3.8125,-3.7618,-3.7905,-3.7635,-3.7635,-3.7905,-3.7922,-3.8125,-3.8582,-3.9039,-3.9292,-3.9292,-3.9292,-3.9292,-3.9292,-3.9292,-3.9292,-3.9276,-3.8853,-3.8696,-3.8781,-3.8711,-3.8764,-3.9147,-3.9554,-3.9564,-3.9804,-3.9999,-4.0029,-3.9606,-3.9698,-3.9643,-3.8964,-3.8964,-3.9001,-3.8762,-3.8707,-3.8707,-3.8707,-3.8707,-3.8707,-3.8707,-3.8707,-3.8891,-3.9294,-3.9643,-3.9987,-4.0772,-4.1126,-4.1295,-4.1647,-4.2179,-4.2708,-4.2708,-4.269,-4.2671,-4.2727,-4.313,-4.3222,-4.3296,-4.3351,-4.3424,-4.3424,-4.3479,-4.3479,-4.3479,-4.3479,-4.3479,-4.3479,-4.3479,-4.3479,-4.8731,-4.8274,-4.802,-4.7631,-4.7158,-4.6887,-4.6786,-4.6701,-4.6024,-4.6109,-4.6566,-4.6024,-4.6109,-4.6701,-4.6786,-4.6295,-4.5348,-4.5297,-4.5162,-4.4908,-4.4401,-4.4028,-4.3741,-4.3267,-4.2895,-4.2642,-4.2388,-4.2303,-4.2252,-4.1796,-4.1441,-4.117,-4.0679,-4.0307,-4.0138,-4.0087,-4.0087,-4.0087,-4.0087,-4.007,-4.0087,-4.0087,-4.0087,-3.9952,-3.9106,-3.8616,-3.8599,-3.8379,-3.8396,-3.8565,-3.8599,-3.8836,-3.9343,-3.98,-4.0087,-4.0087,-4.007,-4.0087,-4.0087,-4.0087,-4.007,-4.007,-3.9648,-3.9343,-3.9342,-3.9187,-3.9175,-3.9361,-3.9626,-4.0135,-4.0883,-4.1396,-4.1257,-4.0547,-4.0506,-4.0341,-3.9625,-3.9496,-3.9258,-3.8872,-3.8982,-3.8982,-3.8762,-3.8707,-3.8707,-3.8707,-3.8707,-3.8964,-3.9276,-3.9386,-3.9381,-4.0446,-4.0593,-4.0777,-4.096,-4.1434,-4.1754,-4.1809,-4.1901,-4.1919,-4.2066,-4.2543,-4.2947,-4.3075,-4.3204,-4.3296,-4.3387,-4.3461,-4.3479,-4.3479,-4.3479,-4.3479,-4.3479,-4.3479,-4.3479,-4.8984,-4.8849,-4.8223,-4.797,-4.7834,-4.7259,-4.687,-4.6853,-4.6177,-4.6363,-4.6955,-4.6177,-4.638,-4.6819,-4.7056,-4.6853,-4.6819,-4.6802,-4.6397,-4.5754,-4.5585,-4.5179,-4.4587,-4.4401,-4.4012,-4.342,-4.2709,-4.2405,-4.2489,-4.2354,-4.1982,-4.1373,-4.1187,-4.073,-4.0087,-4.0087,-4.0087,-4.0087,-4.0087,-4.0087,-4.0087,-4.0087,-4.0087,-4.0087,-3.9952,-3.9901,-3.9952,-3.9343,-3.9276,-3.9851,-3.9952,-4.0037,-3.9969,-4.007,-4.0087,-4.0087,-4.0087,-4.0087,-4.0087,-4.0087,-4.0087,-4.007,-4.0104,-3.9952,-3.9968,-3.9985,-4.0097,-4.0427,-4.0631,-4.12,-4.2145,-4.242,-4.2104,-4.1379,-4.1625,-4.1662,-4.1148,-4.1001,-4.0487,-3.9313,-3.9405,-3.9496,-3.9019,-3.9001,-3.9074,-3.9056,-3.9019,-3.9074,-3.9294,-3.9533,-3.9803,-4.0197,-4.0459,-4.0685,-4.0638,-4.0578,-4.0735,-4.0873,-4.102,-4.1111,-4.1277,-4.1644,-4.2304,-4.2543,-4.2986,-4.3114,-4.3424,-4.3479,-4.3479,-4.3479,-4.3479,-4.3479,-4.3479,-4.3479,-4.3479,-4.9018,-4.8984,-4.8765,-4.8663,-4.8629,-4.8409,-4.8325,-4.824,-4.7547,-4.7648,-4.8088,-4.7547,-4.7631,-4.8189,-4.8325,-4.8291,-4.8325,-4.8274,-4.7648,-4.6566,-4.5957,-4.5618,-4.528,-4.4823,-4.4451,-4.4215,-4.3995,-4.3842,-4.3741,-4.3318,-4.2692,-4.2016,-4.1441,-4.0815,-4.0121,-4.0087,-4.0087,-4.0087,-4.0087,-4.0087,-4.0087,-4.0087,-4.0087,-4.0087,-4.0087,-4.0087,-4.007,-3.9868,-3.9851,-4.007,-4.0087,-4.0087,-4.0087,-4.0087,-4.0087,-4.0087,-4.0087,-4.0087,-4.0087,-4.0087,-4.0087,-4.0087,-4.0087,-4.0087,-4.0087,-4.0087,-4.0171,-4.0368,-4.0368,-4.0814,-4.1768,-4.2062,-4.2034,-4.1928,-4.2158,-4.2029,-4.1295,-4.0726,-4.0396,-4.0359,-4.0102,-4.001,-4.0267,-4.0322,-4.023,-4.0249,-4.0249,-4.0267,-4.0304,-4.0029,-4.0483,-4.1282,-4.1103,-4.0813,-4.0979,-4.0809,-4.0538,-4.0469,-4.0432,-4.0487,-4.0616,-4.0928,-4.157,-4.2268,-4.2693,-4.3078,-4.3369,-4.3479,-4.3479,-4.3479,-4.3479,-4.3479,-4.3479,-4.3479,-4.3479,-4.9018,-4.9018,-4.9018,-4.9018,-4.9018,-4.9018,-4.9001,-4.89,-4.8223,-4.8325,-4.8748,-4.8223,-4.8325,-4.89,-4.9018,-4.9018,-4.9018,-4.9018,-4.8511,-4.7597,-4.687,-4.6278,-4.5703,-4.4925,-4.457,-4.457,-4.457,-4.457,-4.4553,-4.4079,-4.3318,-4.2354,-4.183,-4.1085,-4.0189,-4.0087,-4.0087,-4.0087,-4.0087,-4.0087,-4.0087,-4.0087,-4.0087,-4.0087,-4.0087,-4.0087,-4.0087,-4.0087,-4.0087,-4.0087,-4.0087,-4.0087,-4.0087,-4.0087,-4.0087,-4.0087,-4.0087,-4.0087,-4.0087,-4.0087,-4.0087,-4.0087,-4.0087,-4.0087,-4.0087,-4.0087,-4.0087,-4.0087,-4.0121,-4.0546,-4.1534,-4.181,-4.2074,-4.2697,-4.2763,-4.2396,-4.1699,-4.1387,-4.1075,-4.1148,-4.0928,-4.0946,-4.1038,-4.1097,-4.1097,-4.1097,-4.1097,-4.1097,-4.1038,-4.0671,-4.1232,-4.1521,-4.1103,-4.1126,-4.1556,-4.1152,-4.0487,-4.0175,-3.9937,-3.9974,-4.0029,-4.0469,-4.1038,-4.2154,-4.2815,-4.3204,-4.3479,-4.3479,-4.3479,-4.3479,-4.3479,-4.3479,-4.3479,-4.3479,-4.3479,-4.9052,-4.9018,-4.9018,-4.9018,-4.9018,-4.9018,-4.9018,-4.89,-4.8342,-4.8426,-4.8765,-4.8376,-4.8409,-4.8917,-4.9018,-4.9018,-4.9018,-4.9001,-4.8968,-4.868,-4.8105,-4.7192,-4.5771,-4.4925,-4.4587,-4.457,-4.457,-4.457,-4.457,-4.4485,-4.3826,-4.2557,-4.2354,-4.161,-4.0527,-4.0172,-4.0172,-4.0087,-4.0087,-4.0087,-4.0087,-4.0087,-4.0087,-4.0087,-4.0087,-4.0087,-4.0087,-4.0087,-4.0087,-4.0087,-4.0087,-4.0087,-4.0087,-4.0087,-4.0087,-4.0087,-4.0087,-4.0087,-4.0087,-4.0087,-4.0087,-4.0087,-4.0154,-4.0154,-4.0204,-4.0336,-4.0417,-4.0385,-4.0336,-4.072,-4.1682,-4.1937,-4.239,-4.3249,-4.3351,-4.302,-4.2561,-4.2873,-4.2451,-4.1735,-4.1846,-4.2103,-4.1497,-4.1479,-4.146,-4.146,-4.1497,-4.1534,-4.1332,-4.124,-4.1176,-4.1227,-4.1305,-4.1644,-4.2161,-4.1776,-4.1185,-4.0946,-4.0487,-4.0194,-4.0212,-4.0616,-4.1203,-4.2246,-4.2923,-4.3293,-4.3479,-4.3479,-4.3479,-4.3479,-4.3479,-4.3479,-4.3479,-4.3479,-4.3479,-4.9492,-4.9018,-4.9018,-4.9018,-4.9018,-4.9018,-4.9018,-4.8984,-4.8815,-4.8798,-4.8934,-4.8815,-4.8798,-4.8984,-4.9018,-4.9018,-4.9018,-4.9018,-4.9018,-4.8984,-4.8849,-4.7547,-4.5889,-4.4959,-4.4604,-4.4621,-4.4604,-4.457,-4.457,-4.457,-4.4045,-4.3166,-4.3031,-4.2371,-4.1136,-4.0882,-4.0595,-4.0155,-4.0087,-4.0087,-4.0087,-4.0087,-4.0087,-4.0087,-4.0087,-4.0087,-4.0087,-4.0087,-4.0087,-4.0087,-4.0087,-4.0087,-4.0087,-4.0087,-4.0087,-4.0087,-4.0087,-4.0087,-4.0087,-4.0121,-4.0121,-4.0121,-4.0497,-4.0685,-4.0703,-4.1105,-4.1286,-4.1331,-4.1375,-4.1595,-4.2262,-4.248,-4.2846,-4.3321,-4.3479,-4.3387,-4.3149,-4.2818,-4.2598,-4.2782,-4.2525,-4.2488,-4.2671,-4.2727,-4.2727,-4.2727,-4.2671,-4.2543,-4.2139,-4.1992,-4.2004,-4.1967,-4.2095,-4.2415,-4.2564,-4.2286,-4.1992,-4.1846,-4.1442,-4.0928,-4.1093,-4.146,-4.2176,-4.3073,-4.3164,-4.3442,-4.3479,-4.3479,-4.3479,-4.3479,-4.3479,-4.3479,-4.3479,-4.3479,-4.3479,-4.9847,-4.9441,-4.9137,-4.9018,-4.9018,-4.9018,-4.9018,-4.9018,-4.9018,-4.9018,-4.9018,-4.9018,-4.9018,-4.9018,-4.9018,-4.9018,-4.9018,-4.9018,-4.9018,-4.8951,-4.8663,-4.78,-4.6599,-4.5635,-4.5043,-4.501,-4.4722,-4.4587,-4.457,-4.457,-4.413,-4.3521,-4.3403,-4.2811,-4.1728,-4.1305,-4.1035,-4.0578,-4.0273,-4.0087,-4.0087,-4.0087,-4.0087,-4.0087,-4.0087,-4.0087,-4.0087,-4.0087,-4.0087,-4.0087,-4.0087,-4.0087,-4.0087,-4.0087,-4.0087,-4.0087,-4.0087,-4.0087,-4.0171,-4.0286,-4.0466,-4.0546,-4.0967,-4.1223,-4.1313,-4.1621,-4.181,-4.1768,-4.181,-4.2121,-4.2598,-4.2902,-4.3178,-4.3444,-4.3479,-4.3479,-4.3479,-4.3112,-4.3057,-4.324,-4.3149,-4.2928,-4.3442,-4.3479,-4.3479,-4.3442,-4.3332,-4.313,-4.2892,-4.2818,-4.2745,-4.2687,-4.272,-4.2947,-4.3075,-4.2837,-4.269,-4.2561,-4.2378,-4.1846,-4.1864,-4.2213,-4.2745,-4.3277,-4.3406,-4.3479,-4.3479,-4.3479,-4.3479,-4.3479,-4.3479,-4.3479,-4.3479,-4.3479,-4.3479,-5.0168,-5.0033,-4.9306,-4.9018,-4.9018,-4.9018,-4.9018,-4.9018,-4.9018,-4.9018,-4.9018,-4.9018,-4.9018,-4.9018,-4.9018,-4.9018,-4.9018,-4.9018,-4.9018,-4.8849,-4.8528,-4.802,-4.78,-4.6244,-4.5635,-4.5483,-4.4925,-4.4637,-4.457,-4.457,-4.4231,-4.3809,-4.3623,-4.3149,-4.2422,-4.1745,-4.1322,-4.1018,-4.0392,-4.0104,-4.0087,-4.0087,-4.0087,-4.0087,-4.0087,-4.0087,-4.0087,-4.0087,-4.0087,-4.0087,-4.0087,-4.0087,-4.0087,-4.0087,-4.0087,-4.0171,-4.0204,-4.0254,-4.0286,-4.0703,-4.0995,-4.1087,-4.1534,-4.1895,-4.1937,-4.2062,-4.2185,-4.2185,-4.2003,-4.2364,-4.277,-4.3214,-4.341,-4.3479,-4.3479,-4.3479,-4.3479,-4.3479,-4.3479,-4.3479,-4.3479,-4.3479,-4.3479,-4.3479,-4.3479,-4.3479,-4.3479,-4.3387,-4.324,-4.3204,-4.3204,-4.324,-4.333,-4.3387,-4.3424,-4.3406,-4.3332,-4.324,-4.3167,-4.2855,-4.2598,-4.2837,-4.3185,-4.3479,-4.3479,-4.3479,-4.3479,-4.3479,-4.3479,-4.3479,-4.3479,-4.3479,-4.3479,-4.3479,-4.3479,-5.0625,-5.0016,-4.9306,-4.9018,-4.9018,-4.9018,-4.9018,-4.9018,-4.9018,-4.9018,-4.9018,-4.9018,-4.9018,-4.9018,-4.9018,-4.9018,-4.9018,-4.9018,-4.9018,-4.8968,-4.8883,-4.8781,-4.8342,-4.6769,-4.5821,-4.5585,-4.4959,-4.4604,-4.4587,-4.4553,-4.4502,-4.4333,-4.4164,-4.3927,-4.3183,-4.2439,-4.1745,-4.1204,-4.0493,-4.0172,-4.0138,-4.0087,-4.0087,-4.0087,-4.0087,-4.0087,-4.0087,-4.0087,-4.0087,-4.0087,-4.0171,-4.0254,-4.0171,-4.0171,-4.0171,-4.0286,-4.0528,-4.075,-4.0827,-4.1223,-4.1621,-4.1664,-4.2103,-4.2537,-4.2559,-4.2865,-4.3069,-4.3105,-4.316,-4.3105,-4.325,-4.3428,-4.3497,-4.3479,-4.3479,-4.3479,-4.3479,-4.3479,-4.3479,-4.3479,-4.3479,-4.3479,-4.3479,-4.3479,-4.3479,-4.3479,-4.3479,-4.3479,-4.3479,-4.3479,-4.3479,-4.3479,-4.3479,-4.3479,-4.3479,-4.3479,-4.3479,-4.3479,-4.3479,-4.3479,-4.3222,-4.3167,-4.3406,-4.3479,-4.3479,-4.3479,-4.3479,-4.3479,-4.3479,-4.3479,-4.3479,-4.3479,-4.3479,-4.3479,-4.3479,-5.1183,-5.098,-4.961,-4.9204,-4.9407,-4.9137,-4.9018,-4.9018,-4.9018,-4.9018,-4.9018,-4.9018,-4.9018,-4.9018,-4.9018,-4.9018,-4.9018,-4.9018,-4.9018,-4.9001,-4.9001,-4.9001,-4.8781,-4.7581,-4.6599,-4.6177,-4.5466,-4.4993,-4.4671,-4.457,-4.457,-4.457,-4.457,-4.435,-4.391,-4.3183,-4.2675,-4.2151,-4.1153,-4.0612,-4.0595,-4.024,-4.0087,-4.0087,-4.0087,-4.0087,-4.0087,-4.0385,-4.0449,-4.0546,-4.072,-4.072,-4.0546,-4.0497,-4.0594,-4.0955,-4.1105,-4.1313,-4.1446,-4.1853,-4.2203,-4.2244,-4.2752,-4.2976,-4.3105,-4.3375,-4.3444,-4.3479,-4.3479,-4.3479,-4.3479,-4.3479,-4.3479,-4.3479,-4.3479,-4.3479,-4.3479,-4.3479,-4.3479,-4.3479,-4.3479,-4.3479,-4.3479,-4.3479,-4.3479,-4.3479,-4.3479,-4.3479,-4.3479,-4.3479,-4.3479,-4.3479,-4.3479,-4.3479,-4.3479,-4.3479,-4.3479,-4.3479,-4.3479,-4.3479,-4.3387,-4.3387,-4.3461,-4.3479,-4.3479,-4.3479,-4.3479,-4.3479,-4.3479,-4.3479,-4.3479,-4.3479,-4.3479,-4.3479,-4.3479,-5.1674,-5.1961,-4.9999,-4.9458,-4.9779,-4.9255,-4.9018,-4.9018,-4.9018,-4.9018,-4.9018,-4.9018,-4.9018,-4.9018,-4.9018,-4.9018,-4.9018,-4.9018,-4.9018,-4.9018,-4.9018,-4.9018,-4.8798,-4.8274,-4.7614,-4.6921,-4.6024,-4.5348,-4.4925,-4.4621,-4.457,-4.457,-4.457,-4.4502,-4.4367,-4.3809,-4.3267,-4.3014,-4.1999,-4.1324,-4.1274,-4.0814,-4.0591,-4.0514,-4.0514,-4.0514,-4.0594,-4.0844,-4.1059,-4.1087,-4.1534,-4.1534,-4.1313,-4.1087,-4.1223,-4.1768,-4.181,-4.1937,-4.2021,-4.2462,-4.2826,-4.2846,-4.3214,-4.3444,-4.3479,-4.3463,-4.3479,-4.3479,-4.3479,-4.3479,-4.3479,-4.3479,-4.3479,-4.3479,-4.3479,-4.3479,-4.3479,-4.3479,-4.3479,-4.3479,-4.3479,-4.3479,-4.3479,-4.3479,-4.3479,-4.3479,-4.3479,-4.3479,-4.3479,-4.3479,-4.3479,-4.3479,-4.3479,-4.3479,-4.3479,-4.3479,-4.3479,-4.3479,-4.3479,-4.3479,-4.3479,-4.3479,-4.3479,-4.3479,-4.3479,-4.3479,-4.3479,-4.3479,-4.3479,-4.3479,-4.3479,-4.3479,-4.3479,-4.3479,-4.3479,-5.1843,-5.1302,-5.0338,-4.9644,-4.9221,-4.9035,-4.9018,-4.9018,-4.9018,-4.9018,-4.9018,-4.9018,-4.9018,-4.9018,-4.9018,-4.9018,-4.9018,-4.9018,-4.9018,-4.9018,-4.9018,-4.9018,-4.8934,-4.8798,-4.8342,-4.753,-4.6549,-4.5771,-4.5348,-4.4942,-4.4604,-4.457,-4.4609,-4.4665,-4.4461,-4.3898,-4.3705,-4.369,-4.2839,-4.233,-4.2167,-4.1937,-4.1643,-4.153,-4.1558,-4.1568,-4.149,-4.1569,-4.1682,-4.1664,-4.175,-4.2038,-4.2234,-4.2008,-4.1906,-4.1979,-4.2342,-4.2541,-4.258,-4.305,-4.3304,-4.341,-4.3518,-4.3552,-4.3534,-4.3534,-4.3644,-4.3571,-4.3534,-4.3479,-4.3479,-4.3479,-4.3479,-4.3479,-4.3479,-4.3479,-4.3479,-4.3479,-4.3479,-4.3479,-4.3479,-4.3479,-4.3479,-4.3479,-4.3479,-4.3479,-4.3479,-4.3479,-4.3479,-4.3479,-4.3479,-4.3479,-4.3479,-4.3479,-4.3479,-4.3479,-4.3479,-4.3479,-4.3479,-4.3479,-4.3479,-4.3479,-4.3479,-4.3479,-4.3479,-4.3479,-4.3479,-4.3479,-4.3479,-4.3479,-4.3479,-4.3479,-4.3479,-4.3479,-4.3479,-5.1758,-5.1623,-5.0185,-4.956,-4.9492,-4.9154,-4.9018,-4.9018,-4.9018,-4.9018,-4.9018,-4.9018,-4.9018,-4.9018,-4.9018,-4.9018,-4.9018,-4.9018,-4.9018,-4.9018,-4.9018,-4.9018,-4.9018,-4.9018,-4.8832,-4.8274,-4.7378,-4.6329,-4.5686,-4.4925,-4.4677,-4.4665,-4.4852,-4.5035,-4.5127,-4.5079,-4.4871,-4.4749,-4.4227,-4.3802,-4.367,-4.3419,-4.2978,-4.2652,-4.2792,-4.2827,-4.2534,-4.281,-4.291,-4.288,-4.2757,-4.3099,-4.3393,-4.3445,-4.309,-4.284,-4.2994,-4.3123,-4.3214,-4.3667,-4.394,-4.3608,-4.3846,-4.4103,-4.4121,-4.414,-4.4121,-4.4048,-4.3608,-4.3479,-4.3479,-4.3516,-4.3479,-4.3479,-4.3479,-4.3479,-4.3479,-4.3479,-4.3479,-4.3479,-4.3479,-4.3479,-4.3479,-4.3479,-4.3479,-4.3479,-4.3479,-4.3479,-4.3479,-4.3479,-4.3479,-4.3479,-4.3479,-4.3479,-4.3479,-4.3479,-4.3479,-4.3479,-4.3479,-4.3479,-4.3479,-4.3479,-4.3479,-4.3479,-4.3479,-4.3479,-4.3479,-4.3479,-4.3479,-4.3479,-4.3479,-4.3479,-4.3479,-4.3479,-4.3479,-5.1589,-5.1691,-4.9965,-4.9475,-4.9729,-4.9255,-4.9018,-4.9018,-4.9018,-4.9018,-4.9018,-4.9018,-4.9018,-4.9018,-4.9018,-4.9018,-4.9018,-4.9018,-4.9018,-4.9018,-4.9018,-4.9018,-4.9018,-4.9018,-4.8951,-4.8765,-4.78,-4.709,-4.6092,-4.5263,-4.4902,-4.494,-4.532,-4.5597,-4.5697,-4.5909,-4.6365,-4.6218,-4.5864,-4.5521,-4.5302,-4.4874,-4.4257,-4.3668,-4.4185,-4.4235,-4.3817,-4.3812,-4.4095,-4.4102,-4.4017,-4.4068,-4.4782,-4.4947,-4.4654,-4.4121,-4.3993,-4.3975,-4.4158,-4.449,-4.4727,-4.4342,-4.4654,-4.4874,-4.4947,-4.4947,-4.4929,-4.4819,-4.4488,-4.4121,-4.4195,-4.3883,-4.3791,-4.3718,-4.3644,-4.3479,-4.3479,-4.3479,-4.3479,-4.3479,-4.3479,-4.3479,-4.3497,-4.3479,-4.3479,-4.3479,-4.3479,-4.3479,-4.3479,-4.3479,-4.3479,-4.3479,-4.3479,-4.3479,-4.3479,-4.3479,-4.3479,-4.3479,-4.3479,-4.3479,-4.3479,-4.3479,-4.3479,-4.3479,-4.3479,-4.3479,-4.3479,-4.3479,-4.3479,-4.3479,-4.3479,-4.3479,-4.3479,-4.3479,-4.3479,-5.1454,-5.0355,-5.0067,-4.9644,-4.9187,-4.9052,-4.9018,-4.9018,-4.9018,-4.9018,-4.9018,-4.9018,-4.9018,-4.9018,-4.9018,-4.9018,-4.9018,-4.9018,-4.9018,-4.9018,-4.9018,-4.9018,-4.9001,-4.9018,-4.9107,-4.9059,-4.7895,-4.6955,-4.6503,-4.5966,-4.5525,-4.5441,-4.5597,-4.5783,-4.6288,-4.6553,-4.6365,-4.6413,-4.6354,-4.6229,-4.614,-4.5885,-4.5676,-4.5532,-4.5623,-4.564,-4.5328,-4.5076,-4.5004,-4.548,-4.4912,-4.5002,-4.559,-4.5773,-4.5755,-4.5645,-4.5626,-4.5626,-4.5498,-4.5626,-4.5626,-4.5388,-4.5645,-4.5736,-4.5755,-4.5755,-4.5755,-4.5773,-4.5553,-4.5388,-4.5168,-4.4856,-4.4654,-4.4232,-4.3864,-4.3608,-4.3479,-4.3479,-4.3479,-4.3608,-4.3644,-4.3552,-4.3497,-4.3497,-4.3479,-4.3479,-4.3479,-4.3479,-4.3479,-4.3479,-4.3479,-4.3479,-4.3479,-4.3479,-4.3479,-4.3479,-4.3479,-4.3479,-4.3479,-4.3479,-4.3479,-4.3479,-4.3479,-4.3479,-4.3479,-4.3479,-4.3479,-4.3479,-4.3479,-4.3479,-4.3479,-4.3479,-4.3479,-4.3479,-4.3479,-5.0676,-5.005,-4.9644,-4.9306,-4.9035,-4.9018,-4.9018,-4.9018,-4.9018,-4.9018,-4.9018,-4.9018,-4.9018,-4.9018,-4.9018,-4.9018,-4.9018,-4.9018,-4.9018,-4.9063,-4.9063,-4.9063,-4.9107,-4.9359,-4.9563,-4.9492,-4.9301,-4.8851,-4.7887,-4.6475,-4.5684,-4.6052,-4.6353,-4.6728,-4.6999,-4.7306,-4.7452,-4.7494,-4.7476,-4.7474,-4.7368,-4.7254,-4.704,-4.6636,-4.6985,-4.6948,-4.6562,-4.6342,-4.6214,-4.6434,-4.581,-4.5773,-4.6361,-4.6636,-4.6728,-4.726,-4.726,-4.6819,-4.6085,-4.6397,-4.6342,-4.6159,-4.6287,-4.6581,-4.6581,-4.6581,-4.6581,-4.6581,-4.614,-4.5975,-4.5847,-4.5168,-4.4874,-4.4507,-4.4158,-4.3791,-4.3571,-4.3497,-4.3516,-4.3663,-4.3846,-4.3901,-4.3901,-4.3809,-4.3718,-4.3479,-4.3479,-4.3479,-4.3479,-4.3479,-4.3479,-4.3479,-4.3479,-4.3479,-4.3479,-4.3479,-4.3479,-4.3479,-4.3479,-4.3479,-4.3479,-4.3479,-4.3479,-4.3479,-4.3479,-4.3479,-4.3479,-4.3479,-4.3479,-4.3479,-4.3479,-4.3479,-4.3479,-4.3479,-4.3479,-4.9813,-4.9763,-4.9221,-4.9018,-4.9018,-4.9018,-4.9018,-4.9018,-4.9018,-4.9018,-4.9018,-4.9018,-4.9018,-4.9018,-4.9018,-4.9018,-4.9018,-4.9018,-4.9107,-4.9212,-4.9256,-4.9419,-4.9739,-5.009,-5.0297,-5.0244,-4.989,-4.9619,-4.8679,-4.7501,-4.6641,-4.6682,-4.6999,-4.7428,-4.7715,-4.7937,-4.8132,-4.8132,-4.8172,-4.8192,-4.8194,-4.8212,-4.7902,-4.7755,-4.7865,-4.8031,-4.7498,-4.7057,-4.702,-4.726,-4.6636,-4.6581,-4.726,-4.7443,-4.759,-4.7994,-4.8067,-4.7865,-4.7352,-4.7297,-4.704,-4.6911,-4.6929,-4.7407,-4.7407,-4.7407,-4.7425,-4.7407,-4.7021,-4.6673,-4.6361,-4.5883,-4.5645,-4.5204,-4.4562,-4.4121,-4.3809,-4.392,-4.403,-4.4195,-4.4415,-4.4672,-4.458,-4.4323,-4.4011,-4.3589,-4.3479,-4.3479,-4.3479,-4.3479,-4.3479,-4.3479,-4.3479,-4.3479,-4.3479,-4.3479,-4.3479,-4.3479,-4.3479,-4.3479,-4.3479,-4.3479,-4.3479,-4.3479,-4.3479,-4.3479,-4.3479,-4.3479,-4.3479,-4.3479,-4.3479,-4.3479,-4.3479,-4.3479,-4.3479,-4.9086,-4.9069,-4.9035,-4.9018,-4.9018,-4.9018,-4.9018,-4.9018,-4.9018,-4.9018,-4.9018,-4.9018,-4.9018,-4.9018,-4.9001,-4.9001,-4.9063,-4.9001,-4.9419,-4.978,-4.9993,-5.0258,-5.0572,-5.0823,-5.0963,-5.0716,-5.0346,-4.9853,-4.9395,-4.8893,-4.7975,-4.7511,-4.7802,-4.7907,-4.8126,-4.8467,-4.8398,-4.8361,-4.8324,-4.8324,-4.8324,-4.8324,-4.8233,-4.8214,-4.8251,-4.8269,-4.8177,-4.759,-4.7462,-4.8012,-4.7425,-4.7278,-4.7865,-4.8012,-4.8177,-4.8453,-4.8526,-4.86,-4.8783,-4.8453,-4.8214,-4.8177,-4.8104,-4.8067,-4.8012,-4.8159,-4.8214,-4.8104,-4.7755,-4.7847,-4.77,-4.7462,-4.6636,-4.614,-4.5424,-4.4856,-4.4617,-4.4635,-4.4727,-4.48,-4.5039,-4.5388,-4.548,-4.5259,-4.4544,-4.4103,-4.3516,-4.3479,-4.3479,-4.3479,-4.3479,-4.3479,-4.3479,-4.3479,-4.3479,-4.3479,-4.3479,-4.3479,-4.3479,-4.3479,-4.3479,-4.3479,-4.3479,-4.3479,-4.3479,-4.3479,-4.3479,-4.3479,-4.3479,-4.3479,-4.3479,-4.3479,-4.3479,-4.3479,-4.3479,-4.9018,-4.9018,-4.9018,-4.9018,-4.9018,-4.9018,-4.9018,-4.9018,-4.9018,-4.9018,-4.9018,-4.9018,-4.9018,-4.9001,-4.9063,-4.9256,-4.9563,-4.9622,-5.0107,-5.0462,-5.0787,-5.0894,-5.1189,-5.1405,-5.1441,-5.109,-5.0669,-5.0468,-5.0302,-4.9992,-4.9888,-4.9474,-4.8976,-4.8916,-4.9074,-4.9003,-4.8783,-4.8398,-4.8324,-4.8324,-4.8324,-4.8324,-4.8324,-4.8324,-4.8324,-4.8324,-4.8251,-4.8031,-4.8086,-4.8141,-4.7976,-4.8141,-4.8343,-4.8416,-4.8691,-4.9003,-4.9077,-4.9536,-4.9994,-4.9591,-4.9132,-4.8967,-4.8655,-4.8324,-4.8324,-4.8324,-4.8324,-4.8306,-4.8324,-4.8324,-4.8177,-4.759,-4.691,-4.6801,-4.6361,-4.5681,-4.5443,-4.5443,-4.5461,-4.5553,-4.592,-4.6324,-4.6324,-4.6287,-4.5424,-4.4599,-4.3975,-4.3534,-4.3699,-4.3789,-4.3881,-4.3826,-4.3807,-4.3663,-4.3663,-4.3589,-4.3497,-4.3479,-4.3479,-4.3479,-4.3479,-4.3479,-4.3479,-4.3479,-4.3479,-4.3479,-4.3479,-4.3479,-4.3479,-4.3479,-4.3479,-4.3479,-4.3479,-4.3479,-4.3479,-4.8748,-4.8392,-4.8595,-4.8815,-4.9001,-4.9018,-4.9018,-4.9018,-4.9018,-4.9018,-4.9018,-4.9001,-4.9168,-4.9273,-4.9316,-4.9722,-5.0185,-5.0407,-5.0823,-5.1138,-5.1393,-5.1512,-5.1808,-5.2022,-5.2064,-5.1518,-5.1554,-5.1532,-5.0739,-5.1041,-5.0817,-5.0578,-5.0508,-5.0288,-4.9884,-4.9646,-4.9279,-4.882,-4.8398,-4.8343,-4.8324,-4.8324,-4.8324,-4.8324,-4.8324,-4.8324,-4.8324,-4.8214,-4.8251,-4.8398,-4.8489,-4.8655,-4.8783,-4.8985,-4.937,-4.9719,-5.0031,-5.0343,-5.0674,-5.0215,-4.9499,-4.8967,-4.8636,-4.8361,-4.8324,-4.8324,-4.8324,-4.8324,-4.8324,-4.8306,-4.8288,-4.7829,-4.759,-4.748,-4.6856,-4.6269,-4.6269,-4.6269,-4.6269,-4.6305,-4.6783,-4.7278,-4.7095,-4.6966,-4.6177,-4.5443,-4.5021,-4.4654,-4.4671,-4.4671,-4.4595,-4.4467,-4.423,-4.4083,-4.3883,-4.3718,-4.3552,-4.3479,-4.3479,-4.3479,-4.3479,-4.3479,-4.3479,-4.3479,-4.3479,-4.3479,-4.3479,-4.3479,-4.3479,-4.3479,-4.3479,-4.3479,-4.3479,-4.3479,-4.3479,-4.8173,-4.6989,-4.7682,-4.8359,-4.89,-4.8984,-4.8951,-4.89,-4.8917,-4.8951,-4.9001,-4.9001,-4.9316,-4.9722,-4.9722,-5.0241,-5.0823,-5.1034,-5.1444,-5.197,-5.2131,-5.2509,-5.2769,-5.2889,-5.2517,-5.2119,-5.194,-5.161,-5.093,-5.1463,-5.1408,-5.1408,-5.1518,-5.1353,-5.0765,-4.9994,-4.9609,-4.9426,-4.871,-4.8398,-4.8324,-4.8324,-4.8324,-4.8324,-4.8489,-4.8563,-4.8563,-4.8765,-4.8838,-4.8875,-4.9315,-4.9517,-4.9572,-5.0123,-5.0508,-5.0729,-5.0784,-5.1169,-5.172,-5.0417,-4.9664,-4.9169,-4.9132,-4.8728,-4.8453,-4.8379,-4.8361,-4.8379,-4.8324,-4.8324,-4.8288,-4.8251,-4.8159,-4.7939,-4.7315,-4.7076,-4.7095,-4.7095,-4.7095,-4.7095,-4.77,-4.8196,-4.7957,-4.7609,-4.6874,-4.6305,-4.5993,-4.5755,-4.5589,-4.5405,-4.5239,-4.5111,-4.4837,-4.4562,-4.4306,-4.3846,-4.3626,-4.3534,-4.3479,-4.3479,-4.3479,-4.3479,-4.3479,-4.3479,-4.3479,-4.3479,-4.3479,-4.3479,-4.3479,-4.3479,-4.3479,-4.3479,-4.3479,-4.3479,-4.3479,-4.7986,-4.7581,-4.7817,-4.8054,-4.8274,-4.8291,-4.8291,-4.8291,-4.8308,-4.8545,-4.8934,-4.9018,-4.9107,-4.9419,-4.9976,-5.05,-5.1138,-5.171,-5.2112,-5.2725,-5.2769,-5.2937,-5.3164,-5.3115,-5.2784,-5.2197,-5.1958,-5.1977,-5.1628,-5.1977,-5.2307,-5.2417,-5.238,-5.2013,-5.1114,-5.0417,-5.0215,-4.9536,-4.882,-4.8324,-4.8324,-4.8324,-4.8343,-4.8361,-4.882,-4.9077,-4.9169,-4.9499,-4.9719,-4.9774,-5.0251,-5.0362,-5.0398,-5.0894,-5.1114,-5.1426,-5.1591,-5.1683,-5.1903,-5.1353,-5.1132,-5.0637,-5.0068,-4.9591,-4.9279,-4.9169,-4.8875,-4.8471,-4.8434,-4.8416,-4.8306,-4.8306,-4.8251,-4.8233,-4.7902,-4.7902,-4.7902,-4.7902,-4.7902,-4.7902,-4.8288,-4.8306,-4.8177,-4.8067,-4.748,-4.704,-4.6709,-4.6269,-4.5993,-4.5847,-4.5718,-4.5682,-4.5499,-4.515,-4.4838,-4.4544,-4.4103,-4.3938,-4.3699,-4.3479,-4.3479,-4.3626,-4.3516,-4.3534,-4.3497,-4.3497,-4.3699,-4.3809,-4.3552,-4.3479,-4.3534,-4.3516,-4.3479,-4.3479,-4.3479,-4.7225,-4.6802,-4.7056,-4.7158,-4.7192,-4.7411,-4.7513,-4.7581,-4.78,-4.8206,-4.8657,-4.9059,-4.9563,-4.9879,-5.0445,-5.1138,-5.1825,-5.2242,-5.2554,-5.3164,-5.3164,-5.3164,-5.3164,-5.3151,-5.2711,-5.2252,-5.227,-5.2325,-5.1977,-5.227,-5.2637,-5.2986,-5.317,-5.2417,-5.1536,-5.0949,-5.0362,-4.9591,-4.882,-4.8324,-4.8324,-4.8361,-4.8489,-4.8838,-4.9279,-4.9682,-5.005,-5.0472,-5.0839,-5.0894,-5.1041,-5.1169,-5.1242,-5.1555,-5.1848,-5.2289,-5.2417,-5.2417,-5.2435,-5.2417,-5.227,-5.2234,-5.1463,-5.0637,-5.0123,-5.0013,-4.9517,-4.9095,-4.8802,-4.8545,-4.8453,-4.8434,-4.8471,-4.8471,-4.8379,-4.8361,-4.86,-4.86,-4.8214,-4.8288,-4.8306,-4.8306,-4.8324,-4.8306,-4.8067,-4.7737,-4.7425,-4.6985,-4.6599,-4.6544,-4.6507,-4.6507,-4.6359,-4.6103,-4.5773,-4.5388,-4.4929,-4.4415,-4.4213,-4.4066,-4.3938,-4.414,-4.3846,-4.3644,-4.3862,-4.4028,-4.4158,-4.4158,-4.392,-4.3736,-4.3663,-4.3608,-4.3516,-4.3552,-4.3608,-4.5923,-4.4823,-4.5399,-4.5771,-4.5855,-4.643,-4.6701,-4.6853,-4.7496,-4.7784,-4.8022,-4.9309,-5.0011,-5.0928,-5.1656,-5.2152,-5.2605,-5.2834,-5.2938,-5.2999,-5.2931,-5.3041,-5.317,-5.317,-5.2821,-5.2601,-5.2601,-5.2692,-5.2215,-5.2656,-5.3059,-5.3133,-5.3023,-5.2362,-5.1646,-5.0875,-5.0233,-4.9517,-4.8802,-4.8379,-4.8324,-4.8324,-4.8728,-4.9187,-4.9701,-5.0215,-5.0655,-5.1132,-5.1169,-5.1334,-5.1646,-5.1903,-5.227,-5.2784,-5.3059,-5.3188,-5.3133,-5.3078,-5.3059,-5.3004,-5.3041,-5.2839,-5.1885,-5.1151,-5.0857,-5.0784,-5.038,-4.9921,-4.9591,-4.904,-4.8673,-4.8746,-4.8802,-4.871,-4.8581,-4.8783,-4.915,-4.8967,-4.8471,-4.8306,-4.8306,-4.8324,-4.8324,-4.8324,-4.8324,-4.8177,-4.7902,-4.7884,-4.759,-4.7682,-4.7645,-4.7627,-4.7404,-4.7111,-4.669,-4.6159,-4.57,-4.5168,-4.5278,-4.5168,-4.4966,-4.4654,-4.4433,-4.4323,-4.443,-4.4595,-4.4873,-4.4672,-4.4287,-4.4158,-4.4323,-4.4048,-4.4048,-4.3883,-4.3938,-4.5754,-4.5415,-4.5618,-4.5703,-4.5652,-4.5365,-4.5788,-4.6701,-4.6549,-4.6782,-4.7847,-4.8778,-4.9801,-5.0325,-5.1538,-5.1827,-5.1918,-5.2035,-5.2265,-5.2344,-5.2435,-5.2747,-5.2986,-5.3115,-5.2986,-5.2931,-5.2949,-5.2913,-5.2894,-5.3188,-5.3206,-5.317,-5.2692,-5.1995,-5.1224,-5.0362,-4.9903,-4.9389,-4.8655,-4.8416,-4.8343,-4.8379,-4.893,-4.9517,-5.0233,-5.0839,-5.1499,-5.2123,-5.2289,-5.2527,-5.2692,-5.2839,-5.2913,-5.3096,-5.3206,-5.3206,-5.3188,-5.3188,-5.3206,-5.3206,-5.3206,-5.3206,-5.2637,-5.2252,-5.1885,-5.1555,-5.1261,-5.0784,-5.0435,-4.9976,-4.9481,-4.9352,-4.9499,-4.9517,-4.9334,-4.926,-4.9554,-4.937,-4.8875,-4.8545,-4.8545,-4.8416,-4.8398,-4.8324,-4.8324,-4.8324,-4.8324,-4.8324,-4.8324,-4.8324,-4.8306,-4.8251,-4.8084,-4.7642,-4.7313,-4.6819,-4.636,-4.6012,-4.6159,-4.614,-4.5736,-4.5406,-4.5094,-4.4947,-4.4983,-4.5277,-4.5626,-4.5333,-4.4929,-4.5223,-4.5369,-4.4929,-4.458,-4.4488,-4.4635,-4.5263,-4.5263,-4.5263,-4.5399,-4.5503,-4.5149,-4.5617,-4.647,-4.6216,-4.6697,-4.7771,-4.9151,-4.99,-5.0472,-5.1501,-5.1853,-5.1533,-5.1462,-5.1518,-5.1573,-5.1775,-5.2234,-5.2619,-5.2747,-5.2637,-5.2674,-5.2509,-5.2215,-5.2711,-5.3115,-5.3206,-5.3133,-5.238,-5.1573,-5.0839,-5.0105,-4.9444,-4.9022,-4.86,-4.8379,-4.8398,-4.8618,-4.9315,-4.9994,-5.0802,-5.161,-5.2344,-5.3041,-5.3151,-5.3206,-5.3206,-5.3206,-5.3188,-5.3206,-5.3206,-5.3206,-5.3206,-5.3206,-5.3206,-5.3206,-5.3206,-5.3206,-5.3206,-5.2931,-5.2692,-5.2417,-5.1958,-5.1481,-5.1279,-5.0986,-5.0472,-5.0086,-5.0306,-5.0527,-5.016,-4.9793,-4.9756,-4.9719,-4.937,-4.8967,-4.8765,-4.8618,-4.8508,-4.8416,-4.8324,-4.8324,-4.8324,-4.8324,-4.8324,-4.8324,-4.8324,-4.8288,-4.8251,-4.8066,-4.7736,-4.7459,-4.7241,-4.7058,-4.7186,-4.7058,-4.6581,-4.6269,-4.6085,-4.5755,-4.548,-4.5957,-4.6544,-4.6067,-4.5736,-4.6085,-4.625,-4.5865,-4.5535,-4.5406,-4.5663,-4.4699,-4.4793,-4.4703,-4.5142,-4.5459,-4.5493,-4.5968,-4.6472,-4.665,-4.7033,-4.7908,-4.9726,-5.0451,-5.0588,-5.1329,-5.1595,-5.1193,-5.0872,-5.0692,-5.0729,-5.1151,-5.1591,-5.1811,-5.1903,-5.1903,-5.1646,-5.1518,-5.1628,-5.2123,-5.2564,-5.2894,-5.3041,-5.2197,-5.1316,-5.049,-4.9682,-4.904,-4.86,-4.8434,-4.8324,-4.8545,-4.9095,-4.9976,-5.071,-5.1499,-5.2289,-5.2913,-5.3206,-5.3206,-5.3206,-5.3206,-5.3206,-5.3206,-5.3206,-5.3206,-5.3206,-5.3206,-5.3206,-5.3206,-5.3206,-5.3206,-5.3206,-5.3206,-5.3133,-5.3023,-5.2949,-5.2509,-5.227,-5.205,-5.1665,-5.1169,-5.0949,-5.1059,-5.1059,-5.0784,-5.0747,-5.0875,-5.0563,-4.9921,-4.9536,-4.9205,-4.904,-4.8857,-4.8802,-4.9058,-4.8728,-4.8783,-4.882,-4.8563,-4.8563,-4.8416,-4.8398,-4.8288,-4.8269,-4.8196,-4.7992,-4.8102,-4.8104,-4.8049,-4.7865,-4.7333,-4.7169,-4.7114,-4.6783,-4.647,-4.6965,-4.7314,-4.6948,-4.6746,-4.6948,-4.7003,-4.6728,-4.6544,-4.6544,-4.6691,-4.5142,-4.5965,-4.5965,-4.5712,-4.5387,-4.5945,-4.6571,-4.715,-4.7178,-4.7322,-4.7679,-4.8622,-4.9524,-5.0099,-5.0735,-5.0875,-5.0288,-5.0105,-4.9903,-4.9921,-5.0251,-5.0765,-5.0986,-5.1096,-5.1114,-5.1041,-5.1004,-5.1132,-5.1646,-5.2068,-5.2252,-5.2179,-5.1481,-5.0692,-4.9994,-4.9169,-4.8581,-4.8324,-4.8324,-4.8379,-4.8563,-4.915,-4.9921,-5.0784,-5.1628,-5.2435,-5.2968,-5.3206,-5.3206,-5.3206,-5.3206,-5.3206,-5.3206,-5.3206,-5.3206,-5.3206,-5.3206,-5.3206,-5.3206,-5.3206,-5.3206,-5.3206,-5.3206,-5.3206,-5.3206,-5.3206,-5.3133,-5.2968,-5.2711,-5.2289,-5.1977,-5.1848,-5.1738,-5.1591,-5.1463,-5.1738,-5.2013,-5.1316,-5.0563,-5.0141,-4.9774,-4.9536,-4.937,-4.9407,-4.9646,-4.9903,-5.016,-5.0105,-4.952,-4.9244,-4.8785,-4.8675,-4.8361,-4.8306,-4.8324,-4.8324,-4.8324,-4.8324,-4.8214,-4.8086,-4.7976,-4.77,-4.7425,-4.7609,-4.7626,-4.7809,-4.7919,-4.8012,-4.7902,-4.781,-4.7939,-4.7755,-4.8031,-4.8104,-4.8104,-4.5545,-4.6365,-4.6365,-4.6323,-4.6284,-4.6686,-4.7176,-4.7715,-4.7797,-4.7797,-4.7925,-4.8657,-4.9277,-4.9572,-5.0068,-5.0105,-4.9499,-4.915,-4.9058,-4.9058,-4.9444,-4.9884,-5.0141,-5.0288,-5.0637,-5.0655,-5.0765,-5.0967,-5.1151,-5.1353,-5.1426,-5.1334,-5.0674,-5.0031,-4.9444,-4.8783,-4.8324,-4.8324,-4.8324,-4.8489,-4.8802,-4.9627,-5.0453,-5.1298,-5.2087,-5.2766,-5.2968,-5.3206,-5.3206,-5.3206,-5.3206,-5.3206,-5.3206,-5.3206,-5.3206,-5.3206,-5.3206,-5.3206,-5.3206,-5.3206,-5.3206,-5.3206,-5.3206,-5.3206,-5.3206,-5.3206,-5.3206,-5.3078,-5.3078,-5.2711,-5.2674,-5.2582,-5.2564,-5.2472,-5.2399,-5.2527,-5.2619,-5.2344,-5.1683,-5.1151,-5.0839,-5.0618,-5.0417,-5.0123,-5.0325,-5.0343,-5.0729,-5.0839,-5.0346,-4.9961,-4.9504,-4.9081,-4.884,-4.8453,-4.8324,-4.8324,-4.8324,-4.8324,-4.8324,-4.8251,-4.8122,-4.7901,-4.7752,-4.7901,-4.7974,-4.8011,-4.8139,-4.8288,-4.8324,-4.8122,-4.8489,-4.8838,-4.9169,-4.9407,-4.9481,-4.5562,-4.6052,-4.6369,-4.6766,-4.7217,-4.7458,-4.7797,-4.8229,-4.8267,-4.8176,-4.8102,-4.8781,-4.926,-4.9407,-4.9407,-4.9426,-4.9242,-4.8765,-4.8453,-4.8581,-4.9058,-4.926,-4.9352,-4.9462,-4.9884,-5.027,-5.0472,-5.0325,-5.0233,-5.0637,-5.0875,-5.0563,-5.0068,-4.9517,-4.9224,-4.8802,-4.8324,-4.8324,-4.8434,-4.8802,-4.9517,-5.038,-5.1096,-5.1922,-5.2711,-5.3151,-5.3206,-5.3206,-5.3206,-5.3206,-5.3206,-5.3206,-5.3206,-5.3206,-5.3206,-5.3206,-5.3206,-5.3206,-5.3206,-5.3206,-5.3206,-5.3206,-5.3206,-5.3206,-5.3206,-5.3206,-5.3206,-5.3206,-5.3206,-5.3206,-5.317,-5.3151,-5.3133,-5.3133,-5.3096,-5.3078,-5.3096,-5.3078,-5.2564,-5.1995,-5.1738,-5.1499,-5.1316,-5.1004,-5.1004,-5.1004,-5.1022,-5.1004,-5.093,-5.0714,-5.0365,-4.9887,-4.9556,-4.9114,-4.8508,-4.8434,-4.8471,-4.8324,-4.8324,-4.8324,-4.8288,-4.8084,-4.8047,-4.8157,-4.8251,-4.8176,-4.8194,-4.8306,-4.8324,-4.8379,-4.8857,-4.9279,-4.9609,-4.9939,-5.0527,-4.4272,-4.4461,-4.619,-4.6681,-4.6486,-4.7529,-4.821,-4.8267,-4.8251,-4.7976,-4.7517,-4.7498,-4.7884,-4.8545,-4.8563,-4.8618,-4.8728,-4.8361,-4.8343,-4.8434,-4.8618,-4.8618,-4.871,-4.9022,-4.9169,-4.9536,-4.9939,-5.0086,-4.9774,-5.0288,-5.0417,-4.9793,-4.9756,-4.9224,-4.86,-4.8324,-4.8324,-4.8324,-4.8434,-4.8746,-4.9609,-5.0417,-5.1187,-5.1977,-5.2766,-5.3059,-5.3206,-5.3206,-5.3206,-5.3206,-5.3206,-5.3206,-5.3206,-5.3206,-5.3206,-5.3206,-5.3206,-5.3206,-5.3206,-5.3206,-5.3206,-5.3206,-5.3206,-5.3206,-5.3206,-5.3206,-5.3206,-5.3206,-5.3206,-5.3206,-5.3188,-5.3188,-5.3188,-5.3188,-5.317,-5.317,-5.317,-5.3078,-5.2821,-5.238,-5.205,-5.1958,-5.194,-5.1867,-5.205,-5.2123,-5.2362,-5.2289,-5.1793,-5.1499,-5.1151,-5.0729,-5.031,-4.9389,-4.8655,-4.871,-4.8691,-4.8489,-4.8324,-4.8324,-4.8324,-4.8324,-4.8324,-4.8324,-4.8324,-4.8288,-4.8324,-4.8416,-4.8489,-4.8636,-4.915,-4.9591,-4.9994,-5.06,-5.1334]}]]